[[{"header":{"parameterUnit":"m.s-1","parameterCategory":1,"la1":31.0,"la2":29.5877,"lo1":-88.7671,"lo2":-86.6584,"dy":0.0162,"dx":0.0185,"nx":115,"ny":88,"refTime":"2026-04-11T12:00:00:Z","depth":0,"parameterNumber":2,"parameterNumberName":"U-component_of_WINDS"},"data":[0.0,0.0,0.0,0.0,0.0,0.0,0.0,0.0,0.0,0.0,0.0,0.0,0.0,0.0,0.0,0.0,0.0,0.0,0.0,0.0,0.0,0.0,0.0,0.0,0.0,0.0,0.0,0.0,0.0,0.0,0.0,0.0,0.0,0.0,0.0,0.0,0.0,0.0,0.0,0.0,0.0,0.0,0.0,0.0,0.0,0.0,0.0,0.0,0.0,0.0,0.0,0.0,0.0,0.0,0.0,0.0,0.0,0.0,0.0,0.0,0.0,0.0,0.0,0.0,0.0,0.0,0.0,0.0,0.0,0.0,0.0,0.0,0.0,0.0,0.0,0.0,0.0,0.0,0.0,0.0,0.0,0.0,0.0,0.0,0.0,0.0,0.0,0.0,0.0,0.0,0.0,0.0,0.0,0.0,0.0,0.0,0.0,0.0,0.0,0.0,0.0,0.0,0.0,0.0,0.0,0.0,0.0,0.0,0.0,0.0,0.0,0.0,0.0,0.0,0.0,0.0,0.0,0.0,0.0,0.0,0.0,0.0,0.0,0.0,0.0,0.0,0.0,0.0,0.0,0.0,0.0,0.0,0.0,0.0,0.0,0.0,0.0,0.0,0.0,0.0,0.0,0.0,0.0,0.0,0.0,0.0,0.0,0.0,0.0,0.0,0.0,0.0,0.0,0.0,0.0,0.0,0.0,0.0,0.0,0.0,0.0,0.0,0.0,0.0,0.0,0.0,0.0,0.0,0.0,0.0,0.0,0.0,0.0,0.0,0.0,0.0,0.0,0.0,0.0,0.0,0.0,0.0,0.0,0.0,0.0,0.0,0.0,0.0,0.0,0.0,0.0,0.0,0.0,0.0,0.0,0.0,0.0,0.0,0.0,0.0,0.0,0.0,0.0,0.0,0.0,0.0,0.0,0.0,0.0,0.0,0.0,0.0,0.0,0.0,0.0,0.0,0.0,0.0,0.0,0.0,0.0,0.0,0.0,0.0,0.0,0.0,0.0,0.0,0.0,0.0,0.0,0.0,0.0,0.0,0.0,0.0,0.0,0.0,0.0,0.0,0.0,0.0,0.0,0.0,0.0,0.0,0.0,0.0,0.0,0.0,0.0,0.0,0.0,0.0,0.0,0.0,0.0,0.0,0.0,0.0,0.0,0.0,0.0,0.0,0.0,0.0,0.0,0.0,0.0,0.0,0.0,0.0,0.0,0.0,0.0,0.0,0.0,0.0,0.0,0.0,0.0,0.0,0.0,0.0,0.0,0.0,0.0,0.0,0.0,0.0,0.0,0.0,0.0,0.0,0.0,0.0,0.0,0.0,0.0,0.0,0.0,0.0,0.0,0.0,0.0,0.0,0.0,0.0,0.0,0.0,0.0,0.0,0.0,0.0,0.0,0.0,0.0,0.0,0.0,0.0,0.0,0.0,0.0,0.0,0.0,0.0,0.0,0.0,0.0,0.0,0.0,0.0,0.0,0.0,0.0,0.0,0.0,0.0,0.0,0.0,0.0,0.0,0.0,0.0,0.0,0.0,0.0,0.0,0.0,0.0,0.0,0.0,0.0,0.0,0.0,0.0,0.0,0.0,0.0,0.0,0.0,0.0,0.0,0.0,0.0,0.0,0.0,0.0,0.0,0.0,0.0,0.0,0.0,0.0,0.0,0.0,0.0,0.0,0.0,0.0,0.0,0.0,0.0,0.0,0.0,0.0,0.0,0.0,0.0,0.0,0.0,0.0,0.0,0.0,0.0,0.0,0.0,0.0,0.0,0.0,0.0,0.0,0.0,0.0,0.0,0.0,0.0,0.0,0.0,0.0,0.0,0.0,0.0,0.0,0.0,0.0,0.0,0.0,0.0,0.0,0.0,0.0,0.0,0.0,0.0,0.0,0.0,0.0,0.0,0.0,0.0,0.0,0.0,0.0,0.0,0.0,0.0,0.0,0.0,0.0,0.0,0.0,0.0,0.0,0.0,0.0,0.0,0.0,0.0,0.0,0.0,0.0,0.0,0.0,0.0,0.0,0.0,0.0,0.0,0.0,0.0,0.0,0.0,0.0,0.0,0.0,0.0,0.0,0.0,0.0,0.0,0.0,0.0,0.0,0.0,0.0,0.0,0.0,0.0,0.0,0.0,0.0,0.0,0.0,0.0,0.0,0.0,0.0,0.0,0.0,0.0,0.0,0.0,0.0,0.0,0.0,0.0,0.0,0.0,0.0,0.0,0.0,0.0,0.0,0.0,0.0,0.0,0.0,0.0,0.0,0.0,0.0,0.0,0.0,0.0,0.0,0.0,0.0,0.0,0.0,0.0,0.0,0.0,0.0,0.0,0.0,0.0,0.0,0.0,0.0,0.0,0.0,0.0,0.0,0.0,0.0,0.0,0.0,0.0,0.0,0.0,0.0,0.0,0.0,0.0,0.0,0.0,0.0,0.0,0.0,0.0,0.0,0.0,0.0,0.0,0.0,0.0,0.0,0.0,0.0,0.0,0.0,0.0,0.0,0.0,0.0,0.0,0.0,0.0,0.0,0.0,0.0,0.0,0.0,0.0,0.0,0.0,0.0,0.0,0.0,0.0,0.0,0.0,0.0,0.0,0.0,0.0,0.0,0.0,0.0,0.0,0.0,0.0,0.0,0.0,0.0,0.0,0.0,0.0,0.0,0.0,0.0,0.0,0.0,0.0,0.0,0.0,0.0,0.0,0.0,0.0,0.0,0.0,0.0,0.0,0.0,0.0,0.0,0.0,0.0,0.0,0.0,0.0,0.0,0.0,0.0,0.0,0.0,0.0,0.0,0.0,0.0,0.0,0.0,0.0,0.0,0.0,0.0,0.0,0.0,0.0,0.0,0.0,0.0,0.0,0.0,0.0,0.0,0.0,0.0,0.0,0.0,0.0,0.0,0.0,0.0,0.0,0.0,0.0,0.0,0.0,0.0,0.0,0.0,0.0,0.0,0.0,0.0,0.0,0.0,0.0,0.0,0.0,0.0,0.0,0.0,0.0,0.0,0.0,0.0,0.0,0.0,0.0,0.0,0.0,0.0,0.0,0.0,0.0,0.0,0.0,0.0,0.0,0.0,0.0,0.0,0.0,0.0,0.0,0.0,0.0,0.0,0.0,0.0,0.0,0.0,0.0,0.0,0.0,0.0,0.0,0.0,0.0,0.0,0.0,0.0,0.0,0.0,0.0,0.0,0.0,0.0,0.0,0.0,0.0,0.0,0.0,0.0,0.0,0.0,0.0,0.0,0.0,0.0,0.0,0.0,0.0,0.0,0.0,0.0,0.0,0.0,0.0,0.0,0.0,0.0,0.0,0.0,0.0,0.0,0.0,0.0,0.0,0.0,0.0,0.0,0.0,0.0,0.0,0.0,0.0,0.0,0.0,0.0,0.0,0.0,0.0,0.0,0.0,0.0,0.0,0.0,0.0,0.0,0.0,0.0,0.0,0.0,0.0,0.0,0.0,0.0,0.0,0.0,0.0,0.0,0.0,0.0,0.0,0.0,0.0,0.0,0.0,0.0,0.0,0.0,0.0,0.0,0.0,0.0,0.0,0.0,0.0,0.0,0.0,0.0,0.0,0.0,0.0,0.0,0.0,0.0,0.0,0.0,0.0,0.0,0.0,0.0,0.0,0.0,0.0,0.0,0.0,0.0,0.0,0.0,0.0,0.0,0.0,0.0,0.0,0.0,0.0,0.0,0.0,0.0,0.0,0.0,0.0,0.0,0.0,0.0,0.0,0.0,0.0,0.0,0.0,0.0,0.0,0.0,0.0,0.0,0.0,0.0,0.0,0.0,0.0,0.0,0.0,0.0,0.0,0.0,0.0,0.0,0.0,0.0,0.0,0.0,0.0,0.0,0.0,0.0,0.0,0.0,0.0,0.0,0.0,0.0,0.0,0.0,0.0,0.0,0.0,0.0,0.0,0.0,0.0,0.0,0.0,0.0,0.0,0.0,0.0,0.0,0.0,0.0,0.0,0.0,0.0,0.0,0.0,0.0,0.0,0.0,0.0,0.0,0.0,0.0,0.0,0.0,0.0,0.0,0.0,0.0,0.0,0.0,0.0,0.0,0.0,0.0,0.0,0.0,0.0,0.0,0.0,0.0,0.0,0.0,0.0,0.0,0.0,0.0,0.0,0.0,0.0,0.0,0.0,0.0,0.0,0.0,0.0,0.0,0.0,0.0,0.0,0.0,0.0,0.0,0.0,0.0,0.0,0.0,0.0,0.0,0.0,0.0,0.0,0.0,0.0,0.0,0.0,0.0,0.0,0.0,0.0,0.0,-3.08,0.0,0.0,0.0,0.0,0.0,0.0,0.0,0.0,0.0,0.0,0.0,0.0,0.0,0.0,0.0,0.0,0.0,0.0,0.0,0.0,0.0,0.0,0.0,0.0,0.0,0.0,0.0,0.0,0.0,0.0,0.0,0.0,0.0,0.0,0.0,0.0,0.0,0.0,0.0,0.0,0.0,0.0,0.0,0.0,0.0,0.0,0.0,0.0,0.0,0.0,0.0,0.0,0.0,0.0,0.0,0.0,0.0,0.0,0.0,0.0,0.0,0.0,0.0,0.0,0.0,0.0,0.0,0.0,0.0,0.0,0.0,0.0,0.0,0.0,0.0,0.0,0.0,0.0,0.0,0.0,0.0,0.0,0.0,0.0,0.0,0.0,0.0,0.0,0.0,0.0,0.0,0.0,0.0,0.0,0.0,0.0,0.0,0.0,0.0,0.0,0.0,0.0,0.0,0.0,0.0,0.0,0.0,0.0,0.0,0.0,-3.0915,-3.0913,-3.091,-3.0887,-3.0846,0.0,0.0,0.0,0.0,0.0,0.0,0.0,0.0,0.0,0.0,0.0,0.0,0.0,0.0,0.0,0.0,0.0,0.0,0.0,0.0,0.0,0.0,0.0,0.0,0.0,0.0,0.0,0.0,0.0,0.0,0.0,0.0,0.0,0.0,0.0,0.0,0.0,0.0,0.0,0.0,0.0,0.0,0.0,0.0,0.0,0.0,0.0,0.0,0.0,0.0,0.0,0.0,0.0,0.0,0.0,0.0,0.0,0.0,0.0,0.0,0.0,0.0,0.0,0.0,0.0,0.0,0.0,0.0,0.0,0.0,0.0,0.0,0.0,0.0,0.0,0.0,0.0,0.0,0.0,0.0,0.0,0.0,0.0,0.0,0.0,0.0,0.0,0.0,0.0,0.0,0.0,0.0,0.0,0.0,0.0,0.0,0.0,0.0,0.0,0.0,0.0,0.0,0.0,0.0,0.0,0.0,0.0,0.0,0.0,0.0,0.0,0.0,-3.1166,-3.1084,-3.0886,0.0,0.0,0.0,0.0,0.0,0.0,0.0,0.0,0.0,0.0,0.0,0.0,0.0,0.0,0.0,0.0,0.0,0.0,0.0,0.0,0.0,0.0,0.0,0.0,0.0,0.0,0.0,0.0,0.0,0.0,0.0,0.0,0.0,0.0,0.0,0.0,0.0,0.0,0.0,0.0,0.0,0.0,0.0,0.0,0.0,0.0,0.0,0.0,0.0,0.0,0.0,0.0,0.0,0.0,0.0,0.0,0.0,0.0,0.0,0.0,0.0,0.0,0.0,0.0,0.0,0.0,0.0,0.0,0.0,0.0,0.0,0.0,0.0,0.0,0.0,0.0,0.0,0.0,0.0,0.0,0.0,0.0,0.0,0.0,0.0,0.0,0.0,0.0,0.0,0.0,0.0,0.0,0.0,0.0,0.0,0.0,0.0,0.0,0.0,0.0,0.0,0.0,0.0,0.0,0.0,0.0,0.0,0.0,0.0,0.0,-3.2793,-3.201,-3.1969,0.0,-3.0881,0.0,0.0,0.0,0.0,0.0,0.0,0.0,0.0,0.0,0.0,0.0,0.0,0.0,0.0,0.0,0.0,0.0,0.0,0.0,0.0,0.0,0.0,0.0,0.0,0.0,0.0,0.0,0.0,0.0,0.0,0.0,0.0,0.0,0.0,0.0,0.0,0.0,0.0,0.0,0.0,0.0,0.0,0.0,0.0,0.0,0.0,0.0,0.0,0.0,0.0,0.0,0.0,0.0,0.0,0.0,0.0,0.0,0.0,0.0,0.0,0.0,0.0,0.0,0.0,0.0,0.0,0.0,0.0,0.0,0.0,0.0,0.0,0.0,0.0,0.0,0.0,0.0,0.0,0.0,0.0,0.0,0.0,0.0,0.0,0.0,0.0,0.0,0.0,0.0,0.0,0.0,0.0,0.0,0.0,0.0,0.0,0.0,0.0,0.0,0.0,0.0,0.0,0.0,0.0,0.0,0.0,0.0,0.0,0.0,0.0,-3.2988,-3.2187,-3.1658,-3.1203,0.0,0.0,0.0,0.0,0.0,0.0,0.0,0.0,0.0,0.0,0.0,0.0,0.0,0.0,0.0,0.0,0.0,0.0,0.0,0.0,0.0,0.0,0.0,0.0,0.0,0.0,0.0,0.0,0.0,0.0,0.0,0.0,0.0,0.0,0.0,0.0,0.0,0.0,0.0,0.0,0.0,0.0,0.0,0.0,0.0,0.0,0.0,0.0,0.0,0.0,0.0,0.0,0.0,0.0,0.0,0.0,0.0,0.0,0.0,0.0,0.0,0.0,0.0,0.0,0.0,0.0,0.0,0.0,0.0,0.0,0.0,0.0,0.0,0.0,0.0,0.0,0.0,0.0,0.0,0.0,0.0,0.0,0.0,0.0,0.0,0.0,0.0,0.0,0.0,0.0,0.0,0.0,0.0,0.0,0.0,0.0,0.0,0.0,0.0,0.0,0.0,0.0,0.0,0.0,0.0,0.0,0.0,0.0,0.0,0.0,-3.3339,-3.3242,-3.2207,-3.1346,-3.0755,-3.0472,0.0,0.0,0.0,0.0,0.0,0.0,0.0,0.0,0.0,0.0,0.0,0.0,0.0,0.0,0.0,0.0,0.0,0.0,0.0,0.0,0.0,0.0,0.0,0.0,0.0,0.0,0.0,0.0,0.0,0.0,0.0,0.0,0.0,0.0,0.0,0.0,0.0,0.0,0.0,0.0,0.0,0.0,0.0,0.0,0.0,0.0,0.0,0.0,0.0,0.0,0.0,0.0,0.0,0.0,0.0,0.0,0.0,0.0,0.0,0.0,0.0,0.0,0.0,0.0,0.0,0.0,0.0,0.0,0.0,0.0,0.0,0.0,0.0,0.0,0.0,0.0,0.0,0.0,0.0,0.0,0.0,0.0,0.0,0.0,0.0,0.0,0.0,0.0,0.0,0.0,0.0,0.0,0.0,0.0,0.0,0.0,0.0,0.0,0.0,0.0,0.0,0.0,0.0,0.0,0.0,0.0,0.0,0.0,-3.3358,-3.4157,-3.3806,-3.2148,-3.1327,-3.0504,0.0,0.0,0.0,0.0,0.0,0.0,0.0,0.0,0.0,0.0,0.0,0.0,0.0,0.0,0.0,0.0,0.0,0.0,0.0,0.0,0.0,0.0,0.0,0.0,0.0,0.0,0.0,0.0,0.0,0.0,0.0,0.0,0.0,0.0,0.0,0.0,0.0,0.0,0.0,0.0,0.0,0.0,0.0,0.0,0.0,0.0,0.0,0.0,0.0,0.0,0.0,0.0,0.0,0.0,0.0,0.0,0.0,0.0,0.0,0.0,0.0,0.0,0.0,0.0,0.0,0.0,0.0,0.0,0.0,0.0,0.0,0.0,0.0,0.0,0.0,0.0,0.0,0.0,0.0,0.0,0.0,0.0,0.0,0.0,0.0,0.0,0.0,0.0,0.0,0.0,0.0,0.0,0.0,0.0,0.0,0.0,0.0,0.0,0.0,0.0,0.0,0.0,0.0,0.0,0.0,0.0,0.0,0.0,0.0,-3.2568,-3.2846,-3.2688,-3.2118,-3.1286,-3.043,0.0,0.0,0.0,0.0,0.0,0.0,0.0,0.0,0.0,0.0,0.0,0.0,0.0,0.0,0.0,0.0,0.0,0.0,0.0,0.0,0.0,0.0,0.0,0.0,0.0,0.0,0.0,0.0,0.0,0.0,0.0,0.0,0.0,0.0,0.0,0.0,0.0,0.0,0.0,0.0,0.0,0.0,0.0,0.0,0.0,0.0,0.0,0.0,0.0,0.0,0.0,0.0,0.0,0.0,0.0,0.0,0.0,0.0,0.0,0.0,0.0,0.0,0.0,0.0,0.0,0.0,0.0,0.0,0.0,0.0,0.0,0.0,0.0,0.0,0.0,0.0,0.0,0.0,0.0,0.0,0.0,0.0,0.0,0.0,0.0,0.0,0.0,0.0,0.0,0.0,0.0,0.0,0.0,0.0,0.0,0.0,0.0,0.0,0.0,0.0,0.0,0.0,0.0,0.0,0.0,0.0,0.0,0.0,0.0,-3.2072,0.0,-3.2199,-3.1684,-3.139,-3.0562,0.0,0.0,0.0,0.0,0.0,0.0,0.0,0.0,0.0,0.0,0.0,0.0,0.0,0.0,0.0,0.0,0.0,0.0,0.0,0.0,0.0,0.0,0.0,0.0,0.0,0.0,0.0,0.0,0.0,0.0,0.0,0.0,0.0,0.0,0.0,0.0,0.0,0.0,0.0,0.0,0.0,0.0,0.0,0.0,0.0,0.0,0.0,0.0,0.0,0.0,0.0,0.0,0.0,0.0,0.0,0.0,0.0,0.0,0.0,0.0,0.0,0.0,0.0,0.0,0.0,0.0,0.0,0.0,0.0,0.0,0.0,0.0,0.0,0.0,0.0,0.0,0.0,0.0,0.0,0.0,0.0,0.0,0.0,0.0,0.0,0.0,0.0,0.0,0.0,0.0,0.0,0.0,0.0,0.0,0.0,0.0,0.0,0.0,0.0,0.0,0.0,0.0,0.0,0.0,0.0,0.0,0.0,0.0,-3.2099,-3.2033,-3.283,-3.2511,-3.0915,-3.1661,-3.0903,0.0,0.0,0.0,0.0,0.0,0.0,0.0,0.0,0.0,0.0,0.0,0.0,0.0,0.0,0.0,0.0,0.0,0.0,0.0,0.0,0.0,0.0,0.0,0.0,0.0,0.0,0.0,0.0,0.0,0.0,0.0,0.0,0.0,0.0,0.0,0.0,0.0,0.0,0.0,0.0,0.0,0.0,0.0,0.0,0.0,0.0,0.0,0.0,0.0,0.0,0.0,0.0,0.0,0.0,0.0,0.0,0.0,0.0,0.0,0.0,0.0,0.0,0.0,0.0,0.0,0.0,0.0,0.0,0.0,0.0,0.0,0.0,0.0,0.0,0.0,0.0,0.0,0.0,0.0,0.0,0.0,0.0,0.0,0.0,0.0,0.0,0.0,0.0,0.0,0.0,0.0,0.0,0.0,0.0,0.0,0.0,0.0,0.0,0.0,0.0,0.0,0.0,0.0,0.0,0.0,0.0,0.0,0.0,0.0,-3.1976,-3.274,-3.2938,-3.2476,-3.2186,-3.141,0.0,0.0,0.0,0.0,0.0,0.0,0.0,0.0,0.0,0.0,0.0,0.0,0.0,0.0,0.0,0.0,0.0,0.0,0.0,0.0,0.0,0.0,0.0,0.0,0.0,0.0,0.0,0.0,0.0,0.0,0.0,0.0,0.0,0.0,0.0,0.0,0.0,0.0,0.0,0.0,0.0,0.0,0.0,0.0,0.0,0.0,0.0,0.0,0.0,0.0,0.0,0.0,0.0,0.0,0.0,0.0,0.0,0.0,0.0,0.0,0.0,0.0,0.0,0.0,0.0,0.0,0.0,0.0,0.0,0.0,0.0,0.0,0.0,0.0,0.0,0.0,0.0,0.0,0.0,0.0,0.0,0.0,0.0,0.0,0.0,0.0,0.0,0.0,0.0,0.0,0.0,0.0,0.0,0.0,0.0,0.0,0.0,0.0,0.0,0.0,0.0,0.0,0.0,0.0,0.0,0.0,0.0,0.0,0.0,-3.379,-3.4235,-3.425,-3.3703,-3.3186,-3.2274,-3.0861,0.0,0.0,0.0,0.0,0.0,0.0,0.0,0.0,0.0,0.0,0.0,0.0,0.0,0.0,0.0,0.0,0.0,0.0,0.0,0.0,0.0,0.0,0.0,0.0,0.0,0.0,0.0,0.0,0.0,0.0,0.0,0.0,0.0,0.0,0.0,0.0,0.0,0.0,0.0,0.0,0.0,0.0,0.0,0.0,0.0,0.0,0.0,0.0,0.0,0.0,0.0,0.0,0.0,0.0,0.0,0.0,0.0,0.0,0.0,0.0,0.0,0.0,0.0,0.0,0.0,0.0,0.0,0.0,0.0,0.0,0.0,0.0,0.0,0.0,0.0,0.0,0.0,0.0,0.0,0.0,0.0,0.0,0.0,0.0,0.0,0.0,0.0,0.0,0.0,0.0,0.0,0.0,0.0,0.0,0.0,0.0,0.0,0.0,0.0,0.0,0.0,0.0,0.0,0.0,0.0,0.0,0.0,0.0,-3.7096,-3.7174,-3.6413,-3.4801,-3.4626,-3.3484,0.0,0.0,0.0,0.0,0.0,0.0,0.0,0.0,0.0,0.0,0.0,0.0,0.0,0.0,0.0,0.0,0.0,0.0,0.0,0.0,0.0,0.0,0.0,0.0,0.0,0.0,0.0,0.0,0.0,0.0,0.0,0.0,0.0,0.0,0.0,0.0,0.0,0.0,0.0,0.0,0.0,0.0,0.0,0.0,0.0,0.0,0.0,0.0,0.0,0.0,0.0,0.0,0.0,0.0,0.0,0.0,0.0,0.0,0.0,0.0,0.0,0.0,0.0,0.0,0.0,0.0,0.0,0.0,0.0,0.0,0.0,0.0,0.0,0.0,0.0,0.0,0.0,0.0,0.0,0.0,0.0,0.0,0.0,0.0,0.0,0.0,0.0,0.0,0.0,0.0,0.0,0.0,0.0,0.0,0.0,0.0,0.0,0.0,0.0,0.0,0.0,0.0,0.0,0.0,0.0,0.0,0.0,0.0,0.0,-3.9688,-4.0346,-3.9602,-3.738,-3.6108,-3.518,0.0,0.0,0.0,0.0,0.0,0.0,0.0,0.0,0.0,0.0,0.0,0.0,0.0,0.0,0.0,0.0,0.0,0.0,0.0,0.0,0.0,0.0,0.0,0.0,0.0,0.0,0.0,0.0,0.0,0.0,0.0,0.0,0.0,0.0,0.0,0.0,0.0,0.0,0.0,0.0,0.0,0.0,0.0,0.0,0.0,0.0,0.0,0.0,0.0,0.0,0.0,0.0,0.0,0.0,0.0,0.0,0.0,0.0,0.0,0.0,0.0,0.0,0.0,0.0,0.0,0.0,0.0,0.0,0.0,0.0,0.0,0.0,0.0,0.0,0.0,0.0,0.0,0.0,0.0,0.0,0.0,0.0,0.0,0.0,0.0,0.0,0.0,0.0,0.0,0.0,0.0,0.0,0.0,0.0,0.0,0.0,0.0,0.0,0.0,0.0,0.0,0.0,0.0,0.0,0.0,0.0,0.0,0.0,-3.8721,-4.1261,-4.2473,-4.2073,-3.9932,-3.755,-3.6184,0.0,0.0,0.0,0.0,0.0,0.0,0.0,0.0,0.0,0.0,0.0,0.0,0.0,0.0,0.0,0.0,0.0,0.0,0.0,0.0,0.0,0.0,0.0,0.0,0.0,0.0,0.0,0.0,0.0,0.0,0.0,0.0,0.0,0.0,0.0,0.0,0.0,0.0,0.0,0.0,0.0,0.0,0.0,0.0,0.0,0.0,0.0,0.0,0.0,0.0,0.0,0.0,0.0,0.0,0.0,0.0,0.0,0.0,0.0,0.0,0.0,0.0,0.0,0.0,0.0,0.0,0.0,0.0,0.0,0.0,0.0,0.0,0.0,0.0,0.0,0.0,0.0,0.0,0.0,0.0,0.0,0.0,0.0,0.0,0.0,0.0,0.0,0.0,0.0,0.0,0.0,0.0,0.0,0.0,0.0,0.0,0.0,0.0,0.0,0.0,0.0,0.0,0.0,0.0,0.0,0.0,0.0,0.0,-3.9823,-4.2338,-4.3904,-4.4034,-4.2479,-3.9101,-3.6921,0.0,0.0,0.0,0.0,0.0,0.0,0.0,0.0,0.0,0.0,0.0,0.0,0.0,0.0,0.0,0.0,0.0,0.0,0.0,0.0,0.0,0.0,0.0,0.0,0.0,0.0,0.0,0.0,0.0,0.0,0.0,0.0,0.0,0.0,0.0,0.0,0.0,0.0,0.0,0.0,0.0,0.0,0.0,0.0,0.0,0.0,0.0,0.0,0.0,0.0,0.0,0.0,0.0,0.0,0.0,0.0,0.0,0.0,0.0,0.0,0.0,0.0,0.0,0.0,0.0,0.0,0.0,0.0,0.0,0.0,0.0,0.0,0.0,0.0,0.0,0.0,0.0,0.0,0.0,0.0,0.0,0.0,0.0,0.0,0.0,0.0,0.0,0.0,0.0,0.0,0.0,0.0,0.0,0.0,0.0,0.0,0.0,0.0,0.0,0.0,0.0,0.0,0.0,0.0,0.0,0.0,0.0,0.0,-4.2415,-4.491,-4.5355,-4.5414,-4.5093,-4.112,-3.8637,0.0,0.0,0.0,0.0,0.0,0.0,0.0,0.0,0.0,0.0,0.0,0.0,0.0,0.0,0.0,0.0,0.0,0.0,0.0,0.0,0.0,0.0,0.0,0.0,0.0,0.0,0.0,0.0,0.0,0.0,0.0,0.0,0.0,0.0,0.0,0.0,0.0,0.0,0.0,0.0,0.0,0.0,0.0,0.0,0.0,0.0,0.0,0.0,-2.9982,0.0,0.0,0.0,0.0,0.0,0.0,0.0,0.0,0.0,0.0,0.0,0.0,0.0,0.0,0.0,0.0,0.0,0.0,0.0,0.0,0.0,0.0,0.0,0.0,0.0,0.0,0.0,0.0,0.0,0.0,0.0,0.0,0.0,0.0,0.0,0.0,0.0,0.0,0.0,0.0,0.0,0.0,0.0,0.0,0.0,0.0,0.0,0.0,0.0,0.0,0.0,0.0,0.0,0.0,0.0,0.0,0.0,0.0,0.0,-4.3846,-4.6322,-4.6806,-4.6839,-4.6369,-4.3479,-4.0956,0.0,0.0,0.0,0.0,0.0,0.0,0.0,0.0,0.0,0.0,0.0,0.0,0.0,0.0,0.0,0.0,0.0,0.0,0.0,0.0,0.0,0.0,0.0,0.0,0.0,0.0,0.0,0.0,0.0,0.0,0.0,0.0,0.0,0.0,0.0,0.0,0.0,0.0,0.0,0.0,0.0,0.0,0.0,0.0,0.0,0.0,0.0,0.0,0.0,0.0,0.0,0.0,0.0,0.0,0.0,0.0,0.0,0.0,0.0,0.0,0.0,0.0,0.0,0.0,0.0,0.0,0.0,0.0,0.0,0.0,0.0,0.0,0.0,0.0,0.0,0.0,0.0,0.0,0.0,0.0,0.0,0.0,0.0,0.0,0.0,0.0,0.0,0.0,0.0,0.0,0.0,0.0,0.0,0.0,0.0,0.0,0.0,0.0,0.0,0.0,0.0,0.0,0.0,0.0,0.0,0.0,0.0,-4.2589,-4.5045,-4.7405,-4.8217,-4.8179,-4.7289,-4.5548,-4.3079,-3.9888,0.0,0.0,0.0,0.0,0.0,0.0,0.0,0.0,0.0,0.0,0.0,0.0,0.0,0.0,0.0,0.0,0.0,0.0,0.0,0.0,0.0,0.0,0.0,0.0,0.0,0.0,0.0,0.0,0.0,0.0,0.0,0.0,0.0,0.0,0.0,0.0,0.0,0.0,-3.0752,-3.2198,0.0,0.0,0.0,0.0,0.0,0.0,0.0,0.0,-3.0568,0.0,0.0,0.0,0.0,0.0,0.0,0.0,0.0,0.0,0.0,0.0,0.0,0.0,0.0,0.0,0.0,0.0,0.0,0.0,0.0,0.0,0.0,0.0,0.0,0.0,0.0,0.0,0.0,0.0,0.0,0.0,0.0,0.0,0.0,0.0,0.0,0.0,0.0,0.0,0.0,0.0,0.0,0.0,0.0,0.0,0.0,0.0,0.0,0.0,0.0,0.0,0.0,0.0,0.0,0.0,0.0,-4.2647,-4.5181,-4.7386,-4.9223,-4.9417,-4.9088,-4.8159,-4.5851,-4.335,-4.069,0.0,0.0,0.0,0.0,0.0,0.0,0.0,0.0,0.0,0.0,0.0,0.0,0.0,0.0,0.0,0.0,0.0,0.0,0.0,0.0,0.0,0.0,0.0,0.0,0.0,0.0,0.0,0.0,0.0,0.0,0.0,0.0,0.0,0.0,0.0,0.0,0.0,0.0,0.0,-3.2932,-3.296,0.0,0.0,0.0,0.0,0.0,0.0,0.0,0.0,-2.931,0.0,0.0,0.0,0.0,0.0,0.0,0.0,0.0,0.0,0.0,0.0,0.0,0.0,0.0,0.0,0.0,0.0,0.0,0.0,0.0,0.0,0.0,0.0,0.0,0.0,0.0,0.0,0.0,0.0,0.0,0.0,0.0,0.0,0.0,0.0,0.0,0.0,0.0,0.0,0.0,0.0,0.0,0.0,0.0,0.0,0.0,0.0,0.0,0.0,0.0,0.0,0.0,0.0,0.0,0.0,-4.3305,-4.6245,-4.8604,-5.0241,-5.0318,-4.9726,-4.8392,-4.5935,-4.3421,0.0,0.0,0.0,0.0,0.0,0.0,0.0,0.0,0.0,0.0,0.0,0.0,0.0,0.0,0.0,0.0,0.0,0.0,0.0,0.0,0.0,0.0,0.0,0.0,0.0,0.0,0.0,0.0,0.0,0.0,0.0,0.0,0.0,0.0,0.0,0.0,0.0,0.0,0.0,0.0,-3.4195,-3.4339,-3.2607,0.0,0.0,0.0,0.0,0.0,0.0,-3.096,-3.0689,0.0,0.0,0.0,0.0,0.0,0.0,0.0,0.0,0.0,0.0,0.0,0.0,0.0,0.0,0.0,0.0,0.0,0.0,0.0,0.0,0.0,0.0,0.0,0.0,0.0,0.0,0.0,0.0,0.0,0.0,0.0,0.0,0.0,0.0,0.0,0.0,0.0,0.0,0.0,0.0,0.0,0.0,0.0,0.0,0.0,0.0,0.0,0.0,0.0,0.0,0.0,0.0,0.0,0.0,0.0,-4.3595,-4.6767,-4.9223,-5.0801,-5.0898,-5.0008,-4.8179,-4.5838,-4.326,0.0,0.0,0.0,0.0,0.0,0.0,0.0,0.0,0.0,0.0,0.0,0.0,0.0,0.0,0.0,0.0,0.0,0.0,0.0,0.0,0.0,0.0,0.0,0.0,0.0,0.0,0.0,0.0,0.0,0.0,0.0,0.0,0.0,0.0,0.0,0.0,0.0,0.0,0.0,0.0,0.0,-3.5422,-3.2814,-3.2833,0.0,0.0,0.0,0.0,-3.1168,-3.2079,0.0,0.0,0.0,0.0,0.0,0.0,0.0,0.0,0.0,0.0,0.0,0.0,0.0,0.0,0.0,0.0,0.0,0.0,0.0,0.0,0.0,0.0,0.0,0.0,0.0,0.0,0.0,0.0,0.0,0.0,0.0,0.0,0.0,0.0,0.0,0.0,0.0,0.0,0.0,0.0,0.0,0.0,0.0,0.0,0.0,0.0,0.0,0.0,0.0,0.0,0.0,0.0,0.0,0.0,0.0,0.0,-4.44,-4.7057,-4.9204,-5.0801,-5.0898,-4.9745,-4.7328,-4.5529,-4.2673,0.0,0.0,0.0,0.0,0.0,0.0,0.0,0.0,0.0,0.0,0.0,0.0,0.0,0.0,0.0,0.0,0.0,0.0,0.0,0.0,0.0,0.0,0.0,0.0,0.0,0.0,0.0,0.0,0.0,0.0,0.0,0.0,0.0,0.0,0.0,0.0,0.0,0.0,0.0,0.0,0.0,-3.5262,-3.4913,-3.4316,-3.3566,0.0,0.0,-3.2767,-3.2562,-3.2711,0.0,0.0,0.0,0.0,0.0,0.0,0.0,0.0,0.0,0.0,0.0,0.0,0.0,0.0,0.0,0.0,0.0,0.0,0.0,0.0,0.0,0.0,0.0,0.0,0.0,0.0,0.0,0.0,0.0,0.0,0.0,0.0,0.0,0.0,0.0,0.0,0.0,0.0,0.0,0.0,0.0,0.0,0.0,0.0,0.0,0.0,0.0,0.0,0.0,0.0,0.0,0.0,0.0,0.0,0.0,-4.0951,-4.3846,-4.6864,-4.9223,-5.0801,-5.0453,-4.8991,-4.6419,-4.3827,-4.0874,0.0,0.0,0.0,0.0,0.0,0.0,0.0,0.0,0.0,0.0,0.0,0.0,0.0,0.0,0.0,0.0,0.0,0.0,0.0,0.0,0.0,0.0,0.0,0.0,0.0,0.0,0.0,0.0,0.0,0.0,0.0,0.0,0.0,0.0,0.0,0.0,0.0,0.0,0.0,0.0,0.0,0.0,-3.5119,-3.5138,0.0,0.0,0.0,-3.3929,-3.349,0.0,0.0,0.0,0.0,0.0,0.0,0.0,0.0,0.0,0.0,0.0,0.0,0.0,0.0,0.0,0.0,0.0,0.0,0.0,0.0,0.0,0.0,0.0,0.0,0.0,0.0,0.0,0.0,0.0,0.0,0.0,0.0,0.0,0.0,0.0,0.0,0.0,0.0,0.0,0.0,0.0,0.0,0.0,0.0,0.0,0.0,0.0,0.0,0.0,0.0,0.0,0.0,0.0,0.0,0.0,0.0,0.0,-4.3305,-4.667,-4.9223,-5.0801,-5.0113,-4.8469,-4.5865,-4.275,0.0,0.0,0.0,0.0,0.0,0.0,0.0,0.0,0.0,0.0,0.0,0.0,0.0,0.0,0.0,0.0,0.0,0.0,0.0,0.0,0.0,0.0,0.0,0.0,0.0,0.0,0.0,-2.3314,0.0,0.0,0.0,0.0,0.0,0.0,0.0,0.0,0.0,0.0,0.0,0.0,0.0,0.0,-3.6289,-3.5549,-3.6317,-3.6442,0.0,0.0,-3.5617,-3.4573,-3.5455,-3.5453,0.0,0.0,0.0,0.0,0.0,0.0,0.0,0.0,0.0,0.0,0.0,0.0,0.0,0.0,0.0,0.0,0.0,0.0,0.0,0.0,0.0,0.0,0.0,0.0,0.0,0.0,0.0,0.0,0.0,0.0,0.0,0.0,0.0,0.0,0.0,0.0,0.0,0.0,0.0,0.0,0.0,0.0,0.0,0.0,0.0,0.0,0.0,0.0,0.0,0.0,0.0,0.0,0.0,0.0,-3.9953,-4.3285,-4.667,-4.9204,-5.0801,-5.0113,-4.8469,-4.5942,-4.3311,-3.9997,0.0,0.0,0.0,0.0,0.0,0.0,0.0,0.0,0.0,0.0,0.0,0.0,0.0,0.0,0.0,0.0,0.0,0.0,0.0,0.0,0.0,0.0,0.0,0.0,0.0,0.0,0.0,0.0,0.0,0.0,0.0,0.0,0.0,0.0,0.0,0.0,0.0,0.0,0.0,0.0,0.0,-3.7781,-3.7055,-3.8331,-3.881,0.0,-3.7807,-3.7772,-3.6122,-3.6062,-3.5372,-3.2923,0.0,0.0,0.0,0.0,0.0,0.0,0.0,0.0,0.0,0.0,0.0,0.0,0.0,0.0,0.0,0.0,0.0,0.0,0.0,0.0,0.0,0.0,0.0,0.0,0.0,0.0,0.0,0.0,0.0,0.0,0.0,0.0,0.0,0.0,0.0,0.0,0.0,0.0,0.0,0.0,0.0,0.0,0.0,0.0,0.0,0.0,0.0,0.0,0.0,0.0,0.0,0.0,0.0,-3.9818,-4.3217,-4.6623,-4.8902,-4.9937,-4.9269,-4.7635,-4.5088,-4.2537,-3.9702,0.0,0.0,0.0,0.0,0.0,0.0,0.0,0.0,0.0,0.0,0.0,0.0,0.0,0.0,0.0,0.0,0.0,0.0,0.0,0.0,0.0,0.0,0.0,0.0,0.0,0.0,0.0,0.0,-2.4172,-2.4284,-2.4602,0.0,0.0,0.0,0.0,0.0,0.0,0.0,0.0,0.0,0.0,-3.8089,-3.8352,-3.897,0.0,0.0,-3.8912,-3.8771,-3.7634,-3.709,-3.5993,-3.3563,-3.1862,0.0,0.0,0.0,0.0,0.0,0.0,0.0,0.0,0.0,0.0,0.0,0.0,0.0,0.0,0.0,0.0,0.0,0.0,0.0,0.0,0.0,0.0,0.0,0.0,0.0,0.0,0.0,0.0,0.0,0.0,0.0,0.0,0.0,0.0,0.0,0.0,0.0,0.0,0.0,0.0,0.0,0.0,0.0,0.0,0.0,0.0,0.0,0.0,0.0,0.0,0.0,0.0,-3.9634,-4.2764,-4.6111,-4.8251,-4.9061,-4.827,-4.6756,-4.4484,-4.1957,-3.9335,0.0,0.0,0.0,0.0,0.0,0.0,0.0,0.0,0.0,0.0,0.0,0.0,0.0,0.0,0.0,0.0,0.0,0.0,0.0,0.0,0.0,0.0,0.0,0.0,0.0,0.0,0.0,0.0,-2.5069,-2.4827,-2.4603,0.0,0.0,0.0,0.0,0.0,0.0,0.0,0.0,0.0,0.0,-3.8311,-3.942,-3.9811,-4.002,-4.0064,-4.0109,-3.9694,-3.8477,-3.7422,-3.6023,-3.3853,0.0,0.0,0.0,0.0,0.0,0.0,0.0,0.0,0.0,0.0,0.0,0.0,0.0,0.0,0.0,0.0,0.0,0.0,0.0,0.0,0.0,0.0,0.0,0.0,0.0,0.0,0.0,-3.1767,0.0,0.0,-3.28,0.0,0.0,0.0,0.0,0.0,0.0,0.0,0.0,0.0,0.0,0.0,0.0,0.0,0.0,0.0,0.0,0.0,0.0,0.0,0.0,0.0,0.0,-3.9258,-4.1824,-4.5143,-4.724,-4.8057,-4.7268,-4.6009,-4.4297,-4.1824,-3.8919,-3.5514,0.0,0.0,0.0,0.0,0.0,0.0,0.0,0.0,0.0,0.0,0.0,0.0,0.0,0.0,0.0,0.0,0.0,0.0,0.0,0.0,0.0,0.0,0.0,0.0,0.0,0.0,-2.6674,-2.6135,-2.5336,0.0,0.0,0.0,0.0,0.0,0.0,0.0,0.0,0.0,-3.5045,-3.6885,-3.8497,-4.0207,-4.108,-4.1497,-4.1585,-4.156,-4.0709,-3.8351,-3.6715,-3.5184,0.0,0.0,0.0,0.0,0.0,0.0,0.0,0.0,0.0,0.0,0.0,0.0,0.0,0.0,0.0,0.0,0.0,0.0,0.0,0.0,0.0,0.0,0.0,0.0,0.0,0.0,0.0,-3.3216,-3.3341,0.0,0.0,0.0,0.0,0.0,0.0,0.0,0.0,0.0,0.0,0.0,-3.8877,-3.8645,0.0,0.0,0.0,0.0,0.0,0.0,0.0,0.0,0.0,0.0,0.0,0.0,-3.8785,-4.1339,-4.4628,-4.6477,-4.6744,-4.6496,-4.5287,-4.3087,-4.1646,-3.8536,-3.3562,0.0,0.0,0.0,0.0,0.0,0.0,0.0,0.0,0.0,0.0,0.0,0.0,0.0,0.0,0.0,0.0,0.0,0.0,0.0,0.0,0.0,0.0,0.0,0.0,0.0,-2.5045,0.0,0.0,0.0,0.0,0.0,0.0,0.0,0.0,0.0,0.0,0.0,-3.302,-3.5213,-3.642,-3.7862,-4.0006,-4.0888,-4.1314,0.0,0.0,0.0,0.0,0.0,0.0,0.0,0.0,0.0,0.0,0.0,0.0,0.0,0.0,-3.1213,-2.9395,-2.8496,-2.7851,-2.7264,0.0,0.0,0.0,0.0,0.0,0.0,0.0,0.0,0.0,0.0,0.0,0.0,0.0,0.0,-3.5861,-3.543,-3.378,0.0,0.0,0.0,0.0,0.0,0.0,0.0,0.0,-4.048,-4.152,-4.1482,-4.1539,-4.1513,0.0,-4.0893,-3.9299,0.0,0.0,0.0,0.0,0.0,0.0,0.0,0.0,-3.8512,-4.1029,-4.4038,-4.5609,-4.5622,-4.5622,-4.4707,-4.2787,-4.1052,-3.7833,-3.2928,-3.0663,-2.8605,0.0,0.0,0.0,0.0,0.0,0.0,0.0,0.0,0.0,0.0,0.0,0.0,0.0,0.0,0.0,0.0,0.0,0.0,0.0,0.0,0.0,0.0,0.0,-2.5418,0.0,0.0,0.0,0.0,0.0,0.0,0.0,0.0,0.0,-3.0969,-3.2381,-3.4068,-3.6009,-3.6713,-3.7882,-4.0151,0.0,0.0,0.0,0.0,0.0,0.0,0.0,-3.5422,-3.4869,-3.4362,-3.4362,-3.5349,-3.5127,-3.4834,-3.479,0.0,0.0,-3.155,-3.0488,-2.9663,-2.905,-2.809,-2.7379,-2.7332,-2.7268,-2.7184,0.0,0.0,0.0,0.0,0.0,0.0,0.0,0.0,-3.9846,-3.8984,0.0,-3.6382,0.0,0.0,0.0,0.0,-3.5635,-3.7276,0.0,0.0,-4.3978,-4.4759,-4.3431,-4.4797,-4.4739,-4.3278,-4.3104,-4.2552,-4.156,-3.8431,0.0,0.0,0.0,0.0,0.0,0.0,-3.8426,-4.0865,-4.3403,-4.4685,-4.4685,-4.4685,-4.4258,-4.3315,-4.0181,-3.6938,-3.3671,-3.1949,-2.9906,-2.7484,-2.6532,0.0,0.0,0.0,0.0,0.0,0.0,0.0,0.0,0.0,0.0,0.0,0.0,0.0,0.0,0.0,0.0,0.0,0.0,0.0,0.0,-2.8104,0.0,0.0,0.0,0.0,0.0,0.0,0.0,0.0,0.0,0.0,-3.3968,-3.4063,-3.4956,-3.7331,0.0,0.0,0.0,0.0,-4.1317,-4.2614,-4.1488,-4.0166,-3.9437,-3.7562,-3.6171,-3.6036,0.0,0.0,-3.8101,-3.764,-3.7011,-3.6975,-3.5566,-3.4123,-3.3412,-3.2442,-3.1379,-2.9855,-2.9437,-2.8869,-2.7638,-2.837,-2.9269,-4.7301,0.0,0.0,0.0,0.0,-4.2677,-4.3492,-4.418,-4.332,-4.2456,-4.1493,-3.921,0.0,0.0,0.0,0.0,0.0,0.0,-4.1016,-4.3239,-4.4883,-4.5933,-4.655,-4.5868,-4.5581,-4.5592,-4.3835,-4.3062,-4.3148,-4.1036,-3.8804,-3.6453,0.0,0.0,0.0,0.0,-3.8624,-4.0578,-4.2967,-4.4199,-4.4218,-4.4203,-4.3807,-4.2972,-4.0322,-3.7921,-3.5832,-3.3612,-3.1299,-2.8921,-2.797,0.0,0.0,0.0,0.0,0.0,0.0,0.0,0.0,0.0,0.0,0.0,0.0,0.0,0.0,0.0,0.0,0.0,0.0,0.0,-2.6942,-2.8061,-2.7992,0.0,0.0,0.0,0.0,0.0,0.0,0.0,0.0,0.0,-3.5695,-3.5566,-3.5828,0.0,0.0,-3.7833,-3.9627,-3.9728,-3.9751,-4.0113,-3.9642,0.0,-3.8313,-3.7315,-3.6997,-3.8087,-3.8685,-3.9156,-3.939,-3.8797,-3.808,-3.7541,-3.6522,-3.554,-3.4698,-3.3069,-3.1714,-3.1115,-3.0555,-3.0015,-2.9588,-2.973,-2.9907,-5.0403,-4.6636,-4.6931,-4.6704,-4.6278,-4.7064,-4.7906,-4.8621,-4.7747,-4.6718,-4.5428,-4.2909,-4.095,-3.9431,-3.8084,0.0,0.0,0.0,-4.2816,-4.4355,-4.5547,-4.6424,-4.6935,-4.6244,-4.5773,-4.5503,-4.3596,-4.2884,-4.3243,-4.2102,-4.0772,-3.9187,0.0,0.0,-3.6627,-3.7774,-3.9194,-4.0866,-4.2927,-4.4005,-4.4005,-4.4005,-4.3485,-4.2333,-4.0866,-3.9027,-3.6773,-3.4971,-3.2871,-3.0456,-2.9229,-2.7873,0.0,0.0,0.0,0.0,0.0,0.0,0.0,0.0,0.0,0.0,0.0,-2.5242,-2.4082,0.0,0.0,0.0,-2.688,-2.7342,-2.7387,-2.8749,0.0,0.0,0.0,0.0,0.0,0.0,0.0,-3.3241,-3.4008,-3.5011,-3.6542,-3.6773,-3.7035,-3.776,-3.8069,-3.8668,-3.986,0.0,-3.9924,-4.0151,-3.9856,-3.9441,-3.9,-3.8187,-3.8096,-3.9374,-4.0127,-4.0496,-4.038,-3.9733,-3.8929,-3.811,-3.7058,-3.6132,-3.5652,-3.4123,-3.2893,-3.2672,-3.1947,-3.1282,-3.088,-3.067,-3.0508,-5.2166,-4.9858,-5.0736,-5.0884,-5.0673,-5.1395,-5.2154,-5.2933,-5.2125,-5.0904,-4.924,-4.6787,-4.4297,-4.1865,-4.1143,0.0,-4.2066,-4.3662,-4.4432,-4.4547,-4.6163,-4.6463,-4.5735,-4.6259,-4.5619,-4.3982,-4.2834,-4.229,-4.2281,-4.1958,-4.1815,-4.1812,-3.8796,-3.7617,-3.8284,-3.8961,-4.0067,-4.1683,-4.3225,-4.4005,-4.3989,-4.3915,-4.3188,-4.1724,-4.1482,-3.9923,-3.6952,-3.593,-3.4352,-3.1975,-3.0408,-2.881,-2.7194,0.0,0.0,0.0,0.0,0.0,0.0,0.0,0.0,0.0,0.0,0.0,0.0,0.0,0.0,-2.7008,-2.8911,0.0,-2.8907,-2.9988,0.0,0.0,0.0,-2.878,-2.9543,-3.0827,-3.2219,-3.3688,0.0,0.0,-3.6792,-3.7617,-3.8274,-3.8831,-3.9674,-4.0404,-4.0976,-4.0956,-4.1197,-4.1616,-4.1152,-4.0639,-4.0362,-3.9569,-3.9118,-3.982,-4.0602,-4.0897,-4.0842,-4.0192,-3.9422,-3.8407,-3.7104,-3.6038,-3.6003,-3.5278,-3.4836,-3.4406,-3.3588,-3.2688,-3.1954,-3.1594,-3.1305,-5.414,-5.2405,-5.3252,-5.2107,-4.974,-4.9913,-5.0491,-5.126,-5.1068,-5.0375,-4.9279,-4.7413,-4.5201,-4.2816,-4.322,-4.3508,-4.3758,-4.4797,-4.5643,-4.6288,-4.6701,-4.7078,-4.7376,-4.6743,-4.5829,-4.4669,-4.301,-4.2165,-4.2033,-4.1284,-4.1215,-4.1684,-4.0887,-4.057,-4.0746,-4.0917,-4.1497,-4.25,-4.3485,-4.3974,-4.3892,-4.3333,-4.2801,-4.2368,-4.0522,-3.8894,-3.7493,-3.6083,-3.4505,-3.2662,-3.1596,-3.0339,-2.873,-2.7251,0.0,0.0,0.0,0.0,0.0,0.0,0.0,0.0,0.0,-2.5773,-2.6005,0.0,-2.7783,0.0,-2.9818,-3.0678,-3.0892,-3.1598,0.0,0.0,-3.1457,-3.1724,-3.2418,-3.3301,-3.4196,-3.5034,-3.5778,-3.6364,-3.6731,-3.7411,-3.793,-3.8108,-3.9905,-4.129,-4.1423,-4.0926,-4.0588,-4.0686,-4.0176,-3.969,-3.9723,-3.9696,-3.9465,-3.9167,-3.9719,-4.0182,-4.0162,-3.9478,-3.8405,-3.7034,-3.6375,-3.5787,-3.522,-3.5289,-3.5765,-3.6085,-3.5258,-3.4235,-3.3882,-3.3193,-3.2554,-5.3918,-5.2635,-5.276,-5.1702,-5.0058,-5.076,-5.1356,-5.1798,-5.1798,-5.1318,-5.0414,-4.8759,-4.7009,-4.5432,-4.6201,-4.6163,-4.5547,-4.6317,-4.6586,-4.6336,-4.6336,-4.6521,-4.6819,-4.6042,-4.5022,-4.3708,-4.2146,-4.1143,-4.0702,-4.0181,-4.0337,-4.1105,-4.1408,-4.1549,-4.1568,-4.1947,-4.2352,-4.2816,-4.3565,-4.3945,-4.3878,-4.3085,-4.2445,-4.1991,-4.0347,-3.8726,-3.723,-3.6325,-3.5069,-3.3425,-3.2225,-3.1043,-2.9795,-2.817,-2.6896,0.0,0.0,0.0,0.0,0.0,0.0,0.0,0.0,0.0,0.0,0.0,-3.0318,-3.0841,-3.1556,-3.2101,-3.2347,-3.3178,-3.3577,-3.3245,-3.3507,-3.3733,-3.3766,-3.3814,-3.4264,-3.5285,-3.5489,-3.5795,-3.6437,-3.7165,-3.7671,-3.7671,-3.9168,-4.0306,-4.0429,-4.0294,-4.015,-3.9822,-3.9717,-3.9431,-3.8945,-3.9305,-3.9428,-3.8887,-3.9279,-3.967,-3.9333,-3.8846,-3.8022,-3.6794,-3.6434,-3.6196,-3.5696,-3.5887,-3.6359,-3.6606,-3.6223,-3.556,-3.5082,-3.4172,-3.3343,-5.2877,-5.1961,-5.1163,-5.0788,-5.0818,-5.2269,-5.2865,-5.2876,-5.2876,-5.2395,-5.1491,-5.0048,-4.8875,-4.8,-4.8759,-4.8163,-4.6635,-4.7279,-4.676,-4.528,-4.5357,-4.5322,-4.5179,-4.4905,-4.3863,-4.2171,-4.1072,-4.0067,-3.9101,-3.9101,-3.9547,-4.0368,-4.1019,-4.1396,-4.1511,-4.2254,-4.2619,-4.2619,-4.3357,-4.3696,-4.355,-4.2802,-4.2013,-4.1148,-4.0228,-3.8733,-3.6579,-3.6357,-3.5596,-3.4046,-3.2441,-3.126,-3.0528,-2.8905,-2.7677,0.0,-2.7003,0.0,0.0,0.0,0.0,0.0,0.0,0.0,0.0,-3.2671,-3.3149,-3.3317,-3.3526,-3.3615,-3.3573,-3.4543,-3.4993,-3.4493,-3.4938,-3.5059,-3.4441,-3.368,-3.3749,-3.5163,-3.468,-3.4783,-3.6132,-3.6943,-3.7357,-3.734,-3.7862,-3.8416,-3.8673,-3.9342,-3.9638,-3.9012,-3.9412,-3.9133,-3.8257,-3.8556,-3.8871,-3.8459,-3.8728,-3.9029,-3.8392,-3.819,-3.7789,-3.6987,-3.6586,-3.6521,-3.6525,-3.6452,-3.6504,-3.6609,-3.6557,-3.6331,-3.5722,-3.4794,-3.3874,-5.3593,-5.2719,-5.1924,-5.1216,-5.0652,-5.0959,-5.1124,-5.1164,-5.1164,-5.0683,-4.9856,-4.9529,-4.8548,-4.7173,-4.7298,-4.6424,-4.4821,-4.4947,-4.4401,-4.3349,-4.4049,-4.4277,-4.413,-4.4479,-4.373,-4.2076,-4.1577,-4.0587,-3.9101,-3.9101,-3.9482,-4.0207,-4.0363,-4.0759,-4.1397,0.0,0.0,0.0,-4.243,-4.2474,-4.1749,-4.1549,-4.1038,-4.0184,-3.875,0.0,-3.6383,-3.5652,-3.4844,-3.3865,-3.2303,0.0,0.0,0.0,0.0,0.0,0.0,0.0,0.0,0.0,0.0,0.0,-3.4063,-3.4309,-3.4358,-3.4735,-3.4839,-3.4587,-3.4409,-3.4481,-3.4881,-3.5071,-3.537,-3.5835,-3.6008,-3.6042,-3.5852,-3.5197,-3.5128,-3.5956,-3.5421,-3.5301,-3.6111,-3.6439,-3.6525,-3.6577,-3.6646,-3.6736,-3.6847,-3.8061,-3.8805,-3.8684,-3.8404,-3.7849,-3.7091,-3.7231,-3.7454,-3.729,-3.7365,-3.747,-3.7365,-3.7213,-3.6814,-3.6016,-3.5707,-3.5677,-3.5558,-3.5483,-3.5762,-3.6277,-3.6381,-3.635,-3.6295,-3.549,-3.463,-5.3395,-5.2877,-5.1661,-5.0935,0.0,-5.0603,-5.0633,-5.0683,-5.0683,-5.0462,-5.0048,-5.0048,-4.9317,-4.8105,-4.7683,-4.6301,-4.4228,-4.3742,-4.2977,-4.2135,-4.2826,-4.3327,-4.3625,-4.4143,-4.3708,-4.2436,-4.1753,-4.0804,-3.9618,-3.9192,-3.9182,-3.9545,-3.9128,-3.9117,-3.9512,-3.9485,-4.0105,-4.1382,-4.1741,-4.1675,-4.1185,-4.0383,-3.9947,-3.9845,-3.8337,0.0,0.0,0.0,0.0,0.0,0.0,0.0,0.0,0.0,0.0,-2.9509,-3.0234,-3.0856,-3.1294,-3.2638,-3.3716,-3.4359,-3.5265,-3.5928,-3.6161,-3.62,-3.6095,-3.5852,-3.5562,-3.55,-3.5762,-3.6098,-3.6301,-3.6335,-3.6646,-3.677,-3.6266,-3.5318,-3.4956,-3.5525,-3.5094,-3.4921,-3.5663,-3.6111,-3.6266,-3.6284,-3.6284,-3.6284,-3.6387,-3.7301,-3.8065,-3.803,-3.7495,-3.6974,-3.6689,-3.6684,-3.6748,-3.6846,-3.6866,-3.6866,-3.6829,-3.6806,-3.6568,-3.6102,-3.5972,-3.591,-3.5773,-3.5732,-3.5849,-3.6151,-3.6255,-3.6233,-3.6255,-3.5822,-3.5313,-5.2958,-5.2805,-5.1177,-5.05,-5.0553,-5.0572,-5.0603,-5.0682,0.0,0.0,0.0,-5.0683,-5.0115,-4.9115,-4.8385,-4.6532,-4.3905,-4.3032,-4.2042,-4.1032,-4.1798,-4.2479,-4.3132,-4.383,-4.3711,-4.2835,-4.194,-4.1037,-4.0092,-3.9427,-3.9025,-3.8807,-3.8029,-3.7507,-3.7378,-3.732,-3.8357,-4.0394,-4.0814,-4.0912,-4.0712,-3.9417,-3.8946,-3.9475,-3.819,-3.7125,-3.634,-3.6285,-3.5587,-3.4087,-3.303,-3.219,-3.1488,-3.1245,-3.087,-3.0407,-3.1679,-3.2591,-3.2885,-3.4032,-3.4724,-3.4734,-3.5598,-3.6478,-3.7283,-3.7054,-3.6838,-3.6736,-3.6468,-3.6284,-3.6284,-3.687,-3.7025,-3.6387,-3.6908,-3.6991,-3.6335,-3.5128,-3.4665,-3.5145,-3.468,-3.4458,-3.5318,-3.5801,-3.618,-3.6249,-3.6284,-3.6284,-3.637,-3.6874,-3.7267,-3.7236,-3.6851,-3.6478,-3.6482,-3.6544,-3.6623,-3.6623,-3.6623,-3.6623,-3.6623,-3.6623,-3.6582,-3.643,-3.6444,-3.6406,-3.6305,-3.6228,-3.6186,-3.5972,-3.6015,-3.6006,-3.5778,-3.5781,-3.5638,-5.2822,-5.2688,-5.1032,-5.0379,-5.0443,-5.0424,-5.0468,-5.0532,-5.0643,-5.0683,-5.0683,-5.0683,-4.9779,-4.8191,-4.7996,-4.6025,-4.28,-4.2533,-4.1465,-3.9863,-4.1318,-4.1989,-4.202,-4.3356,-4.3562,-4.2761,-4.2451,-4.1554,-4.024,-4.0,-3.9564,-3.8803,-3.7996,-3.7216,-3.6552,-3.6483,-3.6648,-3.7063,-3.9032,-3.9751,-3.9071,-3.8836,-3.8414,-3.786,-3.7639,-3.7125,-3.6321,-3.6303,-3.5844,-3.4857,-3.3341,-3.2329,-3.1986,-3.1309,-3.1006,-3.1389,-3.223,-3.3355,-3.4697,-3.5525,-3.6095,-3.6392,-3.6354,-3.6507,-3.6992,-3.6913,-3.6716,-3.6564,-3.6385,-3.6284,-3.6301,-3.6404,-3.6456,-3.6335,-3.6387,-3.6422,-3.6284,-3.5542,-3.5249,-3.5904,-3.4921,-3.4648,-3.5732,-3.5697,-3.5697,-3.6146,-3.6284,-3.6284,-3.6301,-3.637,-3.6456,-3.6473,-3.6408,-3.6322,-3.6343,-3.6343,-3.6381,-3.6381,-3.6364,-3.6385,-3.6385,-3.6402,-3.6381,-3.6343,-3.6322,-3.6322,-3.6301,-3.6255,-3.5925,-3.5343,-3.5448,-3.548,-3.4852,-3.4964,-3.5211,-5.2155,-5.2002,-5.0818,-5.0337,-5.0412,-5.0446,-5.0478,-5.0511,-5.0563,-5.0603,-5.0584,-5.0584,-4.9831,-4.8534,-4.7907,-4.5955,-4.2967,-4.2284,-4.1212,-4.0066,-4.1058,-4.1735,-4.2165,-4.3229,-4.3515,-4.315,-4.3063,-4.2439,-4.139,-4.128,-4.0657,-3.9372,-3.7739,-3.6475,-3.5646,-3.5591,-3.5811,-3.6321,-3.7823,-3.8429,-3.8062,-3.7983,-3.7784,-3.7451,-3.7387,-3.6973,-3.6168,-3.6537,-3.6208,-3.495,-3.4026,-3.3082,-3.2069,-3.2289,-3.219,-3.1622,-3.3024,-3.4249,-3.4977,-3.5596,-3.6129,-3.6565,-3.6046,-3.5953,-3.6557,-3.6571,-3.6471,-3.6402,-3.6322,-3.6284,-3.6284,-3.6284,-3.6284,-3.6284,-3.6284,-3.6284,-3.6215,-3.5645,-3.5352,-3.5594,-3.5128,-3.4993,-3.5611,-3.5749,-3.587,-3.6249,-3.6284,-3.6284,-3.6284,-3.6284,-3.6284,-3.6284,-3.6284,-3.6284,-3.6284,-3.6284,-3.6284,-3.6284,-3.6284,-3.6284,-3.6284,-3.6284,-3.6284,-3.6284,-3.6284,-3.6284,-3.6284,-3.6297,-3.5938,-3.5543,-3.5384,-3.529,-3.4873,-3.4778,-3.4754,-5.1601,-5.1525,-5.0665,-5.0344,-5.039,-5.0427,-5.0457,-5.0448,-5.0457,-5.0427,-5.0404,-5.0446,-4.9881,-4.8879,-4.796,-4.6106,-4.3668,-4.2547,-4.1542,-4.0626,-4.1159,-4.1816,-4.2425,-4.3146,-4.3479,-4.3479,-4.3479,-4.3075,-4.2378,-4.2304,-4.1387,-3.9588,-3.7386,-3.5881,-3.5023,-3.4821,-3.5078,-3.5752,-3.6541,-3.7107,-3.7492,-3.7219,-3.7107,-3.7262,-3.7166,-3.678,-3.6152,-3.6662,-3.6336,-3.4994,-3.465,-3.3844,-3.2431,-3.3362,-3.3422,-3.2351,-3.3688,-3.4797,-3.499,-3.5504,-3.6006,-3.6395,-3.5846,-3.5718,-3.6197,-3.6284,-3.6284,-3.6284,-3.6284,-3.6284,-3.6284,-3.6284,-3.6284,-3.6284,-3.6284,-3.6284,-3.6232,-3.5645,-3.5283,-3.537,-3.5163,-3.5007,-3.5404,-3.5645,-3.5783,-3.5939,-3.6163,-3.6284,-3.6284,-3.6284,-3.6284,-3.6284,-3.6284,-3.6284,-3.6284,-3.6284,-3.6284,-3.6284,-3.6284,-3.6284,-3.6284,-3.6284,-3.6284,-3.6284,-3.6284,-3.6284,-3.6301,-3.628,-3.6028,-3.556,-3.5447,-3.5407,-3.4968,-3.4634,-3.4423,-5.1601,-5.1467,-5.0665,-5.0302,-5.0314,-5.0314,-5.0325,-5.0325,-5.0314,-5.0255,-5.017,-5.0267,-4.9706,-4.8706,-4.8273,-4.6655,-4.4207,-4.3788,-4.2799,-4.1383,-4.1924,-4.2298,-4.2413,-4.313,-4.3479,-4.3479,-4.3479,-4.3111,-4.2396,-4.2286,-4.113,-3.8872,-3.711,-3.5899,-3.5041,-3.4289,-3.3972,-3.4045,-3.4821,-3.5954,-3.7345,-3.6652,-3.6447,-3.6937,-3.6893,-3.6674,-3.6273,-3.6363,-3.6006,-3.5237,-3.4992,-3.4393,-3.3442,-3.4001,-3.4253,-3.385,-3.4053,-3.4451,-3.5126,-3.5846,-3.626,-3.6305,-3.6215,-3.618,-3.6284,-3.6284,-3.6284,-3.6284,-3.6284,-3.6284,-3.6284,-3.6284,-3.6284,-3.6284,-3.6284,-3.6284,-3.618,-3.5628,-3.5439,-3.6128,-3.5007,-3.468,-3.5611,-3.5183,-3.4803,-3.5594,-3.6025,-3.6335,-3.6422,-3.6318,-3.6284,-3.6284,-3.6284,-3.6318,-3.6353,-3.6301,-3.6404,-3.637,-3.6318,-3.6335,-3.6335,-3.6284,-3.6284,-3.6284,-3.6284,-3.6284,-3.628,-3.622,-3.5887,-3.5377,-3.525,-3.5241,-3.4715,-3.4374,-3.4226,-5.0837,-5.0787,-5.0455,-5.0302,-5.0302,-5.0302,-5.0302,-5.0302,-5.0302,-5.0207,-5.0025,-4.9922,-4.9583,-4.9035,-4.8709,-4.763,-4.6081,-4.5875,-4.4905,-4.3384,-4.3605,-4.3513,-4.3075,-4.3313,-4.3479,-4.3479,-4.3479,-4.3332,-4.2892,-4.2066,-4.0836,-3.9313,-3.7349,-3.6119,-3.5679,-3.4468,-3.4027,-3.4472,-3.4376,-3.511,-3.6564,-3.679,-3.6773,-3.6857,-3.7159,-3.6952,-3.6291,-3.6184,-3.5829,-3.5048,-3.4447,-3.3671,-3.2756,-3.3728,-3.4046,-3.3509,-3.4266,-3.4869,-3.518,-3.5887,-3.6284,-3.6284,-3.6284,-3.6284,-3.6284,-3.6284,-3.6284,-3.6284,-3.6284,-3.6284,-3.6284,-3.6284,-3.6284,-3.6284,-3.6284,-3.6146,-3.568,-3.5783,-3.5714,-3.5128,-3.4869,-3.4734,-3.4976,-3.489,-3.5269,-3.6167,-3.6508,-3.6404,-3.6853,-3.6611,-3.6301,-3.6284,-3.6284,-3.6525,-3.6853,-3.6991,-3.6991,-3.7029,-3.7029,-3.6943,-3.6422,-3.6284,-3.6284,-3.6284,-3.6284,-3.6284,-3.6284,-3.6259,-3.6036,-3.5527,-3.5138,-3.5095,-3.4691,-3.4399,-3.4226,-5.0665,-5.0627,-5.0417,-5.0302,-5.0302,-5.0302,-5.0302,-5.0302,-5.0302,-5.0182,-4.9946,-4.9655,-4.942,-4.9222,-4.8886,-4.8233,-4.7425,-4.7187,-4.6232,-4.4819,-4.4709,-4.4268,-4.3534,-4.3479,-4.3479,-4.3479,-4.3479,-4.3479,-4.3296,-4.1901,-4.0783,-3.9955,-3.7808,-3.6519,-3.6156,-3.4835,-3.4289,-3.4582,-3.4257,-3.4793,-3.6106,-3.6799,-3.7049,-3.7033,-3.7363,-3.7109,-3.6202,-3.6167,-3.5798,-3.5006,-3.449,-3.387,-3.3097,-3.4092,-3.4441,-3.3911,-3.4771,-3.5408,-3.5408,-3.5907,-3.6216,-3.6216,-3.6216,-3.6216,-3.6216,-3.6233,-3.6216,-3.6216,-3.6216,-3.6216,-3.6284,-3.6284,-3.6284,-3.6284,-3.6284,-3.6059,-3.5663,-3.5887,-3.5645,-3.4869,-3.4835,-3.4697,-3.4355,-3.4752,-3.5611,-3.6663,-3.6611,-3.6577,-3.7163,-3.6801,-3.6284,-3.6284,-3.6284,-3.6611,-3.7323,-3.7443,-3.7547,-3.7719,-3.7668,-3.7254,-3.6663,-3.6525,-3.6284,-3.6284,-3.6284,-3.6284,-3.6284,-3.6262,-3.6259,-3.6041,-3.5667,-3.5251,-3.5001,-3.4667,-3.4399,-5.1544,-5.1379,-5.0646,-5.0302,-5.0302,-5.0302,-5.0302,-5.029,-5.029,-5.0139,-4.9866,-4.9491,-4.9166,-4.8925,-4.8695,-4.8144,-4.739,-4.7224,-4.6305,-4.4892,-4.4746,-4.4305,-4.3516,-4.3479,-4.3479,-4.3479,-4.3479,-4.3479,-4.3386,-4.1937,-4.1077,-4.0912,-3.8634,-3.707,-3.6395,-3.5408,-3.4582,-3.4124,-3.4495,-3.5195,-3.5948,-3.6528,-3.7,-3.7327,-3.7303,-3.6921,-3.6364,-3.6277,-3.5915,-3.5206,-3.5638,-3.5628,-3.4974,-3.5555,-3.5874,-3.5801,-3.5882,-3.5933,-3.5916,-3.5985,-3.6041,-3.6019,-3.6023,-3.6019,-3.6041,-3.6041,-3.6041,-3.6019,-3.6023,-3.6105,-3.6276,-3.6345,-3.6331,-3.628,-3.6335,-3.6318,-3.6163,-3.5642,-3.5645,-3.5645,-3.4887,-3.4407,-3.4197,-3.4752,-3.5683,-3.6404,-3.6456,-3.6715,-3.737,-3.6939,-3.6473,-3.637,-3.6404,-3.6577,-3.7323,-3.7512,-3.7806,-3.8047,-3.7875,-3.7443,-3.7219,-3.6943,-3.6542,-3.6284,-3.6284,-3.6284,-3.6284,-3.6262,-3.6259,-3.6127,-3.5937,-3.5627,-3.5304,-3.4937,-3.4626,-5.1276,-5.0741,-5.0436,-5.0302,-5.0302,-5.0302,-5.0259,-5.0243,-5.0175,-5.0012,-4.9745,-4.934,-4.9057,-4.884,-4.8532,-4.8236,-4.7941,-4.7884,-4.7021,-4.559,-4.548,-4.4764,-4.3571,-4.3479,-4.3479,-4.3479,-4.3479,-4.3479,-4.3387,-4.2396,-4.1882,-4.146,-3.946,-3.8102,-3.7569,-3.594,-3.4825,-3.4563,-3.4673,-3.5006,-3.5634,-3.6143,-3.6558,-3.6907,-3.7032,-3.6834,-3.6305,-3.5852,-3.5456,-3.5197,-3.4946,-3.461,-3.4415,-3.497,-3.5561,-3.5929,-3.6014,-3.6014,-3.6014,-3.6014,-3.6014,-3.6014,-3.6014,-3.6014,-3.6014,-3.6014,-3.6014,-3.6014,-3.6014,-3.6041,-3.6187,-3.6517,-3.6676,-3.6363,-3.6642,-3.656,-3.5901,-3.5707,-3.5652,-3.4987,-3.4352,-3.4438,-3.5214,-3.5732,-3.6577,-3.806,-3.8043,-3.806,-3.8456,-3.7853,-3.7047,-3.6978,-3.6663,-3.6577,-3.7353,-3.7495,-3.7685,-3.8047,-3.8013,-3.7305,-3.687,-3.668,-3.6318,-3.6284,-3.6284,-3.6284,-3.6284,-3.6284,-3.628,-3.6237,-3.6067,-3.5871,-3.5577,-3.5148,-3.4818,-5.1314,-5.0378,-5.0302,-5.0302,-5.0302,-5.0302,-5.0255,-5.0151,-5.0044,-4.9847,-4.9566,-4.9169,-4.8905,-4.8696,-4.842,-4.8324,-4.8324,-4.8288,-4.7443,-4.5993,-4.5902,-4.5057,-4.3717,-4.3479,-4.3479,-4.3479,-4.3479,-4.3479,-4.3387,-4.269,-4.2323,-4.2139,-4.012,-3.8946,-3.8414,-3.6699,-3.5626,-3.5367,-3.5306,-3.5473,-3.5732,-3.6167,-3.6413,-3.651,-3.6652,-3.6588,-3.6216,-3.5714,-3.5438,-3.537,-3.4895,-3.4576,-3.4565,-3.4908,-3.5355,-3.5798,-3.5883,-3.5866,-3.5866,-3.5866,-3.5866,-3.5866,-3.5866,-3.5866,-3.5866,-3.5866,-3.5866,-3.59,-3.6161,-3.6263,-3.6445,-3.7143,-3.7257,-3.6512,-3.683,-3.6783,-3.5696,-3.5899,-3.5593,-3.4791,-3.4482,-3.4915,-3.568,-3.587,-3.6857,-3.8732,-3.8358,-3.8249,-3.8922,-3.8375,-3.7512,-3.7478,-3.7081,-3.7185,-3.7495,-3.7478,-3.7668,-3.803,-3.7875,-3.7185,-3.6732,-3.649,-3.6318,-3.6284,-3.6284,-3.6284,-3.6284,-3.6284,-3.6284,-3.6301,-3.6216,-3.6045,-3.5717,-3.5333,-3.4984,-5.1773,-5.0386,-5.0302,-5.0278,-5.0278,-5.0267,-5.0207,-5.005,-4.9863,-4.9627,-4.9368,-4.8971,-4.873,-4.8605,-4.8401,-4.8324,-4.8324,-4.8324,-4.7425,-4.5993,-4.5902,-4.5039,-4.3552,-4.3479,-4.3479,-4.3479,-4.3479,-4.3479,-4.3442,-4.28,-4.2415,-4.2084,-4.0744,-3.9533,-3.8728,-3.7662,-3.6775,-3.6225,-3.6325,-3.6481,-3.6381,-3.6598,-3.6611,-3.6305,-3.6233,-3.6144,-3.5997,-3.5968,-3.5933,-3.595,-3.5895,-3.5898,-3.563,-3.5587,-3.5605,-3.5627,-3.5622,-3.5622,-3.5622,-3.5644,-3.5644,-3.5644,-3.5622,-3.5644,-3.5667,-3.5644,-3.5644,-3.5751,-3.6293,-3.6751,-3.6937,-3.7987,-3.8082,-3.65,-3.6862,-3.6953,-3.6251,-3.6088,-3.5912,-3.5187,-3.5015,-3.5077,-3.5208,-3.5556,-3.6349,-3.737,-3.737,-3.7404,-3.856,-3.8151,-3.7599,-3.7547,-3.715,-3.6943,-3.7215,-3.7473,-3.7732,-3.7922,-3.7581,-3.7098,-3.6853,-3.6611,-3.6353,-3.6284,-3.6284,-3.6284,-3.6284,-3.6284,-3.6284,-3.6262,-3.6237,-3.6174,-3.5871,-3.5515,-3.5148,-5.1291,-5.0269,-5.0182,-5.0133,-5.0076,-5.0038,-4.9952,-4.9802,-4.9607,-4.938,-4.9108,-4.8801,-4.8605,-4.8513,-4.8382,-4.8324,-4.8324,-4.8269,-4.7443,-4.6104,-4.5902,-4.5039,-4.3736,-4.3479,-4.3479,-4.3479,-4.3479,-4.3479,-4.3442,-4.3239,-4.3112,-4.2818,-4.1497,-4.0327,-3.9436,-3.8052,-3.6857,-3.6121,-3.6381,-3.6381,-3.5981,-3.6277,-3.6284,-3.5871,-3.58,-3.5756,-3.5717,-3.591,-3.5997,-3.5997,-3.591,-3.58,-3.5706,-3.5622,-3.5616,-3.5616,-3.5616,-3.5616,-3.5616,-3.5616,-3.5616,-3.5616,-3.5616,-3.5616,-3.5616,-3.5633,-3.5633,-3.5684,-3.6315,-3.6812,-3.7049,-3.8132,-3.8265,-3.6797,-3.7303,-3.7263,-3.6215,-3.6019,-3.5912,-3.5676,-3.5634,-3.5904,-3.6324,-3.6474,-3.6745,-3.7575,-3.7688,-3.8094,-3.8784,-3.8134,-3.7806,-3.8077,-3.7249,-3.6456,-3.6697,-3.6835,-3.6922,-3.7267,-3.7163,-3.6943,-3.6749,-3.6628,-3.6387,-3.6284,-3.6284,-3.6284,-3.6284,-3.6284,-3.6284,-3.6284,-3.6262,-3.6152,-3.598,-3.565,-3.5218,-5.1037,-5.0189,-5.0031,-4.9922,-4.9833,-4.9731,-4.9621,-4.9476,-4.927,-4.9057,-4.8837,-4.8587,-4.8476,-4.8401,-4.8325,-4.8324,-4.8324,-4.8324,-4.7425,-4.6085,-4.5902,-4.5002,-4.3663,-4.3479,-4.3479,-4.3479,-4.3479,-4.3479,-4.3479,-4.3479,-4.3479,-4.3222,-4.1867,-4.0809,-4.0103,-3.8558,-3.7314,-3.6896,-3.6909,-3.6702,-3.6364,-3.6354,-3.6195,-3.5822,-3.5689,-3.5644,-3.5622,-3.5778,-3.5844,-3.5844,-3.5773,-3.5706,-3.5622,-3.5616,-3.5616,-3.5616,-3.5616,-3.5616,-3.5616,-3.5616,-3.5616,-3.5616,-3.5616,-3.5616,-3.565,-3.5769,-3.6045,-3.6129,-3.7026,-3.7625,-3.7828,-3.8674,-3.88,-3.7814,-3.7834,-3.737,-3.6285,-3.5866,-3.5844,-3.5788,-3.5849,-3.6068,-3.6237,-3.6366,-3.6453,-3.6771,-3.7059,-3.7572,-3.8055,-3.7887,-3.7853,-3.7732,-3.7146,-3.6594,-3.6318,-3.6232,-3.6111,-3.6422,-3.6715,-3.6577,-3.6422,-3.6422,-3.6284,-3.6284,-3.6284,-3.6284,-3.6284,-3.6284,-3.6284,-3.6284,-3.6284,-3.6174,-3.598,-3.5543,-3.5155,-5.095,-5.0089,-4.9863,-4.9679,-4.9573,-4.9367,-4.9211,-4.9087,-4.8885,-4.873,-4.8587,-4.842,-4.8343,-4.8324,-4.8306,-4.8324,-4.8324,-4.8306,-4.7443,-4.6269,-4.581,-4.5039,-4.3662,-4.3479,-4.3479,-4.3479,-4.3479,-4.3479,-4.348,-4.348,-4.3479,-4.3298,-4.1948,-4.1054,-4.0728,-3.9281,-3.8523,-3.8386,-3.8023,-3.7612,-3.7261,-3.6801,-3.6426,-3.6023,-3.5883,-3.5751,-3.5622,-3.5644,-3.5622,-3.5622,-3.5622,-3.5622,-3.56,-3.5616,-3.5616,-3.5616,-3.5616,-3.5616,-3.5616,-3.5616,-3.5616,-3.5616,-3.5616,-3.5616,-3.5667,-3.6214,-3.662,-3.6745,-3.7956,-3.8836,-3.8954,-3.9554,-3.9571,-3.9046,-3.8323,-3.7409,-3.6197,-3.5943,-3.6045,-3.5977,-3.5846,-3.5635,-3.5215,-3.5066,-3.4805,-3.4507,-3.484,-3.5589,-3.6268,-3.6651,-3.6848,-3.6745,-3.6565,-3.6672,-3.6392,-3.6284,-3.6301,-3.7129,-3.718,-3.6835,-3.6542,-3.649,-3.6353,-3.6335,-3.6456,-3.6404,-3.6284,-3.6301,-3.6284,-3.6284,-3.6259,-3.6191,-3.5958,-3.5566,-3.5224,-5.0253,-4.9857,-4.9607,-4.9427,-4.9289,-4.9092,-4.8957,-4.8855,-4.8713,-4.8587,-4.8495,-4.8363,-4.8324,-4.8324,-4.8324,-4.8324,-4.8324,-4.8324,-4.7443,-4.6104,-4.5902,-4.4984,-4.3754,-4.3479,-4.3479,-4.3479,-4.3479,-4.3462,-4.3429,-4.3429,-4.3394,-4.3232,-4.2246,-4.1665,-4.1467,-4.0522,-4.0053,-3.9821,-3.9085,-3.8563,-3.8161,-3.7263,-3.6638,-3.6259,-3.6041,-3.5822,-3.5644,-3.5616,-3.5616,-3.5616,-3.5616,-3.5616,-3.5616,-3.5616,-3.5616,-3.5616,-3.5616,-3.5616,-3.5616,-3.5616,-3.5616,-3.5616,-3.5667,-3.5616,-3.5633,-3.6349,-3.6745,-3.7049,-3.8132,-3.9022,-3.9123,-3.9673,-3.969,-3.9073,-3.8478,-3.7835,-3.7394,-3.732,-3.7127,-3.6666,-3.6519,-3.5847,-3.4958,-3.4597,-3.4389,-3.383,-3.3909,-3.4329,-3.5008,-3.5561,-3.5839,-3.5955,-3.5972,-3.6358,-3.6504,-3.6396,-3.6784,-3.7905,-3.7991,-3.7542,-3.7198,-3.6922,-3.668,-3.649,-3.687,-3.6978,-3.6542,-3.6318,-3.6301,-3.6284,-3.6262,-3.6216,-3.6062,-3.5756,-3.5424,-4.9833,-4.9615,-4.9283,-4.9057,-4.8925,-4.8713,-4.8624,-4.8587,-4.8513,-4.8458,-4.8401,-4.8325,-4.8324,-4.8324,-4.8324,-4.8324,-4.8324,-4.8324,-4.7407,-4.5957,-4.5168,-4.4342,-4.3626,-4.3479,-4.3479,-4.3479,-4.3481,-4.3446,-4.3376,-4.334,-4.3287,-4.3069,-4.2359,-4.1941,-4.1814,-4.107,-4.0599,-4.0329,-3.959,-3.8976,-3.8665,-3.7556,-3.6788,-3.6364,-3.6105,-3.5849,-3.5644,-3.5616,-3.5616,-3.5616,-3.5616,-3.5616,-3.5616,-3.5616,-3.5616,-3.5616,-3.5616,-3.5616,-3.5616,-3.5616,-3.5616,-3.5684,-3.5836,-3.6079,-3.6332,-3.7043,-3.7743,-3.7905,-3.8843,-3.9326,-3.9512,-3.9876,-3.9876,-3.9554,-3.9097,-3.8548,-3.8007,-3.7533,-3.7246,-3.6863,-3.6417,-3.5723,-3.4252,-3.4147,-3.3634,-3.3033,-3.2957,-3.3376,-3.3844,-3.4387,-3.4865,-3.5057,-3.5626,-3.6187,-3.668,-3.6711,-3.7331,-3.8456,-3.8807,-3.8318,-3.8077,-3.768,-3.7456,-3.7335,-3.7478,-3.7357,-3.6853,-3.6439,-3.6301,-3.6284,-3.6284,-3.6237,-3.6084,-3.591,-3.5622,-4.9612,-4.9318,-4.8936,-4.8694,-4.8605,-4.8401,-4.8344,-4.8324,-4.8325,-4.8343,-4.8324,-4.8324,-4.8324,-4.8324,-4.8324,-4.8324,-4.8306,-4.8122,-4.7095,-4.5681,-4.447,-4.3552,-4.3552,-4.3479,-4.3497,-4.348,-4.3429,-4.3394,-4.3341,-4.3233,-4.316,-4.2996,-4.2378,-4.2087,-4.2014,-4.127,-4.0836,-4.0745,-3.9914,-3.93,-3.8826,-3.7733,-3.6858,-3.6602,-3.628,-3.598,-3.5718,-3.5616,-3.5616,-3.5616,-3.5616,-3.5616,-3.5616,-3.5616,-3.5616,-3.5616,-3.5616,-3.5616,-3.5616,-3.5616,-3.5616,-3.5701,-3.6315,-3.6795,-3.6965,-3.7912,-3.8759,-3.8717,-3.9673,-3.9943,-3.9994,-4.0045,-3.9876,-3.969,-3.9757,-3.9123,-3.8193,-3.7364,-3.7015,-3.688,-3.6231,-3.5098,-3.3947,-3.3288,-3.2991,-3.2544,-3.2536,-3.2914,-3.3478,-3.4193,-3.4385,-3.432,-3.5096,-3.61,-3.6615,-3.7058,-3.7971,-3.8917,-3.9267,-3.9186,-3.9134,-3.8824,-3.8543,-3.8353,-3.7996,-3.7547,-3.7025,-3.6697,-3.6456,-3.6284,-3.6284,-3.6259,-3.6191,-3.5997,-3.5739,-4.9315,-4.9077,-4.8766,-4.8587,-4.8495,-4.8363,-4.8324,-4.8324,-4.8324,-4.8324,-4.8324,-4.8324,-4.8324,-4.8324,-4.8324,-4.8324,-4.8141,-4.7553,-4.647,-4.4966,-4.3993,-4.3516,-4.3479,-4.3479,-4.3481,-4.3429,-4.3412,-4.3323,-4.3196,-4.3142,-4.3068,-4.2903,-4.2776,-4.2666,-4.2575,-4.2358,-4.2357,-4.2103,-4.0834,-3.9855,-3.9251,-3.7837,-3.694,-3.6935,-3.6734,-3.6237,-3.574,-3.5616,-3.5616,-3.5616,-3.5616,-3.5616,-3.5616,-3.5616,-3.5616,-3.5616,-3.5633,-3.5633,-3.5633,-3.5701,-3.5633,-3.5836,-3.6502,-3.6812,-3.6897,-3.8217,-3.8937,-3.9131,-3.9656,-4.0079,-4.0079,-3.9546,-3.9309,-3.9174,-3.8751,-3.8294,-3.8024,-3.8193,-3.8007,-3.755,-3.684,-3.574,-3.374,-3.3525,-3.3038,-3.2317,-3.2317,-3.2622,-3.3287,-3.4037,-3.4177,-3.4164,-3.4967,-3.6088,-3.7274,-3.7877,-3.882,-3.9497,-3.9761,-3.9963,-3.9894,-3.9738,-3.9376,-3.8824,-3.8215,-3.7801,-3.7611,-3.69,-3.6638,-3.6469,-3.6439,-3.659,-3.6646,-3.6302,-3.6266,-4.899,-4.8802,-4.855,-4.8439,-4.8382,-4.8343,-4.8324,-4.8324,-4.8324,-4.8324,-4.8324,-4.8324,-4.8324,-4.8324,-4.8288,-4.8122,-4.748,-4.6489,-4.5535,-4.46,-4.3849,-4.3429,-4.3357,-4.3357,-4.3358,-4.3376,-4.3305,-4.3196,-4.3104,-4.3012,-4.2957,-4.2919,-4.2919,-4.2865,-4.2919,-4.2919,-4.2865,-4.2482,-4.1139,-4.0068,-3.9512,-3.7822,-3.6637,-3.6749,-3.6684,-3.6417,-3.5667,-3.5616,-3.5616,-3.5616,-3.5633,-3.5616,-3.5616,-3.5616,-3.5616,-3.5633,-3.6011,-3.6129,-3.6197,-3.6485,-3.6732,-3.6671,-3.7381,-3.7709,-3.8031,-3.8911,-3.9436,-3.9588,-3.9859,-4.0096,-4.0062,-3.9428,-3.8954,-3.8396,-3.7821,-3.728,-3.7077,-3.7499,-3.7862,-3.7313,-3.6603,-3.5537,-3.4489,-3.3931,-3.3541,-3.297,-3.2852,-3.3143,-3.3275,-3.3973,-3.4329,-3.4549,-3.5198,-3.6231,-3.774,-3.88,-3.9735,-4.0225,-4.0433,-4.0526,-4.0532,-4.0325,-4.0083,-3.9474,-3.8939,-3.8813,-3.8498,-3.774,-3.7223,-3.7469,-3.756,-3.7422,-3.7366,-3.7411,-3.7475,-4.8676,-4.855,-4.8382,-4.8324,-4.8324,-4.8324,-4.8324,-4.8287,-4.814,-4.8031,-4.8067,-4.7993,-4.7792,-4.8048,-4.8048,-4.7626,-4.6709,-4.5553,-4.4674,-4.4235,-4.3669,-4.3341,-4.3251,-4.3233,-4.3251,-4.3323,-4.3215,-4.3086,-4.2849,-4.2902,-4.2792,-4.2755,-4.2882,-4.2901,-4.2919,-4.2882,-4.2774,-4.2374,-4.1171,-4.0037,-3.9454,-3.7898,-3.696,-3.6616,-3.7034,-3.6941,-3.636,-3.614,-3.6039,-3.5938,-3.5955,-3.5955,-3.5887,-3.5633,-3.5616,-3.5633,-3.6265,-3.6603,-3.6772,-3.7297,-3.777,-3.7939,-3.8531,-3.8886,-3.908,-3.9486,-3.9893,-4.0011,-4.0113,-4.0113,-4.0062,-3.9428,-3.87,-3.8024,-3.7263,-3.6468,-3.596,-3.6231,-3.6552,-3.6518,-3.5943,-3.4996,-3.4658,-3.4286,-3.3998,-3.3761,-3.366,-3.366,-3.3846,-3.4049,-3.4506,-3.4709,-3.5238,-3.6305,-3.7795,-3.916,-4.0165,-4.0463,-4.0741,-4.0823,-4.0871,-4.0705,-4.0429,-4.0215,-3.9847,-3.9549,-3.9135,-3.8412,-3.8227,-3.8594,-3.8456,-3.8094,-3.8215,-3.8543,-3.8503,-4.8587,-4.8494,-4.8344,-4.8324,-4.8305,-4.8305,-4.8287,-4.8177,-4.7607,-4.7314,-4.7241,-4.6654,-4.6782,-4.7149,-4.7314,-4.6837,-4.6048,-4.5004,-4.4199,-4.3724,-4.3342,-4.3214,-4.3178,-4.3142,-4.3141,-4.3141,-4.3086,-4.274,-4.2394,-4.2502,-4.2556,-4.2212,-4.2592,-4.2882,-4.2828,-4.2864,-4.2556,-4.1992,-4.1093,-4.0219,-3.9177,-3.8465,-3.7813,-3.7458,-3.7997,-3.7956,-3.7584,-3.7466,-3.7533,-3.7533,-3.7516,-3.7483,-3.7178,-3.6293,-3.5836,-3.5971,-3.6569,-3.71,-3.7168,-3.7601,-3.7889,-3.8075,-3.8667,-3.9022,-3.9208,-3.9631,-4.0045,-4.0113,-4.0113,-4.0096,-4.0079,-3.9453,-3.87,-3.7973,-3.7229,-3.6485,-3.5853,-3.5684,-3.5876,-3.5893,-3.525,-3.481,-3.4776,-3.4742,-3.4573,-3.4421,-3.4387,-3.4539,-3.4788,-3.4856,-3.503,-3.5115,-3.5165,-3.6441,-3.784,-3.9173,-4.0258,-4.0377,-4.0618,-4.0776,-4.0823,-4.0871,-4.0716,-4.0474,-4.0106,-3.9675,-3.9261,-3.8946,-3.8951,-3.9146,-3.8922,-3.8681,-3.8957,-3.9215,-3.8968,-4.8267,-4.8228,-4.817,-4.8151,-4.8151,-4.8132,-4.8151,-4.8023,-4.7308,-4.6942,-4.6705,-4.6157,-4.5937,-4.6357,-4.6814,-4.6485,-4.5626,-4.4401,-4.367,-4.3251,-4.3178,-4.3105,-4.305,-4.3012,-4.2994,-4.2994,-4.2957,-4.2794,-4.2393,-4.2683,-4.2429,-4.2085,-4.2502,-4.2701,-4.2483,-4.2626,-4.2299,-4.1589,-4.074,-3.9752,-3.865,-3.8313,-3.8108,-3.8163,-3.8531,-3.8582,-3.8075,-3.7898,-3.7905,-3.7889,-3.7905,-3.7898,-3.7719,-3.7364,-3.68,-3.6924,-3.7449,-3.7912,-3.8048,-3.8582,-3.9056,-3.9089,-3.9377,-3.9554,-3.9639,-3.9893,-4.0096,-4.0113,-4.0113,-4.0113,-4.0079,-3.9428,-3.87,-3.7973,-3.728,-3.6535,-3.5808,-3.5329,-3.543,-3.5667,-3.552,-3.5334,-3.5216,-3.5165,-3.5098,-3.5081,-3.5081,-3.5301,-3.5583,-3.5498,-3.538,-3.5447,-3.5487,-3.6276,-3.7515,-3.8717,-3.9734,-3.9949,-4.035,-4.0525,-4.0741,-4.0772,-4.0767,-4.0636,-4.0233,-3.9934,-4.0048,-3.9996,-3.9847,-3.9715,-3.9767,-3.9825,-3.9825,-3.9784,-3.9572,-4.7992,-4.7992,-4.7992,-4.7992,-4.7992,-4.7992,-4.8012,-4.7809,-4.6952,-4.6515,-4.6424,-4.5585,-4.5148,-4.5475,-4.5858,-4.5895,-4.5238,-4.3816,-4.3251,-4.3141,-4.3068,-4.2994,-4.2938,-4.2919,-4.2919,-4.2919,-4.2919,-4.281,-4.2538,-4.2774,-4.2339,-4.1904,-4.2303,-4.2484,-4.2049,-4.2443,-4.204,-4.1108,-4.0293,-3.9159,-3.8226,-3.8025,-3.8108,-3.8193,-3.8819,-3.8988,-3.8582,-3.8548,-3.8531,-3.8514,-3.8464,-3.8413,-3.8379,-3.8345,-3.8345,-3.843,-3.8785,-3.8937,-3.9106,-3.9588,-3.9876,-3.9859,-4.0028,-4.0079,-4.0079,-4.0028,-4.0113,-4.0113,-4.0113,-4.0113,-4.0045,-3.958,-3.8937,-3.8294,-3.7652,-3.6992,-3.6417,-3.6039,-3.6079,-3.6146,-3.5988,-3.5994,-3.596,-3.6197,-3.6265,-3.5876,-3.5859,-3.552,-3.5735,-3.5616,-3.5566,-3.5701,-3.5893,-3.6282,-3.714,-3.8034,-3.8761,-3.9051,-3.9607,-4.0062,-4.0371,-4.0621,-4.0634,-4.0664,-4.0709,-4.0513,-4.0772,-4.084,-4.052,-4.0422,-4.0756,-4.0774,-4.048,-4.0405,-4.0306,-4.7992,-4.7992,-4.7992,-4.7992,-4.7992,-4.7992,-4.7992,-4.7809,-4.6422,-4.5749,-4.573,-4.429,-4.398,-4.4509,-4.4637,-4.4637,-4.429,-4.3651,-4.3086,-4.3067,-4.2994,-4.2938,-4.2919,-4.2919,-4.2919,-4.2919,-4.2919,-4.2466,-4.2357,-4.2683,-4.2122,-4.1379,-4.214,-4.2502,-4.1831,-4.2311,-4.1706,-4.0471,-4.0194,-3.9539,-3.8505,-3.8581,-3.8759,-3.9039,-3.9486,-3.9808,-3.9588,-3.9571,-3.9597,-3.969,-3.9757,-3.9808,-3.9842,-3.9842,-3.9842,-3.9673,-3.9377,-3.9005,-3.9174,-3.9723,-4.0113,-4.0113,-4.0113,-4.0113,-4.0113,-4.0113,-4.0113,-4.0113,-4.0113,-4.0113,-4.0113,-4.0011,-3.9571,-3.9182,-3.8684,-3.8261,-3.7736,-3.7178,-3.7161,-3.7229,-3.7297,-3.7043,-3.6914,-3.7212,-3.7432,-3.6992,-3.6592,-3.6248,-3.6056,-3.6107,-3.587,-3.6028,-3.6045,-3.6383,-3.6688,-3.7581,-3.8146,-3.836,-3.9153,-3.9771,-4.0096,-4.0415,-4.0569,-4.0627,-4.0696,-4.0662,-4.0576,-4.0617,-4.0819,-4.0864,-4.0799,-4.0847,-4.086,-4.0847,-4.0752,-4.7827,-4.7827,-4.7827,-4.7845,-4.7845,-4.7827,-4.7845,-4.75,-4.6156,-4.5429,-4.512,-4.3758,-4.3485,-4.4031,-4.3813,-4.3831,-4.394,-4.3357,-4.3012,-4.3012,-4.2938,-4.2919,-4.2919,-4.2919,-4.2919,-4.2919,-4.2901,-4.281,-4.2574,-4.2538,-4.2248,-4.156,-4.2212,-4.2484,-4.1812,-4.2233,-4.16,-4.0542,-3.9643,-3.9043,-3.8867,-3.894,-3.9199,-3.9588,-3.9926,-4.0079,-4.0113,-4.0113,-4.0113,-4.0113,-4.0113,-4.0096,-4.0096,-4.0079,-4.0079,-4.0045,-3.98,-3.9631,-3.9706,-3.996,-4.0062,-4.0113,-4.0113,-4.0113,-4.0113,-4.0113,-4.0113,-4.0113,-4.0113,-4.0113,-4.0113,-4.0113,-3.9943,-3.9723,-3.952,-3.9419,-3.9022,-3.8667,-3.8413,-3.8497,-3.8497,-3.8193,-3.7912,-3.7922,-3.8007,-3.7652,-3.7381,-3.7229,-3.7127,-3.7195,-3.684,-3.64,-3.6366,-3.6383,-3.6603,-3.7077,-3.7845,-3.8323,-3.9397,-3.9902,-3.9993,-4.0192,-4.0244,-4.0184,-4.0076,-4.007,-4.0173,-4.0483,-4.0741,-4.0752,-4.0704,-4.0728,-4.0728,-4.0655,-4.0444,-4.712,-4.7156,-4.7515,-4.7699,-4.7699,-4.7699,-4.7699,-4.7536,-4.625,-4.5617,-4.5164,-4.4006,-4.3481,-4.3588,-4.3263,-4.3282,-4.3716,-4.3173,-4.2973,-4.2919,-4.2919,-4.2919,-4.2919,-4.2919,-4.2919,-4.2919,-4.2919,-4.2846,-4.2864,-4.281,-4.2484,-4.1777,-4.2466,-4.2375,-4.2028,-4.2011,-4.1706,-4.0301,-3.8939,-3.8502,-3.871,-3.8926,-3.9283,-3.9673,-3.9977,-4.0113,-4.0113,-4.0113,-4.0113,-4.0113,-4.0113,-4.0113,-4.0113,-4.0113,-4.0113,-4.0096,-3.9994,-4.0011,-3.9994,-4.0079,-4.0096,-4.0113,-4.0113,-4.0113,-4.0113,-4.0113,-4.0113,-4.0113,-4.0113,-4.0113,-4.0113,-4.0113,-4.0062,-4.0028,-4.0011,-4.0079,-4.0028,-3.9503,-3.9233,-3.9276,-3.9276,-3.9259,-3.8971,-3.87,-3.8514,-3.8261,-3.8142,-3.8108,-3.8041,-3.8007,-3.7635,-3.7094,-3.7043,-3.6975,-3.7026,-3.7263,-3.7746,-3.8261,-3.9357,-3.9838,-3.9834,-3.9737,-3.9679,-3.9585,-3.9542,-3.9639,-3.9791,-4.0261,-4.068,-4.0631,-4.0607,-4.0558,-4.0534,-4.0444,-4.0154,-4.5454,-4.5599,-4.7102,-4.7681,-4.7663,-4.7699,-4.7681,-4.7645,-4.6757,-4.6269,-4.5852,-4.4729,-4.3552,-4.3155,-4.3028,-4.2973,-4.3046,-4.2937,-4.2919,-4.2919,-4.2919,-4.2919,-4.2919,-4.2919,-4.2919,-4.2919,-4.2919,-4.2919,-4.2919,-4.2919,-4.2429,-4.194,-4.2574,-4.2321,-4.2043,-4.1978,-4.1413,-4.015,-3.8856,-3.8289,-3.8529,-3.8792,-3.9157,-3.9309,-3.9757,-4.0113,-4.0113,-4.0113,-4.0113,-4.0113,-4.0113,-4.0113,-4.0113,-4.0113,-4.0113,-4.0113,-4.0113,-4.0113,-4.0113,-4.0113,-4.0113,-4.0113,-4.0113,-4.0113,-4.0113,-4.0113,-4.0113,-4.0113,-4.0113,-4.0113,-4.0113,-4.0113,-4.0113,-4.0113,-4.0113,-4.0113,-4.0113,-4.0062,-3.9859,-3.9994,-3.9943,-3.9791,-3.9757,-3.9419,-3.9233,-3.8971,-3.8886,-3.8853,-3.8514,-3.8413,-3.8176,-3.7872,-3.7838,-3.7787,-3.7753,-3.799,-3.8193,-3.8464,-3.9189,-3.9466,-3.9465,-3.9333,-3.9071,-3.9307,-3.9326,-3.9371,-3.9518,-4.0089,-4.0466,-4.0517,-4.0485,-4.0395,-4.0313,-4.0238,-3.9876,-4.6776,-4.6848,-4.7443,-4.7428,-4.6957,-4.6975,-4.7265,-4.7518,-4.6848,-4.5888,-4.5055,-4.4349,-4.3662,-4.31,-4.2919,-4.2919,-4.2919,-4.2919,-4.2919,-4.2919,-4.2919,-4.2919,-4.2919,-4.2919,-4.2919,-4.2919,-4.2919,-4.2919,-4.2919,-4.2973,-4.281,-4.2647,-4.2806,-4.2586,-4.2336,-4.1813,-4.1066,-4.0474,-3.9647,-3.9266,-3.9309,-3.9445,-3.9665,-3.974,-3.9817,-4.0096,-4.0113,-4.0113,-4.0113,-4.0113,-4.0113,-4.0113,-4.0113,-4.0113,-4.0113,-4.0113,-4.0113,-4.0113,-4.0113,-4.0113,-4.0113,-4.0113,-4.0113,-4.0113,-4.0113,-4.0113,-4.0113,-4.0113,-4.0113,-4.0113,-4.0113,-4.0113,-4.0113,-4.0113,-4.0113,-4.0113,-4.0113,-4.0113,-4.0096,-4.0079,-4.0079,-4.0028,-4.0028,-4.0028,-3.9876,-3.9723,-3.9673,-3.9554,-3.9216,-3.8954,-3.8785,-3.8633,-3.8582,-3.8345,-3.8278,-3.8396,-3.8531,-3.8819,-3.9123,-3.9308,-3.9416,-3.8615,-3.8465,-3.8785,-3.9082,-3.9065,-3.9337,-3.9968,-4.0292,-4.0353,-4.0313,-4.0221,-4.0121,-4.0037,-3.9713,-4.6993,-4.6993,-4.6975,-4.6957,-4.6866,-4.6866,-4.7174,-4.7515,-4.7138,-4.5943,-4.4476,-4.4421,-4.3824,-4.3155,-4.2919,-4.2919,-4.2919,-4.2919,-4.2919,-4.2919,-4.2919,-4.2919,-4.2919,-4.2919,-4.2919,-4.2919,-4.2919,-4.2919,-4.2919,-4.3117,-4.3168,-4.32,-4.319,-4.305,-4.2239,-4.1578,-4.0931,-4.0631,-4.0337,-4.0113,-4.0062,-4.0062,-4.0062,-4.0062,-4.0079,-4.0096,-4.0113,-4.0113,-4.0113,-4.0113,-4.0113,-4.0113,-4.0113,-4.0113,-4.0113,-4.0113,-4.0113,-4.0113,-4.0113,-4.0113,-4.0113,-4.0113,-4.0113,-4.0113,-4.0113,-4.0113,-4.0113,-4.0113,-4.0113,-4.0113,-4.0113,-4.0113,-4.0113,-4.0113,-4.0113,-4.0113,-4.0113,-4.0113,-4.0113,-4.0096,-4.0113,-4.0113,-4.0113,-4.0113,-4.0045,-3.9943,-3.991,-3.9876,-3.9791,-3.9639,-3.9605,-3.9445,-3.9309,-3.9022,-3.8734,-3.8751,-3.8819,-3.9225,-3.9478,-3.9639,-3.9468,-3.8669,-3.8336,-3.8812,-3.8972,-3.8792,-3.9149,-3.9812,-4.0093,-4.0238,-4.0154,-4.0061,-4.007,-3.9986,-3.9729,-4.5508,-4.5363,-4.549,-4.6359,-4.7515,-4.7645,-4.7645,-4.7699,-4.7609,-4.6667,-4.5254,-4.5146,-4.4277,-4.3209,-4.2919,-4.2919,-4.2919,-4.2919,-4.2919,-4.2919,-4.2919,-4.2919,-4.2919,-4.2919,-4.2919,-4.2919,-4.2919,-4.2919,-4.2918,-4.3437,-4.3646,-4.3619,-4.3533,-4.334,-4.2216,-4.1311,-4.0741,-4.0544,-4.0391,-4.0375,-4.04,-4.0434,-4.0451,-4.0299,-4.0299,-4.0333,-4.0113,-4.0113,-4.0113,-4.0113,-4.0113,-4.0113,-4.0113,-4.0113,-4.0113,-4.0113,-4.0113,-4.0113,-4.0113,-4.0113,-4.0113,-4.0113,-4.0113,-4.0113,-4.0113,-4.0113,-4.0113,-4.0113,-4.0113,-4.0113,-4.0113,-4.0113,-4.0113,-4.0113,-4.0113,-4.0113,-4.0113,-4.0113,-4.0113,-4.0113,-4.0113,-4.0113,-4.0113,-4.0113,-4.0113,-4.0079,-4.0096,-4.0113,-4.0113,-4.0062,-3.9994,-3.991,-3.9757,-3.9656,-3.9309,-3.9056,-3.9123,-3.9571,-3.974,-3.9723,-3.9656,-3.9172,-3.8986,-3.908,-3.8986,-3.8933,-3.9231,-3.9639,-3.9799,-3.9943,-3.9952,-3.9926,-3.9952,-3.9691,-3.9234,-4.6902,-4.6902,-4.6902,-4.721,-4.7588,-4.7099,-4.721,-4.7645,-4.7591,-4.6794,-4.5544,-4.5291,-4.4403,-4.3317,-4.2992,-4.301,-4.2955,-4.2919,-4.2919,-4.2955,-4.3046,-4.2919,-4.2973,-4.31,-4.3028,-4.2937,-4.2919,-4.3046,-4.2919,-4.3702,-4.3681,-4.3536,-4.3374,-4.287,-4.2602,-4.1992,-4.1433,-4.1759,-4.168,-4.1559,-4.1551,-4.1474,-4.1288,-4.0849,-4.0815,-4.0587,-4.0214,-4.018,-4.0113,-4.0113,-4.0113,-4.0113,-4.0113,-4.0113,-4.0113,-4.0113,-4.0113,-4.0113,-4.0113,-4.0113,-4.0113,-4.0113,-4.0113,-4.0113,-4.0113,-4.0113,-4.0113,-4.0113,-4.0113,-4.0113,-4.0113,-4.0113,-4.0113,-4.0113,-4.0113,-4.0113,-4.0113,-4.0113,-4.0113,-4.0113,-4.0113,-4.0113,-4.0113,-4.0113,-4.0113,-4.0113,-4.0113,-4.0113,-4.0113,-4.0113,-4.0062,-4.0062,-4.0011,-4.0045,-3.991,-3.9242,-3.9174,-3.9605,-3.9622,-3.9503,-3.9402,-3.9317,-3.9486,-3.9486,-3.93,-3.9165,-3.9537,-3.9791,-3.9622,-3.9622,-3.9486,-3.9199,-3.8946,-3.8604,-3.8137,-4.7699,-4.7699,-4.7699,-4.7699,-4.7627,-4.7138,-4.7246,-4.7663,-4.7663,-4.6939,-4.5924,-4.5689,-4.4856,-4.3788,-4.3588,-4.3462,-4.3371,-4.3643,-4.3751,-4.3715,-4.3751,-4.386,-4.3824,-4.368,-4.3952,-4.3734,-4.3715,-4.3806,-4.3913,-4.4324,-4.4485,-4.4142,-4.3114,-4.3396,-4.3185,-4.2552,-4.1724,-4.2063,-4.211,-4.2134,-4.2151,-4.2134,-4.2042,-4.1627,-4.1305,-4.0967,-4.0544,-4.0282,-4.0113,-4.0113,-4.0113,-4.0113,-4.0113,-4.0113,-4.0113,-4.0113,-4.0113,-4.0113,-4.0113,-4.0113,-4.0113,-4.0113,-4.0113,-4.0113,-4.0113,-4.0113,-4.0113,-4.0113,-4.0113,-4.0113,-4.0113,-4.0113,-4.0113,-4.0113,-4.0113,-4.0113,-4.0113,-4.0113,-4.0113,-4.0113,-4.0113,-4.0113,-4.0113,-4.0113,-4.0113,-4.0113,-4.0113,-4.0113,-4.0113,-4.0113,-4.0113,-4.0113,-4.0113,-4.0113,-3.974,-3.9022,-3.9123,-3.9639,-3.9343,-3.8903,-3.9242,-3.9191,-3.9546,-3.9893,-3.9706,-3.9656,-3.9893,-3.9977,-3.9673,-3.9157,-3.8684,-3.8362,-3.7956,-3.7754,-3.7559,-4.7699,-4.7699,-4.7699,-4.7699,-4.7699,-4.7627,-4.7642,-4.7699,-4.7699,-4.7246,-4.6468,-4.6395,-4.5454,-4.4421,-4.4838,-4.4675,-4.4222,-4.4747,-4.4947,-4.5055,-4.4856,-4.4983,-4.5019,-4.5001,-4.4838,-4.5037,-4.5055,-4.4765,-4.5214,-4.5176,-4.5368,-4.5267,-4.4027,-4.4031,-4.3622,-4.2904,-4.2221,-4.2634,-4.2838,-4.2844,-4.2861,-4.2658,-4.2591,-4.2269,-4.1796,-4.1356,-4.0899,-4.0502,-4.0197,-4.0113,-4.0113,-4.0113,-4.0113,-4.0113,-4.0113,-4.0113,-4.0113,-4.0113,-4.0113,-4.0113,-4.0113,-4.0113,-4.0113,-4.0113,-4.0113,-4.0113,-4.0113,-4.0113,-4.0113,-4.0113,-4.0113,-4.0113,-4.0113,-4.0113,-4.0113,-4.0113,-4.0113,-4.0113,-4.0113,-4.0113,-4.0113,-4.0113,-4.0113,-4.0113,-4.0248,-4.0113,-4.0113,-4.0113,-4.0113,-4.0113,-4.0113,-4.0113,-4.0113,-4.0113,-3.9639,-3.9056,-3.8903,-3.9343,-3.8396,-3.7973,-3.8464,-3.914,-3.9486,-3.9791,-4.0011,-4.0113,-4.0113,-3.9893,-3.9554,-3.9005,-3.8548,-3.7736,-3.7415,-3.7681,-3.7644,-4.7699,-4.7699,-4.7699,-4.7699,-4.7699,-4.7699,-4.7699,-4.7699,-4.7699,-4.7246,-4.6504,-4.6504,-4.5671,-4.4258,-4.491,-4.4765,-4.4693,-4.482,-4.5164,-4.5325,-4.5463,-4.5361,-4.5343,-4.5413,-4.5325,-4.5343,-4.5379,-4.5427,-4.5287,-4.5427,-4.5455,-4.5252,-4.4304,-4.4238,-4.3993,-4.3396,-4.3436,-4.3555,-4.369,-4.369,-4.3724,-4.3735,-4.347,-4.2946,-4.2269,-4.1762,-4.1136,-4.0476,-4.0163,-4.0113,-4.0113,-4.0113,-4.0113,-4.0113,-4.0113,-4.0113,-4.0113,-4.0113,-4.0113,-4.0113,-4.0113,-4.0113,-4.0113,-4.0113,-4.0113,-4.0113,-4.0113,-4.0113,-4.0113,-4.0113,-4.0113,-4.0113,-4.0113,-4.0113,-4.0113,-4.0113,-4.0113,-4.0113,-4.0113,-4.013,-4.013,-4.0316,-4.0282,-4.04,-4.0502,-4.0248,-4.0163,-4.0265,-4.018,-4.0197,-4.0113,-4.0113,-4.0113,-4.0113,-3.9859,-3.9351,-3.9089,-3.8836,-3.7956,-3.7618,-3.8497,-3.9123,-3.9436,-3.9723,-4.0011,-4.0113,-4.0113,-3.9876,-3.9673,-3.9266,-3.8734,-3.7719,-3.703,-3.7455,-3.7386,-4.7407,-4.7699,-4.7699,-4.7699,-4.7699,-4.7699,-4.7554,-4.7316,-4.7572,-4.737,-4.699,-4.7011,-4.6087,-4.4965,-4.5631,-4.5642,-4.4608,-4.5665,-4.6146,-4.6082,-4.5873,-4.605,-4.5999,-4.5909,-4.605,-4.5963,-4.5945,-4.6115,-4.5803,-4.5451,-4.5395,-4.5216,-4.4242,-4.4281,-4.4293,-4.4141,-4.413,-4.4344,-4.453,-4.4598,-4.4598,-4.4564,-4.4096,-4.3487,-4.2709,-4.1965,-4.1288,-4.0544,-4.018,-4.0113,-4.0113,-4.0113,-4.0113,-4.0113,-4.0113,-4.0113,-4.0113,-4.0113,-4.0113,-4.0113,-4.0113,-4.0113,-4.0113,-4.0113,-4.0113,-4.0113,-4.0113,-4.0113,-4.0113,-4.0113,-4.0113,-4.0113,-4.0113,-4.0113,-4.0113,-4.0113,-4.0113,-4.0113,-4.013,-4.0146,-4.0299,-4.0536,-4.0671,-4.0764,-4.0967,-4.1162,-4.1247,-4.1264,-4.0908,-4.0451,-4.0265,-4.0113,-4.0113,-4.0096,-3.9842,-3.9656,-3.9283,-3.8734,-3.777,-3.7719,-3.8582,-3.8937,-3.9073,-3.9554,-4.0062,-4.0113,-4.0113,-4.0079,-3.9893,-3.9453,-3.9022,-3.8294,-3.7715,-3.7732,-3.7377,-4.6939,-4.7591,-4.7681,-4.7699,-4.7699,-4.7609,-4.7174,-4.6595,-4.7138,-4.7464,-4.7355,-4.7425,-4.6395,-4.5234,-4.6003,-4.5768,-4.521,-4.5767,-4.6315,-4.6832,-4.6537,-4.6501,-4.6577,-4.6863,-4.6453,-4.6738,-4.6768,-4.6372,-4.6489,-4.5996,-4.5364,-4.5177,-4.4735,-4.4564,-4.453,-4.4496,-4.4479,-4.453,-4.4598,-4.4598,-4.4598,-4.4513,-4.4231,-4.3572,-4.2794,-4.2016,-4.1424,-4.0798,-4.0214,-4.0265,-4.035,-4.0434,-4.0468,-4.0502,-4.0468,-4.0468,-4.062,-4.0637,-4.0587,-4.0502,-4.035,-4.0265,-4.0146,-4.0248,-4.0299,-4.0146,-4.0113,-4.0113,-4.0113,-4.0113,-4.0113,-4.0113,-4.0113,-4.0113,-4.0113,-4.0113,-4.0113,-4.0163,-4.0265,-4.0367,-4.0679,-4.0933,-4.1322,-4.1474,-4.1576,-4.1982,-4.2049,-4.2025,-4.1788,-4.1094,-4.0874,-4.0587,-4.0688,-4.0722,-4.029,-4.002,-3.9453,-3.8717,-3.7804,-3.7838,-3.8717,-3.8802,-3.8667,-3.9385,-4.0113,-4.0113,-4.0096,-4.0079,-3.996,-3.958,-3.9191,-3.8811,-3.8527,-3.8329,-3.7682,-4.6613,-4.6866,-4.7464,-4.7699,-4.7609,-4.7047,-4.6685,-4.6468,-4.5997,-4.5906,-4.5888,-4.5834,-4.5397,-4.4762,-4.541,-4.5135,-4.4511,-4.5414,-4.5604,-4.587,-4.6081,-4.6346,-4.6328,-4.6346,-4.6328,-4.6328,-4.6304,-4.6249,-4.6045,-4.5666,-4.5302,-4.5059,-4.4737,-4.4598,-4.4598,-4.4598,-4.4598,-4.4598,-4.4598,-4.4598,-4.4598,-4.4598,-4.4412,-4.3842,-4.3183,-4.2642,-4.2083,-4.1593,-4.1491,-4.161,-4.1754,-4.1788,-4.1788,-4.1737,-4.1754,-4.1745,-4.1593,-4.1568,-4.145,-4.1153,-4.0916,-4.0696,-4.0595,-4.0629,-4.0544,-4.0282,-4.0163,-4.018,-4.0197,-4.0214,-4.0231,-4.0248,-4.0248,-4.0231,-4.0231,-4.0231,-4.0231,-4.035,-4.046,-4.0747,-4.1102,-4.1525,-4.1948,-4.2185,-4.2236,-4.2269,-4.2252,-4.2252,-4.2371,-4.2033,-4.2127,-4.1907,-4.1779,-4.1644,-4.1052,-4.051,-3.9969,-3.9191,-3.8328,-3.8514,-3.8928,-3.9165,-3.9351,-3.969,-4.0113,-4.0113,-4.0113,-4.0096,-3.9943,-3.9681,-3.9539,-3.9252,-3.9076,-3.892,-3.8173,-4.5653,-4.5997,-4.645,-4.6649,-4.6558,-4.616,-4.578,-4.5381,-4.4965,-4.4548,-4.444,-4.4834,-4.4757,-4.4225,-4.4863,-4.4545,-4.3904,-4.5018,-4.5404,-4.5494,-4.5453,-4.5715,-4.5784,-4.5784,-4.5784,-4.5784,-4.5776,-4.5692,-4.5503,-4.5319,-4.5069,-4.4896,-4.4692,-4.4598,-4.4598,-4.4598,-4.4598,-4.4598,-4.4598,-4.4598,-4.4598,-4.4598,-4.4316,-4.3842,-4.3436,-4.2997,-4.2523,-4.2066,-4.21,-4.2168,-4.2185,-4.2202,-4.2168,-4.2151,-4.2219,-4.2219,-4.2202,-4.2303,-4.2202,-4.1982,-4.1576,-4.1271,-4.1339,-4.1474,-4.1102,-4.0916,-4.1314,-4.1348,-4.1348,-4.1365,-4.1339,-4.1339,-4.1339,-4.1339,-4.1339,-4.1339,-4.1339,-4.1373,-4.1457,-4.1576,-4.1999,-4.2489,-4.2929,-4.3352,-4.342,-4.3521,-4.3335,-4.3217,-4.32,-4.2997,-4.3081,-4.3031,-4.2811,-4.2117,-4.1238,-4.0849,-4.0578,-3.9749,-3.8853,-3.8853,-3.9056,-3.9673,-4.0096,-4.018,-4.018,-4.0113,-4.0113,-4.0113,-4.0113,-3.9943,-3.9843,-3.9732,-3.9573,-3.9195,-3.8373,-4.4621,-4.5236,-4.5327,-4.5327,-4.5273,-4.5162,-4.4782,-4.4165,-4.3928,-4.3511,-4.3092,-4.4165,-4.4176,-4.4247,-4.4591,-4.4193,-4.416,-4.4662,-4.5027,-4.507,-4.5189,-4.5249,-4.5283,-4.5283,-4.5266,-4.5266,-4.5283,-4.523,-4.5113,-4.4978,-4.4869,-4.4748,-4.4665,-4.4598,-4.4598,-4.4598,-4.4598,-4.4598,-4.4598,-4.4598,-4.4598,-4.4598,-4.4231,-4.3842,-4.3409,-4.3115,-4.2743,-4.2489,-4.2489,-4.2719,-4.2844,-4.2878,-4.2895,-4.2946,-4.2878,-4.2912,-4.2946,-4.2895,-4.2726,-4.2608,-4.2151,-4.188,-4.2185,-4.2117,-4.1728,-4.1914,-4.2286,-4.2499,-4.2499,-4.2236,-4.2236,-4.2236,-4.2236,-4.2236,-4.2236,-4.2236,-4.2236,-4.2252,-4.2286,-4.2337,-4.2811,-4.3274,-4.3775,-4.4231,-4.4384,-4.4547,-4.4598,-4.4598,-4.4445,-4.4073,-4.3904,-4.3768,-4.3521,-4.2675,-4.1762,-4.1356,-4.1238,-4.0324,-3.9529,-3.9276,-3.9242,-3.9791,-4.018,-4.0367,-4.0333,-4.018,-4.0113,-4.0113,-4.0113,-4.0113,-3.9935,-3.9703,-3.9276,-3.8882,-3.8298,-4.4566,-4.5291,-4.5291,-4.5273,-4.5182,-4.456,-4.4101,-4.3766,-4.3037,-4.258,-4.2496,-4.2368,-4.2448,-4.2522,-4.2966,-4.2975,-4.3051,-4.3933,-4.4014,-4.3814,-4.462,-4.4769,-4.482,-4.4913,-4.4776,-4.4803,-4.4831,-4.4748,-4.4831,-4.4748,-4.4682,-4.4654,-4.4626,-4.4598,-4.4598,-4.4598,-4.4598,-4.4598,-4.4598,-4.4598,-4.4598,-4.4581,-4.4564,-4.4164,-4.3724,-4.3859,-4.3826,-4.3504,-4.369,-4.3944,-4.4056,-4.3988,-4.3921,-4.387,-4.3853,-4.3768,-4.3775,-4.3809,-4.3701,-4.3386,-4.2963,-4.2726,-4.2895,-4.2726,-4.2642,-4.2929,-4.3284,-4.3633,-4.343,-4.2702,-4.2567,-4.254,-4.254,-4.254,-4.254,-4.2567,-4.2567,-4.2608,-4.2692,-4.2929,-4.3318,-4.3792,-4.4231,-4.4496,-4.4513,-4.4598,-4.4598,-4.4598,-4.4598,-4.4598,-4.4598,-4.4378,-4.4124,-4.3809,-4.3105,-4.2286,-4.1863,-4.0933,-4.024,-4.002,-3.9884,-3.9926,-4.0231,-4.0561,-4.0451,-4.0214,-4.0163,-4.0113,-4.0113,-4.0087,-3.9841,-3.9582,-3.9098,-3.859,-3.8014]},{"header":{"parameterUnit":"m.s-1","parameterCategory":1,"la1":31.0,"la2":29.5877,"lo1":-88.7671,"lo2":-86.6584,"dy":0.0162,"dx":0.0185,"nx":115,"ny":88,"refTime":"2026-04-11T12:00:00:Z","depth":0,"parameterNumber":3,"parameterNumberName":"V-component_of_WINDS"},"data":[0.0,0.0,0.0,0.0,0.0,0.0,0.0,0.0,0.0,0.0,0.0,0.0,0.0,0.0,0.0,0.0,0.0,0.0,0.0,0.0,0.0,0.0,0.0,0.0,0.0,0.0,0.0,0.0,0.0,0.0,0.0,0.0,0.0,0.0,0.0,0.0,0.0,0.0,0.0,0.0,0.0,0.0,0.0,0.0,0.0,0.0,0.0,0.0,0.0,0.0,0.0,0.0,0.0,0.0,0.0,0.0,0.0,0.0,0.0,0.0,0.0,0.0,0.0,0.0,0.0,0.0,0.0,0.0,0.0,0.0,0.0,0.0,0.0,0.0,0.0,0.0,0.0,0.0,0.0,0.0,0.0,0.0,0.0,0.0,0.0,0.0,0.0,0.0,0.0,0.0,0.0,0.0,0.0,0.0,0.0,0.0,0.0,0.0,0.0,0.0,0.0,0.0,0.0,0.0,0.0,0.0,0.0,0.0,0.0,0.0,0.0,0.0,0.0,0.0,0.0,0.0,0.0,0.0,0.0,0.0,0.0,0.0,0.0,0.0,0.0,0.0,0.0,0.0,0.0,0.0,0.0,0.0,0.0,0.0,0.0,0.0,0.0,0.0,0.0,0.0,0.0,0.0,0.0,0.0,0.0,0.0,0.0,0.0,0.0,0.0,0.0,0.0,0.0,0.0,0.0,0.0,0.0,0.0,0.0,0.0,0.0,0.0,0.0,0.0,0.0,0.0,0.0,0.0,0.0,0.0,0.0,0.0,0.0,0.0,0.0,0.0,0.0,0.0,0.0,0.0,0.0,0.0,0.0,0.0,0.0,0.0,0.0,0.0,0.0,0.0,0.0,0.0,0.0,0.0,0.0,0.0,0.0,0.0,0.0,0.0,0.0,0.0,0.0,0.0,0.0,0.0,0.0,0.0,0.0,0.0,0.0,0.0,0.0,0.0,0.0,0.0,0.0,0.0,0.0,0.0,0.0,0.0,0.0,0.0,0.0,0.0,0.0,0.0,0.0,0.0,0.0,0.0,0.0,0.0,0.0,0.0,0.0,0.0,0.0,0.0,0.0,0.0,0.0,0.0,0.0,0.0,0.0,0.0,0.0,0.0,0.0,0.0,0.0,0.0,0.0,0.0,0.0,0.0,0.0,0.0,0.0,0.0,0.0,0.0,0.0,0.0,0.0,0.0,0.0,0.0,0.0,0.0,0.0,0.0,0.0,0.0,0.0,0.0,0.0,0.0,0.0,0.0,0.0,0.0,0.0,0.0,0.0,0.0,0.0,0.0,0.0,0.0,0.0,0.0,0.0,0.0,0.0,0.0,0.0,0.0,0.0,0.0,0.0,0.0,0.0,0.0,0.0,0.0,0.0,0.0,0.0,0.0,0.0,0.0,0.0,0.0,0.0,0.0,0.0,0.0,0.0,0.0,0.0,0.0,0.0,0.0,0.0,0.0,0.0,0.0,0.0,0.0,0.0,0.0,0.0,0.0,0.0,0.0,0.0,0.0,0.0,0.0,0.0,0.0,0.0,0.0,0.0,0.0,0.0,0.0,0.0,0.0,0.0,0.0,0.0,0.0,0.0,0.0,0.0,0.0,0.0,0.0,0.0,0.0,0.0,0.0,0.0,0.0,0.0,0.0,0.0,0.0,0.0,0.0,0.0,0.0,0.0,0.0,0.0,0.0,0.0,0.0,0.0,0.0,0.0,0.0,0.0,0.0,0.0,0.0,0.0,0.0,0.0,0.0,0.0,0.0,0.0,0.0,0.0,0.0,0.0,0.0,0.0,0.0,0.0,0.0,0.0,0.0,0.0,0.0,0.0,0.0,0.0,0.0,0.0,0.0,0.0,0.0,0.0,0.0,0.0,0.0,0.0,0.0,0.0,0.0,0.0,0.0,0.0,0.0,0.0,0.0,0.0,0.0,0.0,0.0,0.0,0.0,0.0,0.0,0.0,0.0,0.0,0.0,0.0,0.0,0.0,0.0,0.0,0.0,0.0,0.0,0.0,0.0,0.0,0.0,0.0,0.0,0.0,0.0,0.0,0.0,0.0,0.0,0.0,0.0,0.0,0.0,0.0,0.0,0.0,0.0,0.0,0.0,0.0,0.0,0.0,0.0,0.0,0.0,0.0,0.0,0.0,0.0,0.0,0.0,0.0,0.0,0.0,0.0,0.0,0.0,0.0,0.0,0.0,0.0,0.0,0.0,0.0,0.0,0.0,0.0,0.0,0.0,0.0,0.0,0.0,0.0,0.0,0.0,0.0,0.0,0.0,0.0,0.0,0.0,0.0,0.0,0.0,0.0,0.0,0.0,0.0,0.0,0.0,0.0,0.0,0.0,0.0,0.0,0.0,0.0,0.0,0.0,0.0,0.0,0.0,0.0,0.0,0.0,0.0,0.0,0.0,0.0,0.0,0.0,0.0,0.0,0.0,0.0,0.0,0.0,0.0,0.0,0.0,0.0,0.0,0.0,0.0,0.0,0.0,0.0,0.0,0.0,0.0,0.0,0.0,0.0,0.0,0.0,0.0,0.0,0.0,0.0,0.0,0.0,0.0,0.0,0.0,0.0,0.0,0.0,0.0,0.0,0.0,0.0,0.0,0.0,0.0,0.0,0.0,0.0,0.0,0.0,0.0,0.0,0.0,0.0,0.0,0.0,0.0,0.0,0.0,0.0,0.0,0.0,0.0,0.0,0.0,0.0,0.0,0.0,0.0,0.0,0.0,0.0,0.0,0.0,0.0,0.0,0.0,0.0,0.0,0.0,0.0,0.0,0.0,0.0,0.0,0.0,0.0,0.0,0.0,0.0,0.0,0.0,0.0,0.0,0.0,0.0,0.0,0.0,0.0,0.0,0.0,0.0,0.0,0.0,0.0,0.0,0.0,0.0,0.0,0.0,0.0,0.0,0.0,0.0,0.0,0.0,0.0,0.0,0.0,0.0,0.0,0.0,0.0,0.0,0.0,0.0,0.0,0.0,0.0,0.0,0.0,0.0,0.0,0.0,0.0,0.0,0.0,0.0,0.0,0.0,0.0,0.0,0.0,0.0,0.0,0.0,0.0,0.0,0.0,0.0,0.0,0.0,0.0,0.0,0.0,0.0,0.0,0.0,0.0,0.0,0.0,0.0,0.0,0.0,0.0,0.0,0.0,0.0,0.0,0.0,0.0,0.0,0.0,0.0,0.0,0.0,0.0,0.0,0.0,0.0,0.0,0.0,0.0,0.0,0.0,0.0,0.0,0.0,0.0,0.0,0.0,0.0,0.0,0.0,0.0,0.0,0.0,0.0,0.0,0.0,0.0,0.0,0.0,0.0,0.0,0.0,0.0,0.0,0.0,0.0,0.0,0.0,0.0,0.0,0.0,0.0,0.0,0.0,0.0,0.0,0.0,0.0,0.0,0.0,0.0,0.0,0.0,0.0,0.0,0.0,0.0,0.0,0.0,0.0,0.0,0.0,0.0,0.0,0.0,0.0,0.0,0.0,0.0,0.0,0.0,0.0,0.0,0.0,0.0,0.0,0.0,0.0,0.0,0.0,0.0,0.0,0.0,0.0,0.0,0.0,0.0,0.0,0.0,0.0,0.0,0.0,0.0,0.0,0.0,0.0,0.0,0.0,0.0,0.0,0.0,0.0,0.0,0.0,0.0,0.0,0.0,0.0,0.0,0.0,0.0,0.0,0.0,0.0,0.0,0.0,0.0,0.0,0.0,0.0,0.0,0.0,0.0,0.0,0.0,0.0,0.0,0.0,0.0,0.0,0.0,0.0,0.0,0.0,0.0,0.0,0.0,0.0,0.0,0.0,0.0,0.0,0.0,0.0,0.0,0.0,0.0,0.0,0.0,0.0,0.0,0.0,0.0,0.0,0.0,0.0,0.0,0.0,0.0,0.0,0.0,0.0,0.0,0.0,0.0,0.0,0.0,0.0,0.0,0.0,0.0,0.0,0.0,0.0,0.0,0.0,0.0,0.0,0.0,0.0,0.0,0.0,0.0,0.0,0.0,0.0,0.0,0.0,0.0,0.0,0.0,0.0,0.0,0.0,0.0,0.0,0.0,0.0,0.0,0.0,0.0,0.0,0.0,0.0,0.0,0.0,0.0,0.0,0.0,0.0,0.0,0.0,0.0,0.0,0.0,0.0,0.0,0.0,0.0,0.0,0.0,0.0,0.0,0.0,0.0,0.0,0.0,0.0,0.0,0.0,0.0,0.0,0.0,0.0,0.0,0.0,0.0,0.0,0.0,0.0,0.0,0.0,0.0,0.0,0.0,0.0,0.0,0.0,-0.1109,0.0,0.0,0.0,0.0,0.0,0.0,0.0,0.0,0.0,0.0,0.0,0.0,0.0,0.0,0.0,0.0,0.0,0.0,0.0,0.0,0.0,0.0,0.0,0.0,0.0,0.0,0.0,0.0,0.0,0.0,0.0,0.0,0.0,0.0,0.0,0.0,0.0,0.0,0.0,0.0,0.0,0.0,0.0,0.0,0.0,0.0,0.0,0.0,0.0,0.0,0.0,0.0,0.0,0.0,0.0,0.0,0.0,0.0,0.0,0.0,0.0,0.0,0.0,0.0,0.0,0.0,0.0,0.0,0.0,0.0,0.0,0.0,0.0,0.0,0.0,0.0,0.0,0.0,0.0,0.0,0.0,0.0,0.0,0.0,0.0,0.0,0.0,0.0,0.0,0.0,0.0,0.0,0.0,0.0,0.0,0.0,0.0,0.0,0.0,0.0,0.0,0.0,0.0,0.0,0.0,0.0,0.0,0.0,0.0,0.0,-0.0438,-0.054,-0.0708,-0.0843,-0.0909,0.0,0.0,0.0,0.0,0.0,0.0,0.0,0.0,0.0,0.0,0.0,0.0,0.0,0.0,0.0,0.0,0.0,0.0,0.0,0.0,0.0,0.0,0.0,0.0,0.0,0.0,0.0,0.0,0.0,0.0,0.0,0.0,0.0,0.0,0.0,0.0,0.0,0.0,0.0,0.0,0.0,0.0,0.0,0.0,0.0,0.0,0.0,0.0,0.0,0.0,0.0,0.0,0.0,0.0,0.0,0.0,0.0,0.0,0.0,0.0,0.0,0.0,0.0,0.0,0.0,0.0,0.0,0.0,0.0,0.0,0.0,0.0,0.0,0.0,0.0,0.0,0.0,0.0,0.0,0.0,0.0,0.0,0.0,0.0,0.0,0.0,0.0,0.0,0.0,0.0,0.0,0.0,0.0,0.0,0.0,0.0,0.0,0.0,0.0,0.0,0.0,0.0,0.0,0.0,0.0,0.0,0.0,0.0,0.0,0.0,0.0,0.0,-0.0578,-0.078,-0.0876,0.0,0.0,0.0,0.0,0.0,0.0,0.0,0.0,0.0,0.0,0.0,0.0,0.0,0.0,0.0,0.0,0.0,0.0,0.0,0.0,0.0,0.0,0.0,0.0,0.0,0.0,0.0,0.0,0.0,0.0,0.0,0.0,0.0,0.0,0.0,0.0,0.0,0.0,0.0,0.0,0.0,0.0,0.0,0.0,0.0,0.0,0.0,0.0,0.0,0.0,0.0,0.0,0.0,0.0,0.0,0.0,0.0,0.0,0.0,0.0,0.0,0.0,0.0,0.0,0.0,0.0,0.0,0.0,0.0,0.0,0.0,0.0,0.0,0.0,0.0,0.0,0.0,0.0,0.0,0.0,0.0,0.0,0.0,0.0,0.0,0.0,0.0,0.0,0.0,0.0,0.0,0.0,0.0,0.0,0.0,0.0,0.0,0.0,0.0,0.0,0.0,0.0,0.0,0.0,0.0,0.0,0.0,0.0,0.0,0.0,-0.0107,-0.0314,-0.0453,0.0,-0.1045,0.0,0.0,0.0,0.0,0.0,0.0,0.0,0.0,0.0,0.0,0.0,0.0,0.0,0.0,0.0,0.0,0.0,0.0,0.0,0.0,0.0,0.0,0.0,0.0,0.0,0.0,0.0,0.0,0.0,0.0,0.0,0.0,0.0,0.0,0.0,0.0,0.0,0.0,0.0,0.0,0.0,0.0,0.0,0.0,0.0,0.0,0.0,0.0,0.0,0.0,0.0,0.0,0.0,0.0,0.0,0.0,0.0,0.0,0.0,0.0,0.0,0.0,0.0,0.0,0.0,0.0,0.0,0.0,0.0,0.0,0.0,0.0,0.0,0.0,0.0,0.0,0.0,0.0,0.0,0.0,0.0,0.0,0.0,0.0,0.0,0.0,0.0,0.0,0.0,0.0,0.0,0.0,0.0,0.0,0.0,0.0,0.0,0.0,0.0,0.0,0.0,0.0,0.0,0.0,0.0,0.0,0.0,0.0,0.0,0.0,-0.0036,-0.014,-0.038,-0.0681,0.0,0.0,0.0,0.0,0.0,0.0,0.0,0.0,0.0,0.0,0.0,0.0,0.0,0.0,0.0,0.0,0.0,0.0,0.0,0.0,0.0,0.0,0.0,0.0,0.0,0.0,0.0,0.0,0.0,0.0,0.0,0.0,0.0,0.0,0.0,0.0,0.0,0.0,0.0,0.0,0.0,0.0,0.0,0.0,0.0,0.0,0.0,0.0,0.0,0.0,0.0,0.0,0.0,0.0,0.0,0.0,0.0,0.0,0.0,0.0,0.0,0.0,0.0,0.0,0.0,0.0,0.0,0.0,0.0,0.0,0.0,0.0,0.0,0.0,0.0,0.0,0.0,0.0,0.0,0.0,0.0,0.0,0.0,0.0,0.0,0.0,0.0,0.0,0.0,0.0,0.0,0.0,0.0,0.0,0.0,0.0,0.0,0.0,0.0,0.0,0.0,0.0,0.0,0.0,0.0,0.0,0.0,0.0,0.0,0.0,0.0145,0.0109,0.0,-0.0308,-0.0638,-0.0998,0.0,0.0,0.0,0.0,0.0,0.0,0.0,0.0,0.0,0.0,0.0,0.0,0.0,0.0,0.0,0.0,0.0,0.0,0.0,0.0,0.0,0.0,0.0,0.0,0.0,0.0,0.0,0.0,0.0,0.0,0.0,0.0,0.0,0.0,0.0,0.0,0.0,0.0,0.0,0.0,0.0,0.0,0.0,0.0,0.0,0.0,0.0,0.0,0.0,0.0,0.0,0.0,0.0,0.0,0.0,0.0,0.0,0.0,0.0,0.0,0.0,0.0,0.0,0.0,0.0,0.0,0.0,0.0,0.0,0.0,0.0,0.0,0.0,0.0,0.0,0.0,0.0,0.0,0.0,0.0,0.0,0.0,0.0,0.0,0.0,0.0,0.0,0.0,0.0,0.0,0.0,0.0,0.0,0.0,0.0,0.0,0.0,0.0,0.0,0.0,0.0,0.0,0.0,0.0,0.0,0.0,0.0,0.0,0.0291,0.0484,0.0406,0.0035,-0.0205,-0.0466,0.0,0.0,0.0,0.0,0.0,0.0,0.0,0.0,0.0,0.0,0.0,0.0,0.0,0.0,0.0,0.0,0.0,0.0,0.0,0.0,0.0,0.0,0.0,0.0,0.0,0.0,0.0,0.0,0.0,0.0,0.0,0.0,0.0,0.0,0.0,0.0,0.0,0.0,0.0,0.0,0.0,0.0,0.0,0.0,0.0,0.0,0.0,0.0,0.0,0.0,0.0,0.0,0.0,0.0,0.0,0.0,0.0,0.0,0.0,0.0,0.0,0.0,0.0,0.0,0.0,0.0,0.0,0.0,0.0,0.0,0.0,0.0,0.0,0.0,0.0,0.0,0.0,0.0,0.0,0.0,0.0,0.0,0.0,0.0,0.0,0.0,0.0,0.0,0.0,0.0,0.0,0.0,0.0,0.0,0.0,0.0,0.0,0.0,0.0,0.0,0.0,0.0,0.0,0.0,0.0,0.0,0.0,0.0,0.0,0.0817,0.1291,0.132,0.0841,0.0444,0.0,0.0,0.0,0.0,0.0,0.0,0.0,0.0,0.0,0.0,0.0,0.0,0.0,0.0,0.0,0.0,0.0,0.0,0.0,0.0,0.0,0.0,0.0,0.0,0.0,0.0,0.0,0.0,0.0,0.0,0.0,0.0,0.0,0.0,0.0,0.0,0.0,0.0,0.0,0.0,0.0,0.0,0.0,0.0,0.0,0.0,0.0,0.0,0.0,0.0,0.0,0.0,0.0,0.0,0.0,0.0,0.0,0.0,0.0,0.0,0.0,0.0,0.0,0.0,0.0,0.0,0.0,0.0,0.0,0.0,0.0,0.0,0.0,0.0,0.0,0.0,0.0,0.0,0.0,0.0,0.0,0.0,0.0,0.0,0.0,0.0,0.0,0.0,0.0,0.0,0.0,0.0,0.0,0.0,0.0,0.0,0.0,0.0,0.0,0.0,0.0,0.0,0.0,0.0,0.0,0.0,0.0,0.0,0.0,0.0,0.1541,0.0,0.2075,0.1487,0.0993,0.05,0.0,0.0,0.0,0.0,0.0,0.0,0.0,0.0,0.0,0.0,0.0,0.0,0.0,0.0,0.0,0.0,0.0,0.0,0.0,0.0,0.0,0.0,0.0,0.0,0.0,0.0,0.0,0.0,0.0,0.0,0.0,0.0,0.0,0.0,0.0,0.0,0.0,0.0,0.0,0.0,0.0,0.0,0.0,0.0,0.0,0.0,0.0,0.0,0.0,0.0,0.0,0.0,0.0,0.0,0.0,0.0,0.0,0.0,0.0,0.0,0.0,0.0,0.0,0.0,0.0,0.0,0.0,0.0,0.0,0.0,0.0,0.0,0.0,0.0,0.0,0.0,0.0,0.0,0.0,0.0,0.0,0.0,0.0,0.0,0.0,0.0,0.0,0.0,0.0,0.0,0.0,0.0,0.0,0.0,0.0,0.0,0.0,0.0,0.0,0.0,0.0,0.0,0.0,0.0,0.0,0.0,0.0,0.0,0.1788,0.2486,0.28,0.263,0.1959,0.1555,0.0944,0.0,0.0,0.0,0.0,0.0,0.0,0.0,0.0,0.0,0.0,0.0,0.0,0.0,0.0,0.0,0.0,0.0,0.0,0.0,0.0,0.0,0.0,0.0,0.0,0.0,0.0,0.0,0.0,0.0,0.0,0.0,0.0,0.0,0.0,0.0,0.0,0.0,0.0,0.0,0.0,0.0,0.0,0.0,0.0,0.0,0.0,0.0,0.0,0.0,0.0,0.0,0.0,0.0,0.0,0.0,0.0,0.0,0.0,0.0,0.0,0.0,0.0,0.0,0.0,0.0,0.0,0.0,0.0,0.0,0.0,0.0,0.0,0.0,0.0,0.0,0.0,0.0,0.0,0.0,0.0,0.0,0.0,0.0,0.0,0.0,0.0,0.0,0.0,0.0,0.0,0.0,0.0,0.0,0.0,0.0,0.0,0.0,0.0,0.0,0.0,0.0,0.0,0.0,0.0,0.0,0.0,0.0,0.0,0.0,0.3326,0.3875,0.3862,0.3234,0.2533,0.1852,0.0,0.0,0.0,0.0,0.0,0.0,0.0,0.0,0.0,0.0,0.0,0.0,0.0,0.0,0.0,0.0,0.0,0.0,0.0,0.0,0.0,0.0,0.0,0.0,0.0,0.0,0.0,0.0,0.0,0.0,0.0,0.0,0.0,0.0,0.0,0.0,0.0,0.0,0.0,0.0,0.0,0.0,0.0,0.0,0.0,0.0,0.0,0.0,0.0,0.0,0.0,0.0,0.0,0.0,0.0,0.0,0.0,0.0,0.0,0.0,0.0,0.0,0.0,0.0,0.0,0.0,0.0,0.0,0.0,0.0,0.0,0.0,0.0,0.0,0.0,0.0,0.0,0.0,0.0,0.0,0.0,0.0,0.0,0.0,0.0,0.0,0.0,0.0,0.0,0.0,0.0,0.0,0.0,0.0,0.0,0.0,0.0,0.0,0.0,0.0,0.0,0.0,0.0,0.0,0.0,0.0,0.0,0.0,0.0,0.4299,0.4659,0.4547,0.3877,0.3195,0.2398,0.1516,0.0,0.0,0.0,0.0,0.0,0.0,0.0,0.0,0.0,0.0,0.0,0.0,0.0,0.0,0.0,0.0,0.0,0.0,0.0,0.0,0.0,0.0,0.0,0.0,0.0,0.0,0.0,0.0,0.0,0.0,0.0,0.0,0.0,0.0,0.0,0.0,0.0,0.0,0.0,0.0,0.0,0.0,0.0,0.0,0.0,0.0,0.0,0.0,0.0,0.0,0.0,0.0,0.0,0.0,0.0,0.0,0.0,0.0,0.0,0.0,0.0,0.0,0.0,0.0,0.0,0.0,0.0,0.0,0.0,0.0,0.0,0.0,0.0,0.0,0.0,0.0,0.0,0.0,0.0,0.0,0.0,0.0,0.0,0.0,0.0,0.0,0.0,0.0,0.0,0.0,0.0,0.0,0.0,0.0,0.0,0.0,0.0,0.0,0.0,0.0,0.0,0.0,0.0,0.0,0.0,0.0,0.0,0.0,0.5214,0.5224,0.4875,0.408,0.3525,0.2709,0.0,0.0,0.0,0.0,0.0,0.0,0.0,0.0,0.0,0.0,0.0,0.0,0.0,0.0,0.0,0.0,0.0,0.0,0.0,0.0,0.0,0.0,0.0,0.0,0.0,0.0,0.0,0.0,0.0,0.0,0.0,0.0,0.0,0.0,0.0,0.0,0.0,0.0,0.0,0.0,0.0,0.0,0.0,0.0,0.0,0.0,0.0,0.0,0.0,0.0,0.0,0.0,0.0,0.0,0.0,0.0,0.0,0.0,0.0,0.0,0.0,0.0,0.0,0.0,0.0,0.0,0.0,0.0,0.0,0.0,0.0,0.0,0.0,0.0,0.0,0.0,0.0,0.0,0.0,0.0,0.0,0.0,0.0,0.0,0.0,0.0,0.0,0.0,0.0,0.0,0.0,0.0,0.0,0.0,0.0,0.0,0.0,0.0,0.0,0.0,0.0,0.0,0.0,0.0,0.0,0.0,0.0,0.0,0.0,0.5578,0.567,0.5346,0.4548,0.3994,0.3271,0.0,0.0,0.0,0.0,0.0,0.0,0.0,0.0,0.0,0.0,0.0,0.0,0.0,0.0,0.0,0.0,0.0,0.0,0.0,0.0,0.0,0.0,0.0,0.0,0.0,0.0,0.0,0.0,0.0,0.0,0.0,0.0,0.0,0.0,0.0,0.0,0.0,0.0,0.0,0.0,0.0,0.0,0.0,0.0,0.0,0.0,0.0,0.0,0.0,0.0,0.0,0.0,0.0,0.0,0.0,0.0,0.0,0.0,0.0,0.0,0.0,0.0,0.0,0.0,0.0,0.0,0.0,0.0,0.0,0.0,0.0,0.0,0.0,0.0,0.0,0.0,0.0,0.0,0.0,0.0,0.0,0.0,0.0,0.0,0.0,0.0,0.0,0.0,0.0,0.0,0.0,0.0,0.0,0.0,0.0,0.0,0.0,0.0,0.0,0.0,0.0,0.0,0.0,0.0,0.0,0.0,0.0,0.0,0.5442,0.5753,0.5969,0.5726,0.508,0.4444,0.3644,0.0,0.0,0.0,0.0,0.0,0.0,0.0,0.0,0.0,0.0,0.0,0.0,0.0,0.0,0.0,0.0,0.0,0.0,0.0,0.0,0.0,0.0,0.0,0.0,0.0,0.0,0.0,0.0,0.0,0.0,0.0,0.0,0.0,0.0,0.0,0.0,0.0,0.0,0.0,0.0,0.0,0.0,0.0,0.0,0.0,0.0,0.0,0.0,0.0,0.0,0.0,0.0,0.0,0.0,0.0,0.0,0.0,0.0,0.0,0.0,0.0,0.0,0.0,0.0,0.0,0.0,0.0,0.0,0.0,0.0,0.0,0.0,0.0,0.0,0.0,0.0,0.0,0.0,0.0,0.0,0.0,0.0,0.0,0.0,0.0,0.0,0.0,0.0,0.0,0.0,0.0,0.0,0.0,0.0,0.0,0.0,0.0,0.0,0.0,0.0,0.0,0.0,0.0,0.0,0.0,0.0,0.0,0.0,0.5597,0.595,0.617,0.6091,0.564,0.4801,0.3921,0.0,0.0,0.0,0.0,0.0,0.0,0.0,0.0,0.0,0.0,0.0,0.0,0.0,0.0,0.0,0.0,0.0,0.0,0.0,0.0,0.0,0.0,0.0,0.0,0.0,0.0,0.0,0.0,0.0,0.0,0.0,0.0,0.0,0.0,0.0,0.0,0.0,0.0,0.0,0.0,0.0,0.0,0.0,0.0,0.0,0.0,0.0,0.0,0.0,0.0,0.0,0.0,0.0,0.0,0.0,0.0,0.0,0.0,0.0,0.0,0.0,0.0,0.0,0.0,0.0,0.0,0.0,0.0,0.0,0.0,0.0,0.0,0.0,0.0,0.0,0.0,0.0,0.0,0.0,0.0,0.0,0.0,0.0,0.0,0.0,0.0,0.0,0.0,0.0,0.0,0.0,0.0,0.0,0.0,0.0,0.0,0.0,0.0,0.0,0.0,0.0,0.0,0.0,0.0,0.0,0.0,0.0,0.0,0.5961,0.6312,0.6374,0.6231,0.5987,0.5185,0.4402,0.0,0.0,0.0,0.0,0.0,0.0,0.0,0.0,0.0,0.0,0.0,0.0,0.0,0.0,0.0,0.0,0.0,0.0,0.0,0.0,0.0,0.0,0.0,0.0,0.0,0.0,0.0,0.0,0.0,0.0,0.0,0.0,0.0,0.0,0.0,0.0,0.0,0.0,0.0,0.0,0.0,0.0,0.0,0.0,0.0,0.0,0.0,0.0,0.2854,0.0,0.0,0.0,0.0,0.0,0.0,0.0,0.0,0.0,0.0,0.0,0.0,0.0,0.0,0.0,0.0,0.0,0.0,0.0,0.0,0.0,0.0,0.0,0.0,0.0,0.0,0.0,0.0,0.0,0.0,0.0,0.0,0.0,0.0,0.0,0.0,0.0,0.0,0.0,0.0,0.0,0.0,0.0,0.0,0.0,0.0,0.0,0.0,0.0,0.0,0.0,0.0,0.0,0.0,0.0,0.0,0.0,0.0,0.0,0.6162,0.651,0.6578,0.6479,0.6311,0.5821,0.5074,0.0,0.0,0.0,0.0,0.0,0.0,0.0,0.0,0.0,0.0,0.0,0.0,0.0,0.0,0.0,0.0,0.0,0.0,0.0,0.0,0.0,0.0,0.0,0.0,0.0,0.0,0.0,0.0,0.0,0.0,0.0,0.0,0.0,0.0,0.0,0.0,0.0,0.0,0.0,0.0,0.0,0.0,0.0,0.0,0.0,0.0,0.0,0.0,0.0,0.0,0.0,0.0,0.0,0.0,0.0,0.0,0.0,0.0,0.0,0.0,0.0,0.0,0.0,0.0,0.0,0.0,0.0,0.0,0.0,0.0,0.0,0.0,0.0,0.0,0.0,0.0,0.0,0.0,0.0,0.0,0.0,0.0,0.0,0.0,0.0,0.0,0.0,0.0,0.0,0.0,0.0,0.0,0.0,0.0,0.0,0.0,0.0,0.0,0.0,0.0,0.0,0.0,0.0,0.0,0.0,0.0,0.0,0.5986,0.6331,0.6662,0.6777,0.6771,0.6646,0.6401,0.5719,0.4457,0.0,0.0,0.0,0.0,0.0,0.0,0.0,0.0,0.0,0.0,0.0,0.0,0.0,0.0,0.0,0.0,0.0,0.0,0.0,0.0,0.0,0.0,0.0,0.0,0.0,0.0,0.0,0.0,0.0,0.0,0.0,0.0,0.0,0.0,0.0,0.0,0.0,0.0,0.4322,0.4561,0.0,0.0,0.0,0.0,0.0,0.0,0.0,0.0,0.3078,0.0,0.0,0.0,0.0,0.0,0.0,0.0,0.0,0.0,0.0,0.0,0.0,0.0,0.0,0.0,0.0,0.0,0.0,0.0,0.0,0.0,0.0,0.0,0.0,0.0,0.0,0.0,0.0,0.0,0.0,0.0,0.0,0.0,0.0,0.0,0.0,0.0,0.0,0.0,0.0,0.0,0.0,0.0,0.0,0.0,0.0,0.0,0.0,0.0,0.0,0.0,0.0,0.0,0.0,0.0,0.0,0.5994,0.635,0.666,0.6918,0.6945,0.6899,0.6768,0.6495,0.59,0.4996,0.0,0.0,0.0,0.0,0.0,0.0,0.0,0.0,0.0,0.0,0.0,0.0,0.0,0.0,0.0,0.0,0.0,0.0,0.0,0.0,0.0,0.0,0.0,0.0,0.0,0.0,0.0,0.0,0.0,0.0,0.0,0.0,0.0,0.0,0.0,0.0,0.0,0.0,0.0,0.4812,0.4889,0.0,0.0,0.0,0.0,0.0,0.0,0.0,0.0,0.3275,0.0,0.0,0.0,0.0,0.0,0.0,0.0,0.0,0.0,0.0,0.0,0.0,0.0,0.0,0.0,0.0,0.0,0.0,0.0,0.0,0.0,0.0,0.0,0.0,0.0,0.0,0.0,0.0,0.0,0.0,0.0,0.0,0.0,0.0,0.0,0.0,0.0,0.0,0.0,0.0,0.0,0.0,0.0,0.0,0.0,0.0,0.0,0.0,0.0,0.0,0.0,0.0,0.0,0.0,0.0,0.6086,0.6499,0.6831,0.7117,0.7128,0.6989,0.6801,0.6456,0.5958,0.0,0.0,0.0,0.0,0.0,0.0,0.0,0.0,0.0,0.0,0.0,0.0,0.0,0.0,0.0,0.0,0.0,0.0,0.0,0.0,0.0,0.0,0.0,0.0,0.0,0.0,0.0,0.0,0.0,0.0,0.0,0.0,0.0,0.0,0.0,0.0,0.0,0.0,0.0,0.0,0.5339,0.5554,0.5128,0.0,0.0,0.0,0.0,0.0,0.0,0.4386,0.4211,0.0,0.0,0.0,0.0,0.0,0.0,0.0,0.0,0.0,0.0,0.0,0.0,0.0,0.0,0.0,0.0,0.0,0.0,0.0,0.0,0.0,0.0,0.0,0.0,0.0,0.0,0.0,0.0,0.0,0.0,0.0,0.0,0.0,0.0,0.0,0.0,0.0,0.0,0.0,0.0,0.0,0.0,0.0,0.0,0.0,0.0,0.0,0.0,0.0,0.0,0.0,0.0,0.0,0.0,0.0,0.6127,0.6573,0.6918,0.7196,0.721,0.7084,0.6771,0.6442,0.5984,0.0,0.0,0.0,0.0,0.0,0.0,0.0,0.0,0.0,0.0,0.0,0.0,0.0,0.0,0.0,0.0,0.0,0.0,0.0,0.0,0.0,0.0,0.0,0.0,0.0,0.0,0.0,0.0,0.0,0.0,0.0,0.0,0.0,0.0,0.0,0.0,0.0,0.0,0.0,0.0,0.0,0.6405,0.5786,0.59,0.0,0.0,0.0,0.0,0.5216,0.5332,0.0,0.0,0.0,0.0,0.0,0.0,0.0,0.0,0.0,0.0,0.0,0.0,0.0,0.0,0.0,0.0,0.0,0.0,0.0,0.0,0.0,0.0,0.0,0.0,0.0,0.0,0.0,0.0,0.0,0.0,0.0,0.0,0.0,0.0,0.0,0.0,0.0,0.0,0.0,0.0,0.0,0.0,0.0,0.0,0.0,0.0,0.0,0.0,0.0,0.0,0.0,0.0,0.0,0.0,0.0,0.0,0.6289,0.6613,0.6915,0.7196,0.721,0.6991,0.6651,0.6399,0.595,0.0,0.0,0.0,0.0,0.0,0.0,0.0,0.0,0.0,0.0,0.0,0.0,0.0,0.0,0.0,0.0,0.0,0.0,0.0,0.0,0.0,0.0,0.0,0.0,0.0,0.0,0.0,0.0,0.0,0.0,0.0,0.0,0.0,0.0,0.0,0.0,0.0,0.0,0.0,0.0,0.0,0.7134,0.6786,0.6787,0.6753,0.0,0.0,0.6258,0.6292,0.6136,0.0,0.0,0.0,0.0,0.0,0.0,0.0,0.0,0.0,0.0,0.0,0.0,0.0,0.0,0.0,0.0,0.0,0.0,0.0,0.0,0.0,0.0,0.0,0.0,0.0,0.0,0.0,0.0,0.0,0.0,0.0,0.0,0.0,0.0,0.0,0.0,0.0,0.0,0.0,0.0,0.0,0.0,0.0,0.0,0.0,0.0,0.0,0.0,0.0,0.0,0.0,0.0,0.0,0.0,0.0,0.571,0.6162,0.6586,0.6918,0.7196,0.7147,0.6885,0.6524,0.6159,0.5699,0.0,0.0,0.0,0.0,0.0,0.0,0.0,0.0,0.0,0.0,0.0,0.0,0.0,0.0,0.0,0.0,0.0,0.0,0.0,0.0,0.0,0.0,0.0,0.0,0.0,0.0,0.0,0.0,0.0,0.0,0.0,0.0,0.0,0.0,0.0,0.0,0.0,0.0,0.0,0.0,0.0,0.0,0.7987,0.7991,0.0,0.0,0.0,0.7212,0.7119,0.0,0.0,0.0,0.0,0.0,0.0,0.0,0.0,0.0,0.0,0.0,0.0,0.0,0.0,0.0,0.0,0.0,0.0,0.0,0.0,0.0,0.0,0.0,0.0,0.0,0.0,0.0,0.0,0.0,0.0,0.0,0.0,0.0,0.0,0.0,0.0,0.0,0.0,0.0,0.0,0.0,0.0,0.0,0.0,0.0,0.0,0.0,0.0,0.0,0.0,0.0,0.0,0.0,0.0,0.0,0.0,0.0,0.6086,0.6559,0.6918,0.7196,0.7043,0.6812,0.6395,0.5961,0.0,0.0,0.0,0.0,0.0,0.0,0.0,0.0,0.0,0.0,0.0,0.0,0.0,0.0,0.0,0.0,0.0,0.0,0.0,0.0,0.0,0.0,0.0,0.0,0.0,0.0,0.0,0.5463,0.0,0.0,0.0,0.0,0.0,0.0,0.0,0.0,0.0,0.0,0.0,0.0,0.0,0.0,0.9681,0.9194,0.9266,0.917,0.0,0.0,0.8346,0.8181,0.8267,0.8103,0.0,0.0,0.0,0.0,0.0,0.0,0.0,0.0,0.0,0.0,0.0,0.0,0.0,0.0,0.0,0.0,0.0,0.0,0.0,0.0,0.0,0.0,0.0,0.0,0.0,0.0,0.0,0.0,0.0,0.0,0.0,0.0,0.0,0.0,0.0,0.0,0.0,0.0,0.0,0.0,0.0,0.0,0.0,0.0,0.0,0.0,0.0,0.0,0.0,0.0,0.0,0.0,0.0,0.0,0.5659,0.6083,0.6559,0.6915,0.7196,0.7043,0.6812,0.6406,0.6039,0.5621,0.0,0.0,0.0,0.0,0.0,0.0,0.0,0.0,0.0,0.0,0.0,0.0,0.0,0.0,0.0,0.0,0.0,0.0,0.0,0.0,0.0,0.0,0.0,0.0,0.0,0.0,0.0,0.0,0.0,0.0,0.0,0.0,0.0,0.0,0.0,0.0,0.0,0.0,0.0,0.0,0.0,1.0878,1.0363,1.0585,1.0535,0.0,0.9822,0.9725,0.9552,0.9159,0.8615,0.7942,0.0,0.0,0.0,0.0,0.0,0.0,0.0,0.0,0.0,0.0,0.0,0.0,0.0,0.0,0.0,0.0,0.0,0.0,0.0,0.0,0.0,0.0,0.0,0.0,0.0,0.0,0.0,0.0,0.0,0.0,0.0,0.0,0.0,0.0,0.0,0.0,0.0,0.0,0.0,0.0,0.0,0.0,0.0,0.0,0.0,0.0,0.0,0.0,0.0,0.0,0.0,0.0,0.0,0.604,0.6555,0.702,0.7363,0.7574,0.7418,0.7119,0.6588,0.6215,0.5757,0.0,0.0,0.0,0.0,0.0,0.0,0.0,0.0,0.0,0.0,0.0,0.0,0.0,0.0,0.0,0.0,0.0,0.0,0.0,0.0,0.0,0.0,0.0,0.0,0.0,0.0,0.0,0.0,0.7246,0.728,0.7375,0.0,0.0,0.0,0.0,0.0,0.0,0.0,0.0,0.0,0.0,1.1827,1.1634,1.1682,0.0,0.0,1.0974,1.0752,1.0393,0.9938,0.935,0.8524,0.776,0.0,0.0,0.0,0.0,0.0,0.0,0.0,0.0,0.0,0.0,0.0,0.0,0.0,0.0,0.0,0.0,0.0,0.0,0.0,0.0,0.0,0.0,0.0,0.0,0.0,0.0,0.0,0.0,0.0,0.0,0.0,0.0,0.0,0.0,0.0,0.0,0.0,0.0,0.0,0.0,0.0,0.0,0.0,0.0,0.0,0.0,0.0,0.0,0.0,0.0,0.0,0.0,0.6455,0.6917,0.751,0.7858,0.799,0.7861,0.7562,0.7046,0.6645,0.6098,0.0,0.0,0.0,0.0,0.0,0.0,0.0,0.0,0.0,0.0,0.0,0.0,0.0,0.0,0.0,0.0,0.0,0.0,0.0,0.0,0.0,0.0,0.0,0.0,0.0,0.0,0.0,0.0,0.7784,0.7709,0.7639,0.0,0.0,0.0,0.0,0.0,0.0,0.0,0.0,0.0,0.0,1.2356,1.2476,1.26,1.2522,1.2249,1.2167,1.1852,1.1215,1.0642,0.999,0.919,0.0,0.0,0.0,0.0,0.0,0.0,0.0,0.0,0.0,0.0,0.0,0.0,0.0,0.0,0.0,0.0,0.0,0.0,0.0,0.0,0.0,0.0,0.0,0.0,0.0,0.0,0.0,0.4677,0.0,0.0,0.5158,0.0,0.0,0.0,0.0,0.0,0.0,0.0,0.0,0.0,0.0,0.0,0.0,0.0,0.0,0.0,0.0,0.0,0.0,0.0,0.0,0.0,0.0,0.6922,0.7328,0.796,0.833,0.842,0.8282,0.8113,0.7811,0.7328,0.6819,0.6222,0.0,0.0,0.0,0.0,0.0,0.0,0.0,0.0,0.0,0.0,0.0,0.0,0.0,0.0,0.0,0.0,0.0,0.0,0.0,0.0,0.0,0.0,0.0,0.0,0.0,0.0,0.8603,0.8429,0.8171,0.0,0.0,0.0,0.0,0.0,0.0,0.0,0.0,0.0,1.1345,1.194,1.2416,1.2774,1.3249,1.3483,1.3211,1.3353,1.3129,1.223,1.1312,1.0505,0.0,0.0,0.0,0.0,0.0,0.0,0.0,0.0,0.0,0.0,0.0,0.0,0.0,0.0,0.0,0.0,0.0,0.0,0.0,0.0,0.0,0.0,0.0,0.0,0.0,0.0,0.0,0.489,0.4983,0.0,0.0,0.0,0.0,0.0,0.0,0.0,0.0,0.0,0.0,0.0,0.6244,0.6207,0.0,0.0,0.0,0.0,0.0,0.0,0.0,0.0,0.0,0.0,0.0,0.0,0.8687,0.9259,0.9945,1.0357,1.0416,1.0361,1.004,0.9404,0.9137,0.8455,0.7249,0.0,0.0,0.0,0.0,0.0,0.0,0.0,0.0,0.0,0.0,0.0,0.0,0.0,0.0,0.0,0.0,0.0,0.0,0.0,0.0,0.0,0.0,0.0,0.0,0.0,0.7927,0.0,0.0,0.0,0.0,0.0,0.0,0.0,0.0,0.0,0.0,0.0,1.0689,1.1399,1.179,1.2348,1.3143,1.383,1.4276,0.0,0.0,0.0,0.0,0.0,0.0,0.0,0.0,0.0,0.0,0.0,0.0,0.0,0.0,1.1207,1.0373,1.0336,1.0448,1.0398,0.0,0.0,0.0,0.0,0.0,0.0,0.0,0.0,0.0,0.0,0.0,0.0,0.0,0.0,0.556,0.5532,0.5464,0.0,0.0,0.0,0.0,0.0,0.0,0.0,0.0,0.6729,0.6902,0.6895,0.6905,0.6947,0.0,0.6981,0.6797,0.0,0.0,0.0,0.0,0.0,0.0,0.0,0.0,0.9826,1.0468,1.1235,1.1636,1.1586,1.1586,1.1302,1.0767,1.0378,0.9564,0.8248,0.7645,0.7099,0.0,0.0,0.0,0.0,0.0,0.0,0.0,0.0,0.0,0.0,0.0,0.0,0.0,0.0,0.0,0.0,0.0,0.0,0.0,0.0,0.0,0.0,0.0,0.8106,0.0,0.0,0.0,0.0,0.0,0.0,0.0,0.0,0.0,1.0362,1.0756,1.1316,1.1917,1.2151,1.2721,1.3874,0.0,0.0,0.0,0.0,0.0,0.0,0.0,1.237,1.2177,1.179,1.179,1.2518,1.2959,1.3241,1.3355,0.0,0.0,1.215,1.1971,1.1984,1.1885,1.1599,1.1376,1.1286,1.154,1.1785,0.0,0.0,0.0,0.0,0.0,0.0,0.0,0.0,0.6489,0.6436,0.0,0.6129,0.0,0.0,0.0,0.0,0.6323,0.6573,0.0,0.0,0.7705,0.7892,0.7658,0.7899,0.7889,0.7631,0.76,0.7695,0.7797,0.721,0.0,0.0,0.0,0.0,0.0,0.0,1.0386,1.1093,1.1731,1.2078,1.2078,1.2078,1.2014,1.1758,1.1002,1.02,0.9338,0.8823,0.8223,0.7525,0.7233,0.0,0.0,0.0,0.0,0.0,0.0,0.0,0.0,0.0,0.0,0.0,0.0,0.0,0.0,0.0,0.0,0.0,0.0,0.0,0.0,0.9132,0.0,0.0,0.0,0.0,0.0,0.0,0.0,0.0,0.0,0.0,1.2029,1.1937,1.2164,1.2945,0.0,0.0,0.0,0.0,1.5808,1.6786,1.6657,1.6228,1.5684,1.4419,1.3569,1.3923,0.0,0.0,1.4865,1.4969,1.486,1.4845,1.4732,1.4484,1.4011,1.3646,1.3401,1.3136,1.3068,1.2853,1.2305,1.2631,1.3108,0.4346,0.0,0.0,0.0,0.0,0.6331,0.6694,0.7096,0.7152,0.7105,0.6944,0.6738,0.0,0.0,0.0,0.0,0.0,0.0,0.7186,0.7624,0.7864,0.8203,0.8523,0.8346,0.8396,0.8656,0.8273,0.8468,0.9122,0.891,0.8692,0.8458,0.0,0.0,0.0,0.0,1.1947,1.2503,1.3239,1.3619,1.3624,1.3673,1.3498,1.3292,1.2472,1.1775,1.1126,1.0437,0.9719,0.8946,0.8651,0.0,0.0,0.0,0.0,0.0,0.0,0.0,0.0,0.0,0.0,0.0,0.0,0.0,0.0,0.0,0.0,0.0,0.0,0.0,0.9343,0.9868,0.9947,0.0,0.0,0.0,0.0,0.0,0.0,0.0,0.0,0.0,1.4467,1.3786,1.3485,0.0,0.0,1.4475,1.536,1.585,1.6263,1.6667,1.6929,0.0,1.6312,1.5409,1.4948,1.5533,1.5826,1.6169,1.6872,1.6769,1.6508,1.6178,1.5927,1.5638,1.5222,1.4464,1.3955,1.3813,1.3724,1.3639,1.3445,1.3745,1.4105,0.6021,0.5778,0.6387,0.6876,0.733,0.7612,0.7909,0.8136,0.8151,0.8028,0.7806,0.747,0.7221,0.6953,0.6715,0.0,0.0,0.0,0.755,0.7821,0.8031,0.8343,0.8699,0.8884,0.9053,0.9309,0.9267,0.9507,1.0133,1.0448,1.045,1.018,0.0,0.0,1.1198,1.2046,1.2735,1.3278,1.3948,1.4298,1.4298,1.4298,1.4129,1.3755,1.3278,1.2681,1.1904,1.1321,1.0641,0.9859,0.9462,0.9023,0.0,0.0,0.0,0.0,0.0,0.0,0.0,0.0,0.0,0.0,0.0,0.808,0.7796,0.0,0.0,0.0,0.9223,0.9851,1.0239,1.1108,0.0,0.0,0.0,0.0,0.0,0.0,0.0,1.4411,1.5141,1.5817,1.6461,1.6085,1.5673,1.5352,1.5526,1.5918,1.6664,0.0,1.736,1.7719,1.7901,1.787,1.7517,1.6654,1.6122,1.6561,1.7136,1.7661,1.7925,1.7794,1.7485,1.7117,1.6742,1.6419,1.6201,1.5506,1.486,1.4589,1.4391,1.4297,1.4236,1.4547,1.4839,0.7448,0.7952,0.8149,0.8458,0.8878,0.9062,0.9255,0.9334,0.9191,0.9033,0.8682,0.8197,0.7811,0.7429,0.7255,0.0,0.7417,0.7699,0.7834,0.7855,0.814,0.8349,0.8528,0.9412,0.9801,0.97,1.0333,1.074,1.0935,1.1685,1.2188,1.2336,1.1584,1.1501,1.2117,1.2565,1.3019,1.3544,1.4045,1.4298,1.4346,1.4322,1.4032,1.3607,1.3529,1.302,1.2051,1.1718,1.1203,1.0428,0.988,0.9361,0.8836,0.0,0.0,0.0,0.0,0.0,0.0,0.0,0.0,0.0,0.0,0.0,0.0,0.0,0.0,0.8776,1.0451,0.0,1.1716,1.2729,0.0,0.0,0.0,1.2814,1.3308,1.4212,1.511,1.5933,0.0,0.0,1.7994,1.8398,1.8204,1.6985,1.7199,1.7726,1.8458,1.8503,1.8775,1.9406,1.9244,1.9004,1.8767,1.7825,1.706,1.7108,1.776,1.8155,1.8184,1.8105,1.7914,1.7503,1.7203,1.6901,1.6884,1.6544,1.6198,1.5589,1.5219,1.5026,1.4985,1.5197,1.5608,0.8635,0.9064,0.921,0.9071,0.8771,0.8801,0.8903,0.9039,0.9005,0.8882,0.8689,0.836,0.797,0.755,0.7621,0.7672,0.7716,0.7899,0.8048,0.8214,0.8235,0.8566,0.9102,0.9776,1.0212,1.0467,1.0923,1.1298,1.1706,1.1984,1.2355,1.2893,1.2892,1.2986,1.3141,1.3245,1.3483,1.3809,1.4129,1.4394,1.458,1.4341,1.4269,1.4331,1.3755,1.3203,1.2773,1.2249,1.1671,1.1087,1.0764,1.0335,0.9788,0.9284,0.0,0.0,0.0,0.0,0.0,0.0,0.0,0.0,0.0,0.8343,0.845,0.0,0.9296,0.0,1.1483,1.2904,1.3593,1.4358,0.0,0.0,1.471,1.4877,1.5419,1.6063,1.6724,1.7277,1.7887,1.8329,1.8514,1.8857,1.8911,1.8638,1.9141,1.9639,1.9813,1.963,1.9523,1.9679,1.9433,1.9091,1.8841,1.83,1.7674,1.7336,1.7632,1.789,1.7934,1.7836,1.7553,1.7122,1.701,1.7022,1.6941,1.7021,1.7203,1.726,1.6723,1.6238,1.6343,1.6549,1.6901,0.9023,0.934,0.9303,0.9117,0.877,0.895,0.9055,0.9133,0.9133,0.9049,0.8889,0.8598,0.8289,0.8011,0.8147,0.814,0.8031,0.8167,0.8214,0.817,0.817,0.8465,0.9101,1.0155,1.0757,1.0948,1.1738,1.2187,1.2298,1.2333,1.2622,1.3108,1.3504,1.3701,1.3707,1.368,1.3761,1.3912,1.426,1.4544,1.4682,1.4468,1.4408,1.4408,1.3843,1.3334,1.2819,1.2508,1.2075,1.1509,1.1096,1.0689,1.0296,0.9734,0.9294,0.0,0.0,0.0,0.0,0.0,0.0,0.0,0.0,0.0,0.0,0.0,1.0811,1.1762,1.3435,1.4714,1.5342,1.6272,1.6741,1.6621,1.6752,1.6911,1.7019,1.7183,1.7505,1.8124,1.8327,1.8584,1.8917,1.9295,1.9506,1.9506,2.0011,2.0316,2.0157,2.0035,2.0018,1.98,1.9748,1.9445,1.8837,1.8537,1.8229,1.7722,1.7849,1.8027,1.7873,1.7857,1.773,1.7451,1.7525,1.7703,1.77,1.7844,1.8078,1.8152,1.7912,1.7536,1.7444,1.7599,1.7916,0.9205,0.9337,0.9137,0.9013,0.896,0.9275,0.9381,0.9323,0.9323,0.9239,0.9079,0.8825,0.8618,0.8518,0.8598,0.8492,0.8275,0.8443,0.835,0.8086,0.81,0.84,0.9038,1.0574,1.1293,1.1349,1.2557,1.3019,1.2705,1.2705,1.285,1.3165,1.3625,1.3851,1.394,1.3933,1.395,1.395,1.4454,1.4673,1.4677,1.4633,1.4466,1.4219,1.395,1.3432,1.2729,1.2652,1.2344,1.1806,1.1249,1.084,1.0624,1.0059,0.9665,0.0,0.9463,0.0,0.0,0.0,0.0,0.0,0.0,0.0,0.0,1.177,1.2725,1.4185,1.5589,1.6577,1.6968,1.803,1.8557,1.8292,1.8577,1.8641,1.8264,1.7908,1.7944,1.8696,1.844,1.8495,1.9161,1.9591,1.9811,1.9802,2.0026,2.0105,1.9865,2.01,2.0251,1.9931,2.0136,1.9778,1.8866,1.8701,1.8541,1.8087,1.8111,1.8251,1.7954,1.8062,1.8177,1.804,1.8191,1.8408,1.8661,1.8674,1.87,1.8754,1.8727,1.8611,1.83,1.8306,1.8777,1.0175,1.0069,0.9858,0.9608,0.9331,0.9387,0.9245,0.9022,0.9022,0.8937,0.8791,0.8733,0.856,0.8371,0.834,0.8343,0.8206,0.828,0.833,0.8524,0.8712,0.9159,0.9935,1.1245,1.1871,1.1916,1.291,1.3188,1.2705,1.2705,1.2924,1.3404,1.3554,1.3786,1.4153,0.0,0.0,0.0,1.4455,1.4625,1.463,1.4611,1.4532,1.4427,1.3913,0.0,1.3108,1.2888,1.2596,1.2201,1.1638,0.0,0.0,0.0,0.0,0.0,0.0,0.0,0.0,0.0,0.0,0.0,1.3762,1.3515,1.2675,1.3551,1.4699,1.5853,1.6643,1.738,1.8013,1.8452,1.8806,1.9054,1.9146,1.9164,1.9063,1.8715,1.8678,1.9118,1.8834,1.877,1.9201,1.9375,1.9421,1.9448,1.9485,1.9481,1.9438,2.0025,2.0416,2.0352,2.0045,1.9546,1.8797,1.8562,1.8419,1.8087,1.8023,1.8074,1.8023,1.82,1.8304,1.8153,1.8243,1.8473,1.8659,1.8718,1.8816,1.9137,1.9192,1.9125,1.8894,1.8871,1.9146,1.0379,1.0278,0.9983,0.9728,0.0,0.9379,0.9213,0.8937,0.8937,0.8841,0.8825,0.8825,0.8696,0.8482,0.8515,0.8477,0.8297,0.8552,0.8793,0.9004,0.9592,1.0202,1.0877,1.2138,1.274,1.2772,1.3516,1.3653,1.3256,1.3114,1.3205,1.3472,1.3425,1.3517,1.375,1.3885,1.4005,1.4198,1.4475,1.4605,1.4584,1.4449,1.4392,1.4502,1.3906,0.0,0.0,0.0,0.0,0.0,0.0,0.0,0.0,0.0,0.0,1.1033,1.1379,1.1613,1.1778,1.2692,1.3579,1.4276,1.5242,1.5529,1.4978,1.5834,1.664,1.7293,1.7925,1.8431,1.8816,1.9143,1.9301,1.932,1.9485,1.95,1.9283,1.8779,1.8586,1.8889,1.866,1.8568,1.8962,1.9201,1.9283,1.9292,1.9292,1.9292,1.9347,1.9833,2.0186,2.0168,1.9675,1.9196,1.8896,1.8692,1.8523,1.8371,1.8331,1.8331,1.8362,1.8451,1.8532,1.8544,1.8626,1.8744,1.8921,1.8999,1.9111,1.9374,1.9429,1.9469,1.9429,1.945,1.9726,1.0474,1.0444,1.0122,0.9816,0.9541,0.9544,0.9379,0.9051,0.0,0.0,0.0,0.8937,0.8893,0.8826,0.8913,0.8834,0.8733,0.9196,0.9513,0.9804,1.0615,1.1333,1.1911,1.3087,1.3677,1.366,1.4135,1.418,1.3805,1.3576,1.3485,1.3457,1.3374,1.3328,1.3282,1.3445,1.3677,1.4007,1.4403,1.4538,1.4517,1.4249,1.4175,1.4319,1.3853,1.3467,1.3227,1.3206,1.2953,1.2449,1.2267,1.2115,1.193,1.2072,1.2121,1.2016,1.2518,1.292,1.3078,1.4096,1.4919,1.5238,1.6458,1.7204,1.7188,1.7723,1.8167,1.8416,1.8984,1.9292,1.9292,1.9604,1.9687,1.9347,1.9573,1.9668,1.932,1.8678,1.8383,1.8687,1.844,1.8274,1.8779,1.9036,1.9237,1.9274,1.9292,1.9292,1.9338,1.9555,1.9815,1.9747,1.9388,1.9091,1.9042,1.8922,1.8812,1.8812,1.8812,1.8812,1.8812,1.8812,1.8891,1.9015,1.9073,1.9103,1.9253,1.9313,1.9392,1.9582,1.9708,1.9805,1.9934,2.009,2.0421,1.1047,1.1019,1.0731,1.0421,1.0205,1.0202,0.9981,0.9651,0.9158,0.8937,0.8937,0.8937,0.9001,0.9204,0.9493,0.9678,0.9881,1.0162,1.0579,1.1055,1.1653,1.2288,1.2997,1.3826,1.4207,1.4204,1.4513,1.4359,1.3856,1.3773,1.3719,1.3646,1.3409,1.327,1.3214,1.3234,1.3293,1.3352,1.411,1.4419,1.4173,1.4135,1.3981,1.3733,1.3653,1.3467,1.322,1.3213,1.3046,1.273,1.2383,1.241,1.2802,1.2809,1.3081,1.3771,1.414,1.459,1.5177,1.5817,1.6593,1.7701,1.8523,1.8652,1.7942,1.8103,1.8456,1.8882,1.9143,1.9292,1.9301,1.9356,1.9384,1.932,1.9347,1.9366,1.9292,1.8898,1.8742,1.9091,1.8568,1.8374,1.8999,1.8981,1.8981,1.9219,1.9292,1.9292,1.9301,1.9338,1.9384,1.9393,1.9308,1.9262,1.9222,1.9222,1.9192,1.9192,1.9183,1.9143,1.9143,1.9152,1.9192,1.9222,1.9262,1.9262,1.9301,1.9429,1.9506,1.9591,2.0004,2.0382,2.0376,2.0801,2.1262,1.1086,1.1053,1.0802,1.0527,1.0257,1.0091,0.9926,0.9761,0.9485,0.9379,0.9375,0.9375,0.9573,0.9985,1.0402,1.0715,1.1012,1.1677,1.2159,1.2441,1.3192,1.3762,1.4262,1.4832,1.5143,1.5121,1.5249,1.5081,1.4708,1.4669,1.4497,1.4087,1.355,1.3141,1.3018,1.2998,1.3079,1.322,1.372,1.3939,1.3806,1.3965,1.3939,1.377,1.3886,1.3824,1.3523,1.3706,1.3583,1.3154,1.3275,1.3324,1.3324,1.3956,1.4374,1.4494,1.5137,1.5653,1.5986,1.6693,1.7572,1.8581,1.8864,1.8916,1.8727,1.8785,1.8935,1.9152,1.9262,1.9292,1.9292,1.9292,1.9292,1.9292,1.9292,1.9292,1.9256,1.8953,1.8797,1.8926,1.8678,1.8557,1.8935,1.9008,1.9072,1.9274,1.9292,1.9292,1.9292,1.9292,1.9292,1.9292,1.9292,1.9292,1.9292,1.9292,1.9292,1.9292,1.9292,1.9292,1.9292,1.9292,1.9292,1.9292,1.9292,1.9292,1.9292,1.935,1.9564,1.9956,2.0275,2.0632,2.0954,2.1521,2.1928,1.0968,1.0952,1.0769,1.0586,1.0366,1.0088,1.0036,0.9978,1.0036,1.0088,1.0198,1.0091,1.0319,1.0892,1.157,1.1978,1.2316,1.3211,1.3598,1.3692,1.4424,1.491,1.518,1.5597,1.5825,1.5825,1.5825,1.5678,1.5424,1.5398,1.5064,1.4409,1.3607,1.306,1.279,1.2717,1.2811,1.3013,1.33,1.346,1.36,1.3777,1.3966,1.4164,1.436,1.4488,1.4378,1.4627,1.4497,1.3961,1.4441,1.4541,1.4312,1.5292,1.5763,1.5561,1.6249,1.6737,1.6877,1.7605,1.8346,1.8997,1.8909,1.8942,1.9246,1.9292,1.9292,1.9292,1.9292,1.9292,1.9292,1.9292,1.9292,1.9292,1.9292,1.9292,1.9265,1.8953,1.876,1.8806,1.8696,1.8614,1.8825,1.8953,1.9026,1.9109,1.9228,1.9292,1.9292,1.9292,1.9292,1.9292,1.9292,1.9292,1.9292,1.9292,1.9292,1.9292,1.9292,1.9292,1.9292,1.9292,1.9292,1.9292,1.9292,1.9292,1.9301,1.9341,1.9562,1.9965,2.0362,2.0857,2.1586,2.2117,2.2515,1.0968,1.094,1.0769,1.0692,1.0637,1.0637,1.0582,1.0582,1.0637,1.0911,1.1295,1.0857,1.1133,1.1975,1.2878,1.3378,1.3727,1.4333,1.458,1.4553,1.4898,1.5186,1.5385,1.5698,1.5825,1.5825,1.5825,1.5638,1.5431,1.5391,1.497,1.4148,1.3507,1.3066,1.2797,1.2522,1.2365,1.2392,1.2717,1.3086,1.3547,1.3567,1.3945,1.4783,1.5047,1.5473,1.596,1.6095,1.5937,1.555,1.5717,1.5992,1.613,1.6767,1.7312,1.7668,1.7869,1.8078,1.8432,1.8909,1.9128,1.9253,1.9256,1.9237,1.9292,1.9292,1.9292,1.9292,1.9292,1.9292,1.9292,1.9292,1.9292,1.9292,1.9292,1.9292,1.9237,1.8944,1.8843,1.921,1.8614,1.844,1.8935,1.8658,1.8457,1.8926,1.9155,1.932,1.9366,1.9311,1.9292,1.9292,1.9292,1.9311,1.9329,1.9301,1.9356,1.9338,1.9311,1.932,1.932,1.9292,1.9292,1.9292,1.9292,1.9292,1.9341,1.9411,1.9536,1.9812,2.0352,2.1175,2.2063,2.259,2.2815,1.0806,1.0853,1.0724,1.0692,1.0692,1.0692,1.0692,1.0692,1.0692,1.1131,1.1837,1.21,1.265,1.3426,1.4428,1.5018,1.5363,1.5908,1.5957,1.563,1.5763,1.573,1.5678,1.5711,1.5825,1.5825,1.5825,1.5772,1.5611,1.5311,1.4863,1.4309,1.3594,1.3146,1.2986,1.2545,1.2385,1.2589,1.2512,1.2779,1.3353,1.3755,1.4346,1.5032,1.563,1.6163,1.6587,1.6633,1.6423,1.6111,1.6154,1.6196,1.6243,1.7093,1.7629,1.777,1.8219,1.854,1.8705,1.9081,1.9292,1.9292,1.9292,1.9292,1.9292,1.9292,1.9292,1.9292,1.9292,1.9292,1.9292,1.9292,1.9292,1.9292,1.9292,1.9219,1.8971,1.9026,1.899,1.8678,1.854,1.842,1.8548,1.8502,1.8704,1.918,1.9412,1.9356,1.9595,1.9467,1.9301,1.9292,1.9292,1.9421,1.9595,1.9668,1.9668,1.9637,1.9637,1.9591,1.9366,1.9292,1.9292,1.9292,1.9292,1.9292,1.9292,1.9381,1.9464,1.9744,2.0543,2.1454,2.2101,2.2553,2.2815,1.0769,1.0761,1.0716,1.0692,1.0692,1.0692,1.0692,1.0692,1.0692,1.124,1.2164,1.3073,1.3938,1.4756,1.5707,1.6256,1.6445,1.6942,1.6884,1.6368,1.6273,1.6112,1.5845,1.5825,1.5825,1.5825,1.5825,1.5825,1.5758,1.5251,1.4894,1.4543,1.3761,1.3247,1.316,1.2679,1.2522,1.263,1.2553,1.2793,1.341,1.4172,1.4922,1.5577,1.6294,1.696,1.7511,1.7494,1.7315,1.6979,1.7055,1.7072,1.6955,1.7795,1.8264,1.8221,1.8683,1.9025,1.9025,1.9293,1.946,1.946,1.946,1.946,1.946,1.9469,1.946,1.946,1.946,1.946,1.9292,1.9292,1.9292,1.9292,1.9292,1.9173,1.8962,1.9081,1.8953,1.854,1.8522,1.8449,1.8219,1.8429,1.8935,1.9494,1.9467,1.9448,1.976,1.9567,1.9292,1.9292,1.9292,1.9467,1.9793,1.9857,1.9912,2.0003,1.9976,1.9756,1.9494,1.9421,1.9292,1.9292,1.9292,1.9292,1.9292,1.9332,1.9381,1.9824,2.0489,2.1233,2.1606,2.2138,2.2553,1.0956,1.098,1.0765,1.0692,1.0692,1.0692,1.0692,1.0747,1.0747,1.1345,1.2491,1.3609,1.4739,1.5779,1.6411,1.6695,1.6723,1.7071,1.6911,1.6339,1.6342,1.6126,1.5838,1.5825,1.5825,1.5825,1.5825,1.5825,1.5738,1.5264,1.5001,1.4941,1.4062,1.3447,1.3247,1.2931,1.263,1.2462,1.2811,1.3334,1.3934,1.4805,1.5706,1.6619,1.7098,1.7908,1.893,1.9137,1.8946,1.8572,1.88,1.8944,1.8841,1.9204,1.9478,1.9692,1.9788,1.9816,1.9806,1.9844,1.9824,1.9863,1.9814,1.9863,1.9824,1.9824,1.9824,1.9863,1.9814,1.9706,1.939,1.9427,1.9369,1.9341,1.932,1.9311,1.9228,1.9001,1.8953,1.8953,1.855,1.8246,1.8183,1.8429,1.8923,1.9356,1.9384,1.9522,1.987,1.9641,1.9393,1.9338,1.9356,1.9448,1.9793,1.9893,2.0049,2.0177,2.0085,1.9857,1.9738,1.9591,1.943,1.9292,1.9292,1.9292,1.9292,1.9332,1.9381,1.9666,1.9971,2.0518,2.1108,2.1672,2.2166,1.0899,1.0785,1.072,1.0692,1.0692,1.0692,1.0798,1.0966,1.1181,1.1891,1.3039,1.4148,1.5232,1.6164,1.6948,1.7259,1.7271,1.7428,1.7114,1.6593,1.6553,1.6293,1.5858,1.5825,1.5825,1.5825,1.5825,1.5825,1.5792,1.5431,1.5244,1.509,1.4362,1.3868,1.3674,1.3125,1.2761,1.2794,1.3223,1.3877,1.4669,1.5622,1.6709,1.7802,1.7813,1.8264,1.9253,1.9063,1.8852,1.8715,1.8728,1.8694,1.8686,1.9136,1.956,1.9864,1.9912,1.9912,1.9912,1.9912,1.9912,1.9912,1.9912,1.9912,1.9912,1.9912,1.9912,1.9912,1.9912,1.9824,1.9801,1.993,1.9965,1.9641,1.974,1.9645,1.9139,1.9086,1.9106,1.8652,1.8265,1.8311,1.8724,1.8999,1.9448,2.0237,2.0228,2.0237,2.0448,2.0127,1.9646,1.961,1.9494,1.9448,1.9861,1.9884,1.9985,2.0177,2.0159,1.9783,1.9604,1.9503,1.9311,1.9292,1.9292,1.9292,1.9292,1.9292,1.9341,1.942,1.9736,2.0089,2.0644,2.1328,2.1863,1.0907,1.0708,1.0692,1.0692,1.0692,1.0692,1.0911,1.1291,1.1669,1.2486,1.363,1.4798,1.5713,1.6471,1.7265,1.7589,1.7589,1.7575,1.7268,1.674,1.6707,1.64,1.5858,1.5825,1.5825,1.5825,1.5825,1.5825,1.5792,1.5538,1.5404,1.5337,1.4603,1.4175,1.3981,1.3494,1.3187,1.3267,1.3863,1.4648,1.549,1.653,1.7613,1.8603,1.8625,1.8794,1.946,1.924,1.9092,1.9055,1.8947,1.892,1.9061,1.945,1.9851,2.0099,2.0147,2.0137,2.0137,2.0137,2.0137,2.0137,2.0137,2.0137,2.0137,2.0137,2.0137,2.0157,2.0251,2.0308,2.0463,2.0855,2.0812,1.9979,2.0049,1.9972,1.9231,1.939,1.9175,1.8645,1.8479,1.8662,1.8971,1.9072,1.9546,2.0594,2.0342,2.0338,2.0695,2.0351,1.9893,1.9875,1.9664,1.9719,1.9884,1.9875,1.9976,2.0168,2.0085,1.9719,1.9531,1.9402,1.9311,1.9292,1.9292,1.9292,1.9292,1.9292,1.9292,1.9301,1.946,1.9775,2.0362,2.1021,2.1596,1.1005,1.0767,1.0692,1.0802,1.0802,1.0857,1.1131,1.1728,1.2259,1.3181,1.4331,1.5441,1.6187,1.6736,1.7318,1.7589,1.7589,1.7589,1.7261,1.674,1.6707,1.6393,1.5852,1.5825,1.5825,1.5825,1.5825,1.5825,1.5812,1.5578,1.5438,1.5317,1.483,1.4389,1.4144,1.3988,1.3795,1.3815,1.463,1.5579,1.6341,1.7408,1.8404,1.9253,1.9469,1.9676,1.9902,1.9835,1.9816,1.9825,1.9846,2.0001,2.0159,2.0391,2.0557,2.0518,2.0566,2.0566,2.0566,2.0527,2.0527,2.0527,2.0566,2.0527,2.0489,2.0527,2.0527,2.0537,2.0849,2.1111,2.1218,2.1821,2.1655,2.0284,2.0276,2.0273,1.9888,1.9696,1.9448,1.9105,1.9012,1.8897,1.8819,1.8955,1.9378,1.987,1.987,1.9888,2.0503,2.0232,1.9939,1.9912,1.9701,1.9591,1.9787,1.9925,2.0063,2.0163,1.993,1.9674,1.9595,1.9467,1.9329,1.9292,1.9292,1.9292,1.9292,1.9292,1.9292,1.9332,1.942,1.9539,2.0089,2.0712,2.1328,1.1019,1.1029,1.124,1.1459,1.1618,1.1782,1.2223,1.2822,1.3408,1.4218,1.5131,1.6033,1.6677,1.706,1.743,1.7589,1.7589,1.7569,1.7268,1.678,1.6707,1.6393,1.5919,1.5825,1.5825,1.5825,1.5825,1.5825,1.5812,1.5684,1.5691,1.5585,1.5104,1.4777,1.4597,1.4227,1.3964,1.4137,1.5162,1.6198,1.7114,1.8285,1.9292,2.0089,2.0255,2.0333,2.0362,2.0059,1.9902,1.9902,2.0059,2.0255,2.0459,2.0566,2.0615,2.0615,2.0615,2.0615,2.0615,2.0615,2.0615,2.0615,2.0615,2.0615,2.0615,2.0625,2.0625,2.0654,2.0967,2.12,2.1337,2.196,2.1926,2.0713,2.089,2.0761,2.0074,1.9863,1.9855,1.9877,1.9752,1.9748,1.9876,1.9804,1.9796,2.019,2.0145,2.0255,2.0622,2.0223,2.0049,2.0246,1.9806,1.9384,1.9512,1.9586,1.9632,1.9815,1.976,1.9591,1.954,1.9476,1.9347,1.9292,1.9292,1.9292,1.9292,1.9292,1.9292,1.9292,1.9332,1.9578,1.9893,2.0479,2.1213,1.1081,1.1299,1.1723,1.21,1.254,1.2861,1.3354,1.3954,1.4595,1.5232,1.5986,1.673,1.7107,1.7378,1.7529,1.7589,1.7589,1.7589,1.7261,1.6774,1.6707,1.638,1.5892,1.5825,1.5825,1.5825,1.5825,1.5825,1.5825,1.5825,1.5825,1.5732,1.5342,1.5106,1.5044,1.4657,1.4464,1.4673,1.5619,1.6581,1.7491,1.8523,1.9499,2.0216,2.045,2.0527,2.0566,2.0294,2.0177,2.0177,2.0342,2.0459,2.0566,2.0615,2.0615,2.0615,2.0615,2.0615,2.0615,2.0615,2.0615,2.0615,2.0615,2.0615,2.0635,2.0703,2.081,2.0859,2.1377,2.1668,2.1785,2.2272,2.2288,2.1613,2.146,2.1089,2.0269,2.0137,2.0177,2.0196,2.0128,2.0096,2.0035,2.0003,1.9844,1.9913,1.9913,2.003,2.0287,2.0145,2.0127,2.0063,1.9751,1.9457,1.9311,1.9265,1.9201,1.9366,1.9522,1.9448,1.9366,1.9366,1.9292,1.9292,1.9292,1.9292,1.9292,1.9292,1.9292,1.9292,1.9292,1.9539,1.9893,2.0624,2.128,1.1295,1.1737,1.2259,1.2906,1.3457,1.3981,1.4519,1.5066,1.5648,1.6187,1.673,1.7265,1.7536,1.7589,1.7582,1.7589,1.7589,1.7582,1.7268,1.684,1.6673,1.6393,1.5838,1.5825,1.5825,1.5825,1.5825,1.5825,1.5879,1.5879,1.5825,1.5866,1.5631,1.5401,1.538,1.5226,1.5126,1.5314,1.5993,1.6746,1.7375,1.8198,1.9063,1.9814,2.0147,2.0381,2.0566,2.0527,2.0566,2.0566,2.0566,2.0566,2.0605,2.0615,2.0615,2.0615,2.0615,2.0615,2.0615,2.0615,2.0615,2.0615,2.0615,2.0615,2.0644,2.0908,2.1143,2.1161,2.1914,2.2422,2.249,2.2779,2.2789,2.2487,2.1903,2.1219,2.0584,2.0595,2.0654,2.0458,2.0332,2.011,1.9621,1.9487,1.9193,1.8882,1.8966,1.9223,1.9487,1.9642,1.9644,1.9589,1.9595,1.9602,1.9503,1.9292,1.9301,1.9742,1.9769,1.9586,1.943,1.9402,1.9329,1.932,1.9384,1.9356,1.9292,1.9301,1.9292,1.9292,1.9381,1.9548,1.9932,2.0586,2.1165,1.1891,1.2604,1.3408,1.4056,1.46,1.5185,1.5613,1.5992,1.6358,1.673,1.7113,1.7424,1.7589,1.7589,1.7589,1.7589,1.7589,1.7589,1.7268,1.678,1.6707,1.6373,1.5925,1.5825,1.5825,1.5825,1.5825,1.5872,1.6076,1.6076,1.617,1.6379,1.6058,1.6046,1.6126,1.586,1.5878,1.6038,1.634,1.6768,1.724,1.7874,1.8567,1.9381,1.9824,2.0216,2.0527,2.0615,2.0615,2.0615,2.0615,2.0615,2.0615,2.0615,2.0615,2.0615,2.0615,2.0615,2.0615,2.0615,2.0615,2.0615,2.0644,2.0615,2.0625,2.0986,2.1161,2.1337,2.196,2.2529,2.2588,2.2847,2.2857,2.2559,2.2104,2.1734,2.1481,2.1492,2.1435,2.1063,2.0925,2.0488,1.9879,1.9525,1.9259,1.8897,1.8796,1.8882,1.9107,1.9358,1.9459,1.9573,1.9582,1.969,1.9666,1.9454,1.9558,2.0154,2.02,1.9962,1.9778,1.9632,1.9503,1.9402,1.9604,1.961,1.943,1.9311,1.9301,1.9292,1.9332,1.946,1.9784,2.0333,2.0867,1.254,1.3527,1.4482,1.5232,1.5779,1.6358,1.6683,1.6849,1.7001,1.716,1.7378,1.7529,1.7589,1.7589,1.7589,1.7589,1.7589,1.7589,1.7255,1.6727,1.644,1.6139,1.5879,1.5825,1.5825,1.5825,1.5933,1.6028,1.6218,1.6312,1.6454,1.6532,1.6419,1.6415,1.6418,1.6282,1.6249,1.6397,1.6551,1.6796,1.7215,1.7713,1.8442,1.9183,1.9706,2.0128,2.0527,2.0615,2.0615,2.0615,2.0615,2.0615,2.0615,2.0615,2.0615,2.0615,2.0615,2.0615,2.0615,2.0615,2.0615,2.0654,2.0742,2.083,2.0977,2.1387,2.1736,2.1885,2.237,2.2705,2.2812,2.2964,2.2964,2.2779,2.2516,2.2256,2.1943,2.167,2.1504,2.1229,2.1025,2.0625,1.9775,1.9566,1.9126,1.8641,1.8457,1.8548,1.8712,1.9061,1.9326,1.9383,1.9646,1.9801,1.9916,1.9777,1.9902,2.0448,2.058,2.0374,2.0246,2.0035,1.9916,1.9852,1.9875,1.9811,1.9595,1.9375,1.9301,1.9292,1.9292,1.942,1.9745,2.0059,2.0566,1.3236,1.4433,1.5488,1.6293,1.6736,1.7318,1.7477,1.7589,1.7529,1.7536,1.7589,1.7589,1.7589,1.7589,1.7589,1.7589,1.7582,1.7574,1.7141,1.6627,1.6186,1.5852,1.5852,1.5825,1.5832,1.5879,1.613,1.6224,1.6366,1.6541,1.6676,1.672,1.664,1.6578,1.6656,1.657,1.6499,1.6566,1.6635,1.6885,1.7286,1.7796,1.8477,1.9359,1.9955,2.0253,2.0518,2.0615,2.0615,2.0615,2.0615,2.0615,2.0615,2.0615,2.0615,2.0615,2.0615,2.0615,2.0615,2.0615,2.0615,2.0664,2.0967,2.119,2.1288,2.1834,2.2321,2.2353,2.2847,2.3003,2.3033,2.3062,2.2964,2.2857,2.2896,2.2588,2.2051,2.1572,2.1317,2.1239,2.0918,2.0264,1.96,1.9219,1.8951,1.8553,1.8408,1.8574,1.8845,1.9247,1.9306,1.922,1.9554,1.9959,2.0036,2.0121,2.0403,2.0747,2.0879,2.0781,2.0753,2.0589,2.0493,2.0393,2.0149,1.9912,1.9687,1.9512,1.9384,1.9292,1.9292,1.9381,1.9548,1.9902,2.0323,1.4374,1.5298,1.614,1.673,1.7113,1.7424,1.7589,1.7589,1.7589,1.7589,1.7589,1.7589,1.7589,1.7589,1.7589,1.7589,1.7522,1.7367,1.6971,1.6366,1.6012,1.5838,1.5825,1.5825,1.5933,1.6076,1.6177,1.6414,1.6744,1.6831,1.6965,1.7117,1.7066,1.713,1.7094,1.706,1.7113,1.7064,1.6966,1.7175,1.7578,1.7895,1.8619,1.969,2.0467,2.0711,2.0635,2.0615,2.0615,2.0615,2.0615,2.0615,2.0615,2.0615,2.0615,2.0615,2.0625,2.0625,2.0625,2.0664,2.0625,2.0742,2.1074,2.12,2.1249,2.2009,2.248,2.2535,2.2838,2.3081,2.3081,2.2832,2.2695,2.2617,2.2373,2.2109,2.1953,2.2051,2.1943,2.168,2.1269,2.0635,1.9529,1.9355,1.9026,1.8517,1.8517,1.8692,1.9025,1.9404,1.9435,1.9378,1.9783,2.0262,2.0661,2.078,2.0968,2.1112,2.1197,2.1193,2.1156,2.1074,2.0882,2.0589,2.0319,2.0099,1.9998,1.9672,1.9583,1.9442,1.9375,1.9506,1.9691,1.9916,2.0103,1.5446,1.6092,1.6836,1.7213,1.743,1.7536,1.7589,1.7589,1.7589,1.7589,1.7589,1.7589,1.7589,1.7589,1.7575,1.7574,1.734,1.6978,1.6686,1.6399,1.6177,1.6076,1.6157,1.6157,1.6211,1.6272,1.6461,1.6744,1.6979,1.7106,1.7192,1.7286,1.7286,1.7264,1.7286,1.7286,1.7264,1.7272,1.7251,1.7422,1.7903,1.8243,1.8869,1.9953,2.0755,2.1025,2.0644,2.0615,2.0615,2.0615,2.0625,2.0615,2.0615,2.0615,2.0615,2.0625,2.0791,2.0859,2.0898,2.1064,2.1261,2.1172,2.1582,2.1717,2.1902,2.2409,2.2711,2.2799,2.2955,2.3091,2.3071,2.2764,2.249,2.2168,2.1836,2.1523,2.1406,2.165,2.1804,2.1543,2.1133,2.0518,1.9912,1.959,1.9365,1.8987,1.8919,1.9039,1.9163,1.9516,1.972,1.9847,2.0168,2.0603,2.1189,2.1452,2.1575,2.1614,2.1555,2.1548,2.1495,2.1385,2.1257,2.0989,2.0704,2.0692,2.0578,2.0172,1.9896,1.9975,1.9971,1.9897,1.992,2.0207,2.0294,1.6346,1.6836,1.7371,1.7589,1.7589,1.7589,1.7589,1.7635,1.7581,1.7482,1.7495,1.7527,1.7395,1.7548,1.7548,1.7393,1.7058,1.6693,1.6537,1.6484,1.6381,1.6366,1.6494,1.6541,1.6548,1.6414,1.6697,1.6972,1.7041,1.7171,1.7235,1.7274,1.7326,1.7279,1.7286,1.7326,1.7282,1.7228,1.7476,1.7878,1.845,1.8844,1.96,2.0558,2.1167,2.1328,2.1045,2.0918,2.086,2.0801,2.0811,2.0811,2.0772,2.0625,2.0615,2.0625,2.0937,2.1133,2.123,2.1533,2.1807,2.1904,2.2246,2.2451,2.2506,2.274,2.2974,2.3042,2.3101,2.3101,2.3071,2.2764,2.2344,2.1953,2.1514,2.1055,2.0762,2.0918,2.1103,2.1084,2.0752,2.0205,2.001,1.9795,1.9629,1.9492,1.9434,1.9434,1.9541,1.9658,1.9922,2.0039,2.0294,2.075,2.1329,2.1931,2.2092,2.1913,2.1891,2.182,2.1731,2.1586,2.144,2.1383,2.1243,2.1139,2.0918,2.0531,2.0379,2.0521,2.0448,2.0255,2.0319,2.0493,2.0526,1.6789,1.7173,1.7477,1.7589,1.7641,1.7641,1.7635,1.7594,1.7445,1.728,1.7253,1.6981,1.7085,1.7219,1.728,1.7105,1.6931,1.6659,1.6525,1.6457,1.6475,1.6588,1.6683,1.6831,1.6885,1.6885,1.6972,1.6998,1.7021,1.7172,1.7194,1.7055,1.7208,1.7326,1.7304,1.7318,1.7248,1.7233,1.7708,1.8329,1.8897,1.9757,2.0531,2.1409,2.1882,2.1914,2.1699,2.1631,2.167,2.167,2.166,2.1641,2.1465,2.1006,2.0742,2.082,2.1113,2.1366,2.1405,2.1709,2.1875,2.1982,2.2324,2.2529,2.2637,2.2881,2.3062,2.3101,2.3101,2.3091,2.3081,2.2721,2.2344,2.1924,2.1494,2.1064,2.0752,2.0654,2.0713,2.0723,2.0352,2.0098,2.0078,2.0059,1.9961,1.9873,1.9853,1.9941,2.0136,2.0175,2.0225,2.0273,2.0303,2.0827,2.1409,2.2107,2.2488,2.2152,2.1996,2.1909,2.182,2.1731,2.1649,2.152,2.1381,2.1151,2.0931,2.0817,2.0765,2.0814,2.0695,2.0567,2.0714,2.0851,2.0774,1.7687,1.7852,1.795,1.8003,1.8003,1.7996,1.8003,1.7955,1.7747,1.7609,1.752,1.7257,1.7175,1.739,1.7561,1.7438,1.7116,1.6767,1.6654,1.6602,1.6737,1.6871,1.6958,1.7106,1.7153,1.7153,1.7138,1.7127,1.7128,1.7245,1.7143,1.7057,1.7172,1.7252,1.7218,1.7385,1.7359,1.744,1.7979,1.8642,1.9218,2.0425,2.1451,2.1867,2.2246,2.2275,2.1982,2.1936,2.1885,2.1875,2.1885,2.1936,2.1777,2.1572,2.13,2.1318,2.1621,2.1834,2.1912,2.2275,2.2549,2.2568,2.2734,2.2779,2.2828,2.2974,2.3091,2.3101,2.3101,2.3101,2.3081,2.2764,2.2344,2.1924,2.1523,2.1094,2.0674,2.0449,2.0507,2.0644,2.0508,2.04,2.0332,2.0303,2.0264,2.0254,2.0254,2.0381,2.0595,2.0546,2.0478,2.0517,2.0488,2.0839,2.1387,2.1961,2.2423,2.2201,2.208,2.2003,2.1891,2.1793,2.1676,2.1549,2.1392,2.1289,2.1406,2.1379,2.1243,2.1117,2.1145,2.1119,2.1119,2.1154,2.1096,1.8422,1.8422,1.8422,1.8422,1.8422,1.8422,1.837,1.8352,1.8023,1.7855,1.782,1.7498,1.7274,1.7456,1.7603,1.7617,1.7365,1.6874,1.6819,1.6939,1.7019,1.7153,1.7239,1.7286,1.7286,1.7286,1.7286,1.7242,1.7186,1.7282,1.7106,1.6983,1.7091,1.7165,1.7042,1.7472,1.7575,1.7821,1.8309,1.8888,1.9793,2.1078,2.2002,2.2051,2.2412,2.251,2.2275,2.2256,2.2246,2.2236,2.2207,2.2178,2.2158,2.2139,2.2139,2.2187,2.2393,2.248,2.2578,2.2799,2.2964,2.2955,2.3052,2.3081,2.3081,2.3052,2.3101,2.3101,2.3101,2.3101,2.3062,2.2852,2.248,2.2109,2.1738,2.1357,2.1025,2.086,2.083,2.0869,2.083,2.0781,2.0762,2.0898,2.0937,2.0713,2.0703,2.0508,2.0683,2.0615,2.0586,2.0664,2.0723,2.0947,2.1335,2.1738,2.2042,2.1926,2.2011,2.2036,2.1919,2.1826,2.1719,2.1621,2.1702,2.1655,2.1793,2.183,2.1601,2.1493,2.1614,2.1623,2.1467,2.1484,2.1544,1.8422,1.8422,1.8422,1.8422,1.8422,1.8422,1.8422,1.8352,1.7878,1.7561,1.7611,1.7057,1.6937,1.7141,1.7134,1.7134,1.7057,1.703,1.6972,1.7073,1.7153,1.7239,1.7286,1.7286,1.7286,1.7286,1.7286,1.7157,1.7113,1.7245,1.7018,1.6718,1.7026,1.7172,1.7007,1.7688,1.7864,1.7913,1.885,1.9929,2.0852,2.1884,2.2321,2.2539,2.274,2.2925,2.2799,2.2789,2.2861,2.2857,2.2896,2.2925,2.2945,2.2945,2.2945,2.2847,2.2734,2.2519,2.2617,2.2877,2.3101,2.3101,2.3101,2.3101,2.3101,2.3101,2.3101,2.3101,2.3101,2.3101,2.3101,2.3042,2.2789,2.2565,2.2334,2.209,2.1787,2.1465,2.1455,2.1494,2.1533,2.1387,2.1259,2.1484,2.1611,2.1357,2.1073,2.0928,2.0869,2.0899,2.0762,2.0801,2.081,2.1006,2.1182,2.1588,2.1858,2.1758,2.1983,2.2159,2.2055,2.2001,2.1799,2.1773,2.181,2.1791,2.1745,2.171,2.1704,2.1785,2.1865,2.1776,2.1668,2.1776,2.1954,1.89,1.89,1.89,1.8907,1.8907,1.89,1.8907,1.8771,1.8239,1.7952,1.783,1.7292,1.7184,1.7344,1.7258,1.7266,1.7364,1.7243,1.716,1.716,1.7239,1.7286,1.7286,1.7286,1.7286,1.7286,1.7279,1.7296,1.7201,1.7186,1.7069,1.6791,1.7055,1.7165,1.7053,1.7873,1.8304,1.8797,1.9765,2.0924,2.1655,2.22,2.2574,2.2799,2.2994,2.3081,2.3101,2.3101,2.3101,2.3101,2.3101,2.3091,2.3091,2.3081,2.3081,2.3062,2.2978,2.2881,2.2867,2.3013,2.3071,2.3101,2.3101,2.3101,2.3101,2.3101,2.3101,2.3101,2.3101,2.3101,2.3101,2.3101,2.3003,2.2877,2.276,2.2701,2.2529,2.2324,2.2178,2.2227,2.2227,2.2051,2.1834,2.1894,2.1943,2.1738,2.1582,2.1494,2.1435,2.1475,2.1269,2.1016,2.0996,2.1006,2.1133,2.1406,2.1795,2.1903,2.2346,2.2404,2.2282,2.2164,2.1907,2.1648,2.1477,2.153,2.1586,2.1752,2.1891,2.1954,2.2043,2.1998,2.1998,2.2132,2.2476,1.9038,1.9052,1.9258,1.9272,1.9272,1.9272,1.9272,1.9206,1.8686,1.843,1.8247,1.7724,1.7512,1.7611,1.7425,1.7377,1.7607,1.7388,1.7308,1.7286,1.7286,1.7286,1.7286,1.7286,1.7286,1.7286,1.7286,1.7311,1.7318,1.7296,1.7165,1.6932,1.7157,1.7121,1.7248,1.7995,1.8787,1.9711,2.0704,2.1507,2.2013,2.2304,2.2623,2.2847,2.3023,2.3101,2.3101,2.3101,2.3101,2.3101,2.3101,2.3101,2.3101,2.3101,2.3101,2.3091,2.3033,2.3042,2.3033,2.3081,2.3091,2.3101,2.3101,2.3101,2.3101,2.3101,2.3101,2.3101,2.3101,2.3101,2.3101,2.3101,2.3071,2.3052,2.3042,2.3081,2.3052,2.275,2.2594,2.2676,2.2676,2.2666,2.25,2.2344,2.2236,2.209,2.2021,2.2002,2.1963,2.1943,2.1728,2.1416,2.1387,2.1348,2.1377,2.1514,2.1848,2.209,2.2494,2.2597,2.2365,2.214,2.1881,2.1605,2.1358,2.1466,2.1717,2.1917,2.2087,2.2176,2.222,2.2309,2.2353,2.2476,2.295,1.8364,1.8423,1.903,1.9264,1.9257,1.9272,1.9264,1.925,1.8891,1.8694,1.8525,1.8072,1.7596,1.7381,1.733,1.7308,1.7337,1.7293,1.7286,1.7286,1.7286,1.7286,1.7286,1.7286,1.7286,1.7286,1.7286,1.7286,1.7286,1.7286,1.7143,1.6998,1.7255,1.7099,1.7468,1.8416,1.9698,2.0623,2.1594,2.1884,2.2133,2.234,2.2607,2.2695,2.2896,2.3101,2.3101,2.3101,2.3101,2.3101,2.3101,2.3101,2.3101,2.3101,2.3101,2.3101,2.3101,2.3101,2.3101,2.3101,2.3101,2.3101,2.3101,2.3101,2.3101,2.3101,2.3101,2.3101,2.3101,2.3101,2.3101,2.3101,2.3101,2.3101,2.3101,2.3101,2.3101,2.3071,2.2955,2.3033,2.3003,2.2916,2.2896,2.2701,2.2594,2.25,2.2451,2.2432,2.2236,2.2178,2.2041,2.1865,2.1846,2.1816,2.1797,2.1934,2.2051,2.2207,2.2512,2.25,2.2385,2.2141,2.1769,2.1788,2.1631,2.1712,2.1849,2.2108,2.2315,2.2344,2.2441,2.2564,2.275,2.2882,2.343,1.8899,1.8928,1.9228,1.9162,1.8972,1.8979,1.9096,1.9199,1.8928,1.854,1.8203,1.7918,1.7585,1.7359,1.7286,1.7286,1.7286,1.7286,1.7286,1.7286,1.7286,1.7286,1.7286,1.7286,1.7286,1.7286,1.7286,1.7286,1.7286,1.7362,1.7296,1.723,1.7512,1.7585,1.808,1.9165,2.0587,2.152,2.226,2.2613,2.2695,2.2773,2.29,2.2886,2.2988,2.3091,2.3101,2.3101,2.3101,2.3101,2.3101,2.3101,2.3101,2.3101,2.3101,2.3101,2.3101,2.3101,2.3101,2.3101,2.3101,2.3101,2.3101,2.3101,2.3101,2.3101,2.3101,2.3101,2.3101,2.3101,2.3101,2.3101,2.3101,2.3101,2.3101,2.3101,2.3101,2.3101,2.3091,2.3081,2.3081,2.3052,2.3052,2.3052,2.2964,2.2877,2.2847,2.2779,2.2584,2.249,2.2393,2.2305,2.2275,2.2139,2.21,2.2168,2.2246,2.2412,2.2588,2.258,2.2471,2.1903,2.1652,2.1721,2.1831,2.1821,2.1974,2.2326,2.2507,2.2599,2.275,2.2872,2.3047,2.3232,2.3744,1.8986,1.8986,1.8979,1.8972,1.8935,1.8935,1.906,1.9258,1.9045,1.8562,1.7969,1.7947,1.7706,1.7381,1.7286,1.7286,1.7286,1.7286,1.7286,1.7286,1.7286,1.7286,1.7286,1.7286,1.7286,1.7286,1.7286,1.7286,1.7286,1.7475,1.766,1.7839,1.8167,1.8496,1.8696,2.0167,2.1535,2.2176,2.2706,2.3101,2.3071,2.3071,2.3071,2.3071,2.3081,2.3091,2.3101,2.3101,2.3101,2.3101,2.3101,2.3101,2.3101,2.3101,2.3101,2.3101,2.3101,2.3101,2.3101,2.3101,2.3101,2.3101,2.3101,2.3101,2.3101,2.3101,2.3101,2.3101,2.3101,2.3101,2.3101,2.3101,2.3101,2.3101,2.3101,2.3101,2.3101,2.3101,2.3101,2.3091,2.3101,2.3101,2.3101,2.3101,2.3062,2.3003,2.2984,2.2964,2.2916,2.2828,2.2808,2.2773,2.2695,2.2529,2.2363,2.2373,2.2412,2.2646,2.2793,2.2828,2.2615,2.2045,2.18,2.2071,2.2105,2.1947,2.2149,2.2524,2.2741,2.2882,2.295,2.2955,2.3135,2.3319,2.3754,1.8386,1.8328,1.8379,1.873,1.9258,1.925,1.925,1.9272,1.9235,1.8855,1.8284,1.824,1.7889,1.7403,1.7286,1.7286,1.7286,1.7286,1.7286,1.7286,1.7286,1.7286,1.7286,1.7286,1.7286,1.7286,1.7286,1.7286,1.734,1.7826,1.819,1.8853,1.9439,1.9865,1.9128,2.0709,2.1891,2.2416,2.2969,2.3193,2.3266,2.3286,2.3296,2.3208,2.3208,2.3227,2.3101,2.3101,2.3101,2.3101,2.3101,2.3101,2.3101,2.3101,2.3101,2.3101,2.3101,2.3101,2.3101,2.3101,2.3101,2.3101,2.3101,2.3101,2.3101,2.3101,2.3101,2.3101,2.3101,2.3101,2.3101,2.3101,2.3101,2.3101,2.3101,2.3101,2.3101,2.3101,2.3101,2.3101,2.3101,2.3101,2.3101,2.3101,2.3101,2.3081,2.3091,2.3101,2.3101,2.3071,2.3033,2.2984,2.2896,2.2838,2.2695,2.2549,2.2588,2.2789,2.2886,2.2877,2.2838,2.2502,2.2395,2.2506,2.2395,2.2252,2.2479,2.2828,2.2862,2.2887,2.295,2.2994,2.3183,2.3321,2.3516,1.895,1.895,1.895,1.9074,1.9287,1.9089,1.9074,1.925,1.9228,1.8906,1.8401,1.8299,1.794,1.7501,1.7315,1.7323,1.7301,1.7286,1.7286,1.7301,1.7337,1.7286,1.7308,1.7359,1.733,1.7293,1.7286,1.7337,1.7286,1.8158,1.871,1.9383,2.0805,2.1433,2.1532,2.2327,2.2907,2.3446,2.3822,2.3994,2.3929,2.3945,2.3838,2.3584,2.3564,2.3374,2.3159,2.314,2.3101,2.3101,2.3101,2.3101,2.3101,2.3101,2.3101,2.3101,2.3101,2.3101,2.3101,2.3101,2.3101,2.3101,2.3101,2.3101,2.3101,2.3101,2.3101,2.3101,2.3101,2.3101,2.3101,2.3101,2.3101,2.3101,2.3101,2.3101,2.3101,2.3101,2.3101,2.3101,2.3101,2.3101,2.3101,2.3101,2.3101,2.3101,2.3101,2.3101,2.3101,2.3101,2.3071,2.3071,2.3042,2.3062,2.2984,2.2656,2.2617,2.2808,2.2818,2.275,2.2691,2.2643,2.274,2.274,2.2633,2.2555,2.2769,2.2916,2.2818,2.2818,2.274,2.2574,2.2542,2.2626,2.2802,1.9272,1.9272,1.9272,1.9272,1.9242,1.9045,1.9089,1.9257,1.9257,1.8964,1.8555,1.846,1.8123,1.7691,1.7611,1.756,1.7523,1.7633,1.7677,1.7662,1.7677,1.7721,1.7706,1.7592,1.7702,1.7614,1.7662,1.7699,1.7798,1.8644,1.9748,2.1055,2.2205,2.3014,2.3326,2.3587,2.3547,2.398,2.4251,2.4326,2.4336,2.4326,2.4212,2.4033,2.3848,2.3652,2.3408,2.3198,2.3101,2.3101,2.3101,2.3101,2.3101,2.3101,2.3101,2.3101,2.3101,2.3101,2.3101,2.3101,2.3101,2.3101,2.3101,2.3101,2.3101,2.3101,2.3101,2.3101,2.3101,2.3101,2.3101,2.3101,2.3101,2.3101,2.3101,2.3101,2.3101,2.3101,2.3101,2.3101,2.3101,2.3101,2.3101,2.3101,2.3101,2.3101,2.3101,2.3101,2.3101,2.3101,2.3101,2.3101,2.3101,2.3101,2.2886,2.2529,2.2588,2.2828,2.2715,2.2461,2.2656,2.2627,2.2832,2.2974,2.2867,2.2838,2.2974,2.3023,2.2847,2.2607,2.2334,2.2148,2.1914,2.2183,2.2512,1.9272,1.9272,1.9272,1.9272,1.9272,1.9242,1.9309,1.9272,1.9272,1.9089,1.8774,1.8745,1.8364,1.7947,1.8116,1.805,1.7867,1.8079,1.816,1.8203,1.8123,1.8174,1.8189,1.8182,1.8116,1.8196,1.8203,1.8086,1.8383,1.9584,2.1156,2.2754,2.3657,2.4344,2.4555,2.4397,2.4254,2.4553,2.467,2.4736,2.4746,2.4629,2.459,2.4404,2.4131,2.3877,2.3613,2.3325,2.3149,2.3101,2.3101,2.3101,2.3101,2.3101,2.3101,2.3101,2.3101,2.3101,2.3101,2.3101,2.3101,2.3101,2.3101,2.3101,2.3101,2.3101,2.3101,2.3101,2.3101,2.3101,2.3101,2.3101,2.3101,2.3101,2.3101,2.3101,2.3101,2.3101,2.3101,2.3101,2.3101,2.3101,2.3101,2.3101,2.3179,2.3101,2.3101,2.3101,2.3101,2.3101,2.3101,2.3101,2.3101,2.3101,2.2828,2.2549,2.2461,2.2715,2.2168,2.1924,2.2207,2.2598,2.274,2.2916,2.3042,2.3101,2.3101,2.2974,2.2779,2.2519,2.2256,2.1787,2.1602,2.2307,2.2787,1.9272,1.9272,1.9272,1.9272,1.9272,1.9272,1.9272,1.9272,1.9272,1.9089,1.8789,1.8789,1.8452,1.7882,1.8145,1.8086,1.8057,1.8108,1.8247,1.837,1.86,1.8385,1.8377,1.8464,1.837,1.8377,1.8392,1.8585,1.8874,2.0226,2.2109,2.3682,2.4495,2.5093,2.5208,2.4992,2.5078,2.5146,2.5225,2.5225,2.5244,2.5187,2.5098,2.4795,2.4404,2.4111,2.375,2.3369,2.313,2.3101,2.3101,2.3101,2.3101,2.3101,2.3101,2.3101,2.3101,2.3101,2.3101,2.3101,2.3101,2.3101,2.3101,2.3101,2.3101,2.3101,2.3101,2.3101,2.3101,2.3101,2.3101,2.3101,2.3101,2.3101,2.3101,2.3101,2.3101,2.3101,2.3101,2.311,2.311,2.3218,2.3198,2.3266,2.3325,2.3179,2.313,2.3188,2.314,2.3149,2.3101,2.3101,2.3101,2.3101,2.2955,2.2662,2.2568,2.2422,2.1914,2.1719,2.2227,2.2588,2.2711,2.2877,2.3042,2.3101,2.3101,2.2964,2.2847,2.2613,2.2363,2.1777,2.1487,2.2228,2.3023,1.9214,1.9272,1.9272,1.9272,1.9272,1.9272,1.9213,1.9177,1.922,1.9199,1.9045,1.8994,1.8621,1.8167,1.8552,1.8731,1.842,1.9032,1.9351,1.9502,1.9295,1.9428,1.9348,1.931,1.9428,1.9333,1.9325,1.9575,1.9856,2.1255,2.3192,2.4168,2.4967,2.5373,2.5508,2.5421,2.5478,2.5538,2.5645,2.5684,2.5684,2.5664,2.5459,2.5107,2.4658,2.4228,2.3838,2.3408,2.314,2.3101,2.3101,2.3101,2.3101,2.3101,2.3101,2.3101,2.3101,2.3101,2.3101,2.3101,2.3101,2.3101,2.3101,2.3101,2.3101,2.3101,2.3101,2.3101,2.3101,2.3101,2.3101,2.3101,2.3101,2.3101,2.3101,2.3101,2.3101,2.3101,2.311,2.312,2.3208,2.3344,2.3422,2.3535,2.3652,2.3705,2.3754,2.3764,2.3559,2.3296,2.3188,2.3101,2.3101,2.3091,2.2945,2.2838,2.2623,2.2363,2.1807,2.1777,2.2275,2.248,2.2559,2.2779,2.3071,2.3101,2.3101,2.3081,2.2974,2.2721,2.2529,2.2109,2.194,2.2337,2.3186,1.8964,1.9228,1.9264,1.9272,1.9272,1.9235,1.906,1.8825,1.9045,1.9177,1.9133,1.9221,1.8745,1.8333,1.8879,1.9192,1.9307,1.9841,2.044,2.0912,2.0902,2.0886,2.0859,2.0987,2.0804,2.0931,2.1006,2.0889,2.1432,2.2558,2.3678,2.4529,2.5246,2.5664,2.5645,2.5625,2.5615,2.5645,2.5684,2.5684,2.5684,2.5635,2.5537,2.5156,2.4707,2.4258,2.3916,2.3555,2.3159,2.3188,2.3237,2.3286,2.3305,2.3325,2.3305,2.3305,2.3393,2.3403,2.3374,2.3325,2.3237,2.3188,2.312,2.3179,2.3208,2.312,2.3101,2.3101,2.3101,2.3101,2.3101,2.3101,2.3101,2.3101,2.3101,2.3101,2.3101,2.313,2.3188,2.3247,2.3486,2.3633,2.3857,2.3945,2.4004,2.4238,2.4277,2.4202,2.4066,2.3666,2.3539,2.3374,2.3432,2.3452,2.3262,2.3105,2.2721,2.2353,2.1826,2.1846,2.2353,2.2402,2.2324,2.2682,2.3101,2.3101,2.3091,2.3081,2.3013,2.2852,2.2627,2.2464,2.2525,2.286,2.3546,1.8833,1.8935,1.9177,1.9272,1.9235,1.9008,1.8862,1.8774,1.8584,1.8547,1.854,1.8518,1.8399,1.8199,1.8984,1.9333,1.9643,2.0636,2.1205,2.1695,2.198,2.2106,2.2097,2.2106,2.2097,2.2097,2.2148,2.2308,2.2769,2.352,2.4214,2.4784,2.544,2.5684,2.5684,2.5684,2.5684,2.5684,2.5684,2.5684,2.5684,2.5684,2.5577,2.5312,2.4932,2.4619,2.4297,2.4014,2.3955,2.4023,2.4046,2.4066,2.4066,2.4036,2.4046,2.4102,2.4014,2.3939,2.3871,2.376,2.3623,2.3496,2.3437,2.3457,2.3408,2.3198,2.313,2.314,2.3149,2.3159,2.3169,2.3179,2.3179,2.3169,2.3169,2.3169,2.3169,2.3237,2.3359,2.3525,2.373,2.3975,2.4219,2.4355,2.4385,2.4404,2.4394,2.4394,2.4463,2.4268,2.4261,2.4134,2.4121,2.4043,2.3701,2.3389,2.3076,2.2627,2.2129,2.2236,2.2418,2.2555,2.2662,2.2857,2.3101,2.3101,2.3101,2.3091,2.3003,2.291,2.3001,2.2949,2.3363,2.3734,2.4377,1.8445,1.8584,1.8767,1.8847,1.8811,1.865,1.8496,1.8335,1.8167,1.7999,1.7955,1.8228,1.8367,1.8375,1.9275,1.9949,2.0414,2.1533,2.2391,2.2868,2.3035,2.3167,2.3203,2.3203,2.3203,2.3203,2.3261,2.347,2.3877,2.4223,2.4726,2.5079,2.5479,2.5684,2.5684,2.5684,2.5684,2.5684,2.5684,2.5684,2.5684,2.5684,2.5586,2.5312,2.5078,2.4824,2.4551,2.4287,2.4307,2.4346,2.4355,2.4365,2.4346,2.4336,2.4375,2.4375,2.4365,2.4424,2.4365,2.4238,2.4004,2.3828,2.3867,2.3945,2.373,2.3623,2.3793,2.3812,2.3812,2.3822,2.3867,2.3867,2.3867,2.3867,2.3867,2.3867,2.3867,2.3887,2.3935,2.4004,2.4248,2.4531,2.4785,2.5029,2.5068,2.5127,2.5019,2.4951,2.4941,2.4824,2.4873,2.4844,2.4717,2.4316,2.3809,2.3584,2.3428,2.2949,2.2432,2.2432,2.2549,2.2847,2.3091,2.314,2.314,2.3101,2.3101,2.3101,2.3101,2.3003,2.3294,2.3521,2.4013,2.4551,2.5218,1.8028,1.8277,1.8313,1.8313,1.8291,1.8304,1.815,1.7956,1.7916,1.7801,1.7794,1.852,1.8695,1.9124,2.0087,2.0902,2.1777,2.2695,2.3564,2.4027,2.4218,2.4313,2.4332,2.4332,2.4322,2.4322,2.4332,2.443,2.4686,2.4932,2.5128,2.5382,2.5528,2.5684,2.5684,2.5684,2.5684,2.5684,2.5684,2.5684,2.5684,2.5684,2.5537,2.5312,2.5125,2.4893,2.4678,2.4531,2.4531,2.4602,2.4736,2.4756,2.4766,2.4795,2.4756,2.4775,2.4795,2.4766,2.4668,2.46,2.4336,2.418,2.4355,2.4316,2.4092,2.4199,2.4414,2.4475,2.4475,2.4385,2.4385,2.4385,2.4385,2.4385,2.4385,2.4385,2.4385,2.4394,2.4414,2.4443,2.4717,2.5047,2.5273,2.5537,2.5625,2.5654,2.5684,2.5684,2.5596,2.5382,2.5284,2.5206,2.5127,2.4639,2.4111,2.3877,2.3809,2.3281,2.2822,2.2676,2.2656,2.2916,2.314,2.3247,2.3227,2.314,2.3101,2.3101,2.3101,2.3101,2.3406,2.3797,2.4423,2.5009,2.5893,1.8006,1.8299,1.8299,1.8291,1.8255,1.823,1.8267,1.8409,1.8379,1.8404,1.8644,1.903,1.9233,1.8876,2.0207,2.131,2.2411,2.3544,2.4334,2.4852,2.5052,2.5265,2.5294,2.5088,2.5333,2.5284,2.5235,2.5382,2.5235,2.5382,2.5538,2.5586,2.5635,2.5684,2.5684,2.5684,2.5684,2.5684,2.5684,2.5684,2.5684,2.5674,2.5664,2.5498,2.5244,2.5322,2.5303,2.5117,2.5225,2.5371,2.5372,2.5333,2.5294,2.5265,2.5255,2.5206,2.5273,2.5293,2.5167,2.5049,2.4805,2.4668,2.4766,2.4668,2.4619,2.4785,2.499,2.5128,2.5011,2.4592,2.4514,2.456,2.456,2.456,2.456,2.4514,2.4514,2.46,2.4648,2.4785,2.501,2.5283,2.5537,2.5625,2.5635,2.5684,2.5684,2.5684,2.5684,2.5684,2.5684,2.5557,2.5411,2.5293,2.4949,2.4414,2.417,2.3633,2.3232,2.3105,2.3027,2.2994,2.3169,2.3418,2.3296,2.3159,2.313,2.3101,2.3101,2.3144,2.3527,2.396,2.4669,2.5421,2.631]}]]